GFSNGP_850_spd_000.txt.gz
Wind_Speed
5 3 2 5 8 8 10 12 6 15 12 14 11 12 18 1 6 5 5 5 2 5 7 10 12 14 17 16 18 19 21 22 22 24 27 30 33 35 35 35 35 36 37 36
2 7 4 6 11 11 14 17 15 16 20 18 23 3 3 4 3 7 7 4 3 5 9 10 11 15 20 20 22 23 24 26 23 25 28 30 31 31 29 30 31 34 33 33
3 4 4 9 12 14 10 11 8 12 16 9 4 5 6 7 4 7 10 4 2 5 8 13 18 19 20 23 24 23 24 26 25 30 31 30 30 30 29 30 32 28 31 30
3 4 3 7 5 6 5 7 10 11 9 7 1 5 5 2 2 3 8 3 2 9 15 17 18 18 20 22 23 23 23 23 28 30 30 31 31 32 32 33 31 33 31 32
3 4 8 10 5 2 1 5 6 7 9 4 6 8 13 6 8 8 5 3 8 11 13 13 11 15 20 21 19 20 20 26 28 30 32 33 34 35 36 33 33 34 32 32
3 3 5 2 5 10 4 5 4 8 6 5 6 2 1 8 7 3 3 7 10 12 12 11 14 16 16 16 19 20 26 29 30 32 33 34 34 37 36 33 38 34 36 31
6 4 6 9 12 6 1 3 4 4 6 6 4 4 10 8 6 3 4 8 11 13 11 13 13 15 18 21 23 26 30 32 34 34 35 35 35 35 35 40 35 38 36 32
3 3 6 3 6 2 5 17 9 6 8 6 4 5 6 2 2 5 7 11 13 11 11 12 15 20 24 27 29 31 34 35 35 35 35 35 33 34 37 36 36 34 34 33
6 5 4 1 14 17 24 19 13 14 6 5 3 4 4 7 8 13 17 15 13 14 14 17 18 22 27 29 30 31 32 33 34 35 36 34 34 37 35 32 34 32 33 34
7 2 6 22 30 18 21 16 15 14 14 9 8 13 18 20 16 18 15 11 13 15 18 20 22 24 25 27 28 30 32 34 36 37 37 39 39 34 35 33 32 33 36 39
7 14 21 20 15 14 15 15 14 13 13 12 12 12 12 17 16 10 11 12 14 17 19 22 24 26 26 27 28 30 33 36 37 38 39 40 39 37 31 30 31 35 36 37
7 15 18 20 23 26 22 18 13 12 13 13 11 13 14 8 6 9 11 14 16 18 21 24 26 27 27 27 28 30 33 35 37 37 37 39 37 38 37 33 33 32 33 30
15 19 20 23 23 17 16 16 14 13 15 17 14 9 6 4 9 13 15 16 18 21 24 26 27 27 27 28 30 30 32 34 35 34 36 35 33 33 37 42 35 31 28 28
21 20 21 20 15 19 20 19 19 17 16 16 11 6 5 10 11 14 16 18 20 22 25 26 27 29 30 30 30 31 32 33 34 35 33 34 34 34 34 35 35 37 34 32
14 18 20 22 20 21 19 17 16 14 11 9 4 7 10 11 14 16 18 20 21 23 26 27 29 31 30 29 30 32 33 36 35 34 33 31 32 34 32 31 32 35 34 37
18 20 25 23 23 20 16 14 12 9 6 6 9 9 11 14 17 20 21 20 22 26 28 30 31 32 30 29 31 35 39 36 30 29 32 34 33 31 32 33 31 31 34 36
21 20 19 20 17 13 10 8 7 7 8 9 9 11 13 16 19 21 21 23 25 28 30 31 33 30 29 30 36 37 36 35 31 33 32 31 32 32 31 31 33 35 36 34
17 18 19 17 12 10 10 10 9 9 9 10 11 14 15 17 20 24 25 27 29 32 32 32 30 30 33 35 36 35 35 35 32 32 32 32 32 32 32 34 34 35 35 35
18 18 14 11 9 10 11 9 9 9 10 11 13 15 18 21 23 25 27 29 32 34 36 31 32 33 35 36 34 31 31 32 33 34 32 32 35 33 32 32 32 32 34 34
14 11 9 9 9 9 9 9 8 8 10 13 16 20 22 24 25 27 28 31 33 33 33 33 33 36 37 36 31 28 33 35 34 35 35 32 32 35 33 33 32 31 31 30
11 10 11 10 10 10 9 8 9 11 13 16 19 22 25 27 27 28 30 33 36 34 31 33 34 36 37 35 31 35 38 39 36 34 35 34 33 32 31 32 31 34 31 30
13 13 13 13 13 12 11 11 12 14 16 19 22 24 26 28 30 31 31 33 35 34 34 35 36 38 34 33 36 38 38 37 37 36 34 33 32 33 35 34 33 33 32 30
14 14 14 16 16 14 13 14 14 17 19 22 24 26 27 27 28 31 37 36 35 35 31 36 38 34 33 34 38 39 38 36 36 34 34 35 35 34 33 34 32 30 31 30
14 16 17 17 17 16 15 15 17 19 21 23 25 25 26 29 32 33 34 36 35 35 34 36 35 33 34 37 38 38 36 35 34 34 35 34 34 34 33 33 32 31 31 28
15 17 18 17 17 16 16 17 19 21 23 25 25 26 26 28 30 35 34 36 36 34 36 37 35 34 34 35 35 36 36 35 34 33 34 36 37 36 34 32 32 32 29 28
16 16 15 15 15 15 15 18 20 21 23 25 27 28 30 32 33 34 34 35 36 36 37 37 37 35 35 36 34 35 37 36 36 38 35 35 36 35 33 32 32 30 29 27
14 13 13 13 13 14 15 18 20 21 22 24 29 30 32 33 33 33 34 36 36 37 38 38 38 38 35 36 36 37 38 37 35 34 34 35 35 34 32 30 28 28 25 26

GFSNGP_850_spd_003.txt.gz
Wind_Speed
2 2 1 4 6 6 7 5 6 2 8 8 5 6 8 5 16 17 15 15 10 6 2 3 9 13 17 20 20 22 25 26 27 28 29 31 32 32 32 31 31 32 34 32
2 3 4 6 8 9 10 8 8 9 17 9 17 15 4 11 19 18 19 14 10 5 1 7 12 15 17 19 22 23 25 26 27 28 30 31 32 32 32 32 32 33 29 31
0 4 5 8 8 10 4 3 5 7 9 5 3 4 4 4 14 18 18 14 9 3 3 8 11 15 18 20 23 24 24 24 26 29 32 32 33 33 33 34 35 32 30 35
2 3 2 4 4 5 7 5 5 5 7 6 5 3 5 4 13 21 17 11 6 1 7 12 15 16 18 20 20 20 23 25 28 30 32 32 33 33 34 34 34 34 36 33
4 3 7 6 5 4 3 4 2 1 4 4 3 1 8 9 12 15 13 9 3 6 12 15 17 19 19 17 19 21 23 26 28 29 31 31 32 33 33 34 34 35 33 35
3 3 4 4 1 1 3 4 3 2 1 3 3 5 3 11 12 12 9 5 4 10 20 21 18 16 15 18 19 22 24 26 27 27 28 30 31 32 32 33 35 33 32 32
3 2 7 7 5 2 2 4 16 8 8 9 5 8 15 16 11 8 5 6 13 19 23 15 13 14 17 19 22 23 25 26 27 28 30 31 33 33 34 34 33 33 32 27
3 3 6 0 3 2 2 7 11 14 14 12 7 16 16 11 7 7 11 14 18 19 12 11 13 17 19 22 23 24 26 27 29 30 31 33 34 36 36 35 34 33 32 30
7 5 5 9 8 10 8 7 7 8 10 7 6 11 9 9 15 18 20 17 21 13 11 12 15 19 22 24 24 26 28 30 31 33 34 34 36 37 37 36 35 33 31 35
2 1 2 9 9 6 8 9 6 7 7 8 11 12 12 12 11 11 18 19 11 11 13 17 19 21 23 25 25 27 29 32 34 36 37 36 36 36 37 36 35 32 35 36
6 11 13 3 18 16 10 10 8 7 6 9 9 13 15 11 13 19 13 9 10 14 17 19 21 23 24 25 26 29 31 34 36 37 37 38 37 36 36 35 29 33 35 36
6 5 3 10 12 15 14 13 10 10 10 11 11 11 13 15 13 8 7 10 13 15 19 21 23 24 25 25 26 29 32 33 34 36 37 39 38 40 37 35 32 30 29 27
6 11 16 9 6 5 9 11 10 10 11 13 12 11 12 10 7 8 10 13 16 18 21 23 24 26 25 26 28 29 30 31 34 36 39 38 38 38 39 44 38 31 28 29
5 3 2 8 11 18 20 17 16 16 15 13 11 9 7 6 8 11 13 15 18 20 21 23 26 27 27 28 29 29 29 31 35 40 39 36 36 35 36 36 36 39 35 29
6 10 14 15 19 24 22 19 16 15 12 8 7 6 7 8 11 12 14 16 19 21 23 25 27 28 28 28 28 29 30 33 38 36 33 31 33 36 33 33 34 35 37 36
14 16 22 19 17 17 15 14 13 11 8 9 8 7 8 10 12 15 17 18 21 24 25 26 28 29 28 27 29 31 35 35 33 32 32 34 33 32 33 33 34 35 35 37
20 17 15 18 17 15 9 8 11 11 9 8 8 8 9 12 16 18 19 20 22 24 26 28 30 29 29 29 31 33 37 38 33 32 33 32 32 33 33 32 33 33 36 36
8 11 12 13 11 10 5 7 8 8 8 6 6 9 12 15 18 20 22 23 26 28 28 29 29 30 30 31 32 35 36 35 33 32 34 33 33 31 33 34 35 34 35 36
9 13 13 10 9 7 4 4 6 5 4 7 10 12 14 16 19 22 24 26 28 32 32 30 31 31 33 33 34 34 34 32 33 35 35 33 34 32 33 33 34 34 32 32
14 15 14 11 10 8 7 4 4 5 8 10 12 14 17 19 21 23 25 28 29 30 31 32 32 34 34 34 35 29 32 34 35 34 36 32 33 34 32 32 30 30 34 34
16 15 13 11 10 9 8 8 8 9 10 12 14 17 20 22 22 24 27 31 30 29 30 31 32 34 36 34 31 34 35 36 36 35 34 35 35 33 31 30 34 34 32 32
15 15 13 12 12 12 12 12 12 12 13 14 16 19 22 24 25 25 24 29 32 32 33 33 35 36 31 31 33 36 36 34 35 34 34 34 32 34 35 33 32 32 31 31
17 16 15 14 15 15 16 17 16 15 16 16 19 20 22 24 24 27 32 30 32 33 30 33 32 30 30 32 35 37 37 35 34 33 32 33 33 32 32 33 33 32 31 29
19 18 17 15 15 18 20 18 17 17 18 18 19 20 22 24 26 27 29 32 31 30 30 31 32 31 30 33 33 32 33 33 33 33 33 30 32 34 34 33 32 32 31 28
18 16 16 17 17 18 17 16 17 17 18 19 20 20 21 22 25 29 29 30 29 30 32 32 32 31 30 31 33 33 33 33 33 31 33 34 33 31 32 32 30 29 27 28
14 14 13 13 14 15 15 14 15 16 18 20 21 22 23 24 26 28 28 29 30 30 31 32 32 31 32 32 32 33 35 35 33 33 30 32 32 33 33 32 29 27 24 23
11 12 13 12 11 11 11 12 14 16 17 20 23 24 25 26 27 27 28 29 30 31 32 32 32 33 32 33 34 35 35 35 34 31 31 33 33 32 31 29 28 26 21 19

GFSNGP_850_spd_006.txt.gz
Wind_Speed
3 3 3 4 6 8 7 4 6 1 5 3 6 6 12 15 13 17 21 20 18 15 11 5 5 7 12 16 20 21 22 22 21 22 25 27 29 30 30 31 31 32 34 34
2 4 2 3 5 6 5 4 6 2 11 5 7 6 3 4 12 23 23 21 17 13 9 8 6 10 15 19 21 21 20 20 22 25 27 28 29 29 29 30 30 31 32 33
2 3 5 5 6 5 4 4 5 4 5 4 5 6 7 3 14 22 23 21 18 14 9 4 9 14 17 18 19 17 18 20 22 25 26 27 28 29 29 31 32 33 33 33
2 2 1 1 4 6 5 3 3 4 5 3 4 5 4 1 12 19 22 20 15 8 4 8 14 15 17 17 15 18 21 23 24 25 27 28 29 30 32 32 34 34 34 33
3 2 5 2 3 3 3 2 2 4 1 1 2 4 5 4 11 14 17 15 10 4 7 13 17 19 17 15 18 21 23 24 25 26 28 29 31 32 32 34 35 35 33 33
3 3 5 3 2 2 2 2 3 2 3 3 2 4 4 6 10 15 15 9 4 8 11 18 19 17 16 18 21 22 24 24 25 26 27 29 30 32 34 34 35 34 35 31
3 2 6 5 7 1 4 3 6 10 10 11 2 6 10 9 10 10 7 6 8 12 18 24 21 17 18 20 22 23 24 25 26 26 28 30 32 32 34 35 36 36 36 34
3 2 7 3 0 3 4 5 8 10 9 8 7 7 8 12 13 12 10 9 12 15 21 22 15 17 18 20 22 23 24 26 27 29 30 31 32 34 35 36 36 37 36 34
7 5 1 7 9 10 7 5 1 4 5 5 7 10 12 13 13 11 11 12 12 21 18 12 14 16 19 21 23 25 26 28 30 31 31 32 33 35 36 36 35 36 32 34
1 1 6 9 11 3 2 1 3 3 5 5 8 11 13 15 14 13 12 12 16 13 10 13 15 16 19 22 24 26 29 31 32 33 34 33 34 35 35 34 33 31 33 35
3 6 1 11 3 3 3 5 6 7 8 10 12 11 13 14 12 12 14 12 9 9 13 15 17 18 19 21 24 27 30 32 33 33 33 35 37 37 35 33 26 30 33 34
4 4 3 2 6 8 7 7 7 11 13 13 13 14 14 12 13 12 9 7 9 12 15 17 19 20 22 22 25 28 32 32 31 32 34 38 39 40 36 32 30 27 28 27
4 5 7 5 2 4 8 12 15 14 16 17 16 12 11 13 11 8 7 9 12 15 17 20 22 23 23 24 27 29 30 31 32 33 35 37 37 35 38 42 34 30 27 27
5 3 2 2 9 13 14 14 13 12 12 12 9 7 7 6 7 7 9 11 14 18 19 21 23 24 25 27 29 28 28 28 30 34 35 35 34 33 33 36 37 39 35 30
6 5 4 9 13 15 14 12 11 10 9 7 4 5 6 7 7 8 11 14 17 18 19 21 23 26 27 28 28 29 28 30 31 33 33 30 32 33 33 32 34 36 38 36
6 10 12 14 9 10 13 12 9 8 6 5 6 7 6 7 8 11 13 15 18 20 22 23 25 27 28 28 29 29 30 31 29 31 31 32 31 31 32 33 34 35 35 35
12 13 7 9 12 13 12 9 7 7 8 8 7 7 7 9 11 13 14 16 19 21 23 26 28 29 30 29 29 31 32 33 30 32 29 31 31 31 33 33 32 35 35 35
2 3 7 11 11 10 9 7 6 8 9 8 7 7 8 11 13 14 16 19 22 25 26 27 29 31 31 30 30 31 31 32 30 30 32 32 30 31 32 33 34 34 35 35
5 10 13 12 11 9 8 7 7 9 9 8 8 8 10 12 15 17 20 23 27 30 28 28 29 30 31 30 29 30 29 30 33 34 32 30 34 32 35 34 34 33 32 33
9 14 15 14 12 10 9 8 9 10 9 9 9 11 12 14 18 21 23 26 27 26 29 30 31 32 31 31 30 27 31 33 33 32 32 31 33 34 32 32 30 31 33 32
13 16 17 15 13 12 10 10 11 11 10 11 12 14 16 18 20 22 26 29 27 27 29 31 31 31 32 31 29 32 34 35 34 33 33 33 33 32 31 31 32 30 31 30
14 16 18 17 16 15 13 12 13 13 13 14 15 17 19 21 23 25 24 27 30 30 31 32 31 30 29 28 31 34 36 34 34 33 31 31 30 31 31 30 31 31 30 31
16 17 18 19 18 15 14 15 16 16 17 17 18 19 21 23 24 27 30 28 29 30 30 30 29 29 28 29 33 34 32 30 30 30 31 31 30 29 32 33 31 29 30 29
17 18 20 19 17 17 17 15 16 17 18 19 20 20 22 25 26 25 27 29 29 29 29 29 29 29 28 31 30 30 30 30 30 31 29 29 32 33 31 30 31 29 29 27
17 19 20 19 18 17 15 15 17 18 19 19 20 20 22 22 26 28 28 28 28 28 30 30 29 29 28 29 30 30 30 31 31 28 30 31 29 30 30 30 30 27 26 26
18 17 14 13 13 14 15 16 15 15 17 19 19 21 22 24 25 27 28 27 29 29 30 30 30 29 29 29 30 31 32 32 31 31 28 29 30 31 29 28 27 25 24 23
15 12 11 11 12 12 12 12 13 13 16 19 22 22 23 25 26 26 26 28 28 29 29 29 30 29 29 31 32 33 33 33 32 31 29 31 31 30 28 26 24 23 22 20

GFSNGP_850_spd_009.txt.gz
Wind_Speed
2 5 4 5 6 9 7 5 6 3 6 3 1 4 6 10 13 11 17 20 20 18 15 12 6 4 8 13 17 21 23 22 22 23 25 25 26 27 27 28 30 31 33 34
1 3 4 1 2 7 4 3 4 3 4 5 3 2 3 3 6 10 18 20 18 16 14 7 3 6 11 17 22 24 22 21 23 24 25 25 26 27 28 30 31 33 34 35
2 3 2 4 8 7 4 4 6 5 3 2 3 5 5 4 2 9 15 19 19 16 10 4 3 10 18 23 24 21 20 21 23 24 25 26 27 29 31 33 35 36 36 36
2 2 2 2 3 4 5 3 3 6 4 4 6 5 2 1 4 8 16 19 17 12 7 3 8 17 21 21 20 19 20 22 23 24 26 28 30 31 33 34 36 36 37 36
4 3 3 2 3 6 5 2 3 4 4 5 2 1 4 4 6 10 14 15 13 10 6 7 14 19 22 20 18 19 21 23 24 26 28 30 32 33 33 35 36 36 36 36
2 3 5 2 1 3 4 1 2 4 4 2 3 2 4 5 5 5 8 11 8 7 8 12 14 17 16 17 19 21 23 24 24 26 28 30 31 33 33 33 35 36 37 36
2 2 5 5 3 3 4 4 5 7 6 4 3 2 10 11 8 5 6 8 10 8 10 11 15 16 16 18 21 22 23 24 25 26 29 30 31 31 33 35 36 37 38 38
3 2 6 0 2 5 6 9 10 5 3 7 7 8 8 8 8 8 10 10 8 9 11 16 15 16 17 19 21 22 24 25 27 29 30 31 31 34 35 36 36 37 38 39
7 4 2 3 9 14 10 10 4 2 1 3 5 6 7 9 11 11 12 12 11 11 15 13 14 16 18 20 22 24 26 28 29 31 32 32 33 35 36 36 35 36 35 36
2 2 3 10 12 8 4 3 2 4 4 4 3 6 10 12 12 13 13 12 13 15 14 12 14 16 18 20 22 25 28 30 32 33 34 34 34 36 36 35 35 32 33 35
1 1 3 8 4 5 6 6 5 5 5 7 9 10 10 10 11 12 12 13 14 11 11 13 15 17 18 21 24 27 29 32 34 35 35 36 37 37 36 34 26 29 32 34
4 7 5 6 6 3 3 1 3 6 9 12 12 11 11 10 11 12 13 12 10 11 13 15 17 18 19 21 24 28 32 34 33 34 35 36 39 41 37 32 28 28 27 27
6 12 6 5 6 2 2 5 8 11 12 12 14 14 11 13 12 13 11 10 11 12 14 16 18 19 20 23 26 30 31 32 33 32 35 36 38 38 38 37 29 32 28 27
7 9 8 7 2 4 6 8 10 12 12 12 13 15 12 10 10 10 9 10 11 13 15 18 20 22 23 27 30 29 29 29 30 33 34 36 36 34 34 34 33 35 36 30
6 4 4 1 5 9 8 10 12 12 11 10 10 9 9 10 10 9 9 10 13 16 18 20 23 25 27 28 29 29 29 31 33 33 33 31 33 32 34 31 32 36 37 36
5 3 5 8 5 6 10 13 15 12 9 7 7 9 9 9 8 8 9 13 16 18 20 23 25 27 27 28 28 29 31 32 31 32 31 32 33 33 31 32 35 34 36 37
5 8 7 3 6 9 11 12 12 9 7 9 9 9 9 9 9 10 12 14 17 20 21 23 27 27 28 29 30 32 33 32 31 29 31 33 33 32 32 34 34 37 36 37
4 4 2 7 10 12 11 11 11 10 10 10 10 10 10 10 11 13 14 16 19 21 22 26 27 29 30 30 31 31 31 29 28 31 33 34 32 31 33 34 35 34 37 35
7 5 7 9 11 12 13 12 11 11 12 11 12 11 12 13 14 15 16 18 22 26 27 27 28 29 30 30 29 29 26 28 31 34 34 31 33 32 35 33 33 33 33 33
2 5 9 12 13 14 14 13 13 13 13 14 13 14 14 14 15 17 19 22 23 26 28 29 30 31 30 30 28 26 29 31 33 35 33 30 33 33 32 32 29 30 31 31
5 6 10 13 15 16 16 14 14 15 14 15 15 15 16 16 18 20 23 27 25 26 28 29 31 31 30 29 26 29 31 33 34 34 34 33 32 32 32 31 30 31 32 29
12 13 13 16 17 19 17 16 15 15 16 17 17 18 19 19 20 22 23 26 28 29 30 32 32 30 29 26 29 31 33 33 32 31 31 31 32 32 31 31 32 31 30 31
15 16 17 18 19 20 19 18 17 17 17 17 18 19 20 21 21 24 28 26 28 29 30 31 30 29 28 27 31 32 31 30 30 29 30 31 30 30 32 33 31 29 30 30
14 17 19 19 20 22 21 18 16 16 17 17 18 19 20 22 23 23 25 28 29 30 30 30 30 29 27 30 30 29 30 30 30 30 30 29 32 33 30 29 29 30 29 26
16 18 18 19 22 21 16 14 15 15 15 15 16 17 19 21 25 27 28 29 29 29 31 30 29 29 30 29 29 29 29 30 31 29 29 31 29 29 29 30 29 28 27 28
16 16 16 18 17 15 13 13 13 13 14 14 14 16 19 21 24 27 29 29 30 30 30 31 30 29 29 29 29 29 30 31 31 31 29 29 30 31 30 29 27 25 25 24
15 15 15 14 12 11 12 12 11 10 11 14 16 18 21 24 26 27 28 29 29 29 30 30 29 29 29 30 30 31 32 32 32 31 29 31 31 29 27 25 25 25 24 23

GFSNGP_850_spd_012.txt.gz
Wind_Speed
3 3 5 7 9 10 9 7 7 5 8 5 3 2 2 1 5 9 13 17 18 17 15 12 8 4 4 7 15 22 23 23 23 24 25 25 25 27 28 29 31 33 35 36
2 3 2 3 4 8 5 4 3 5 5 4 3 4 4 3 3 0 6 13 15 16 14 11 8 5 5 12 20 25 23 24 25 25 25 25 26 28 30 32 34 36 38 39
3 1 3 4 8 7 5 4 7 7 7 5 3 6 5 6 5 3 4 9 15 16 13 11 7 3 10 17 21 21 24 24 24 24 25 26 28 30 33 35 38 38 39 39
3 1 1 3 1 6 6 2 4 5 5 5 8 6 5 3 3 6 8 10 14 15 13 9 4 7 13 15 18 20 21 24 24 25 26 28 30 33 35 37 38 38 38 37
4 4 3 0 4 6 5 1 1 7 6 7 6 3 3 4 5 8 8 9 12 11 9 6 6 9 14 18 17 20 21 22 23 25 27 30 32 34 35 36 37 37 38 38
2 3 7 1 3 6 4 2 5 8 5 6 6 2 3 4 4 4 4 7 9 9 8 6 7 14 18 18 18 19 20 22 23 25 28 31 32 34 34 34 37 39 40 39
2 2 6 3 3 3 5 4 8 11 11 9 4 4 2 2 1 2 5 8 10 9 5 7 11 17 17 15 17 20 21 22 24 26 29 31 33 32 34 37 39 39 42 42
3 2 6 3 4 6 5 12 15 12 8 5 3 1 1 2 2 2 5 7 7 6 8 11 14 14 13 15 18 20 22 24 26 28 30 31 32 34 36 38 40 42 42 42
6 4 1 1 3 18 16 19 11 6 6 4 3 1 3 5 6 6 7 8 8 9 9 11 11 14 15 17 20 22 25 27 28 30 31 31 34 36 39 39 39 39 37 36
3 2 2 13 17 14 12 10 8 5 4 2 2 1 5 7 6 7 8 9 9 9 10 11 12 14 17 19 22 24 27 28 30 32 35 35 35 36 38 38 36 33 32 35
0 2 3 7 9 11 9 6 4 2 2 3 5 6 7 6 6 6 7 8 10 11 10 11 13 16 17 20 23 25 27 29 33 35 36 37 37 37 36 34 27 29 32 34
5 9 5 9 11 8 6 5 5 3 3 6 9 9 8 6 5 5 6 9 10 10 11 12 15 17 18 21 23 26 30 33 34 36 37 38 39 41 37 31 26 27 27 26
3 13 8 16 11 10 7 5 3 3 5 7 8 7 7 5 5 6 8 9 9 10 11 14 17 17 18 21 25 28 31 33 35 35 36 37 38 38 40 39 33 30 27 28
15 14 11 14 8 6 4 2 2 6 8 8 7 6 6 7 5 6 7 9 9 10 13 15 17 18 20 25 28 29 31 32 33 34 35 36 34 34 34 35 37 37 35 30
16 7 10 11 6 3 2 1 5 8 9 8 7 6 5 5 6 7 8 9 11 12 13 16 18 20 25 28 29 29 31 32 33 34 33 31 33 34 34 32 32 36 36 36
15 13 8 5 6 4 1 4 7 9 9 7 6 5 5 6 7 8 8 10 12 13 15 18 22 25 28 27 28 30 32 32 32 32 31 32 33 33 32 32 34 34 35 37
14 9 6 9 4 0 4 6 8 8 8 7 5 6 7 8 9 8 9 11 13 15 18 21 25 26 27 27 29 32 33 32 30 29 31 33 34 31 32 33 33 35 36 37
5 13 9 4 1 3 5 7 8 9 9 8 9 9 10 11 10 10 11 13 16 17 19 22 25 27 28 29 30 32 32 30 29 30 32 34 30 31 32 33 33 34 34 34
14 9 5 1 3 5 7 9 9 10 10 11 11 11 11 11 12 12 15 17 19 22 23 25 26 28 29 30 30 30 28 29 31 33 34 31 33 32 34 34 32 32 31 32
12 6 2 3 5 7 8 9 11 11 11 12 12 13 13 12 13 15 18 19 20 22 25 27 29 30 31 31 29 28 29 31 32 34 35 30 33 34 34 33 29 32 33 31
9 6 3 4 6 9 11 12 13 13 12 13 14 13 13 14 16 18 19 22 21 24 26 28 29 31 31 30 28 29 30 31 33 34 33 33 32 33 34 33 32 33 32 30
6 6 8 9 10 11 12 14 14 13 14 14 14 15 16 16 17 18 19 22 25 26 29 30 30 30 29 26 28 30 31 32 32 32 31 30 32 32 32 33 34 32 30 31
6 8 9 11 12 14 15 16 16 15 13 13 14 14 16 16 17 20 24 23 25 27 29 30 29 28 27 26 29 30 30 30 30 29 30 31 30 31 33 33 30 30 32 31
8 10 12 14 16 16 16 17 15 13 12 12 13 14 15 16 18 18 22 24 26 28 29 28 28 27 27 29 29 29 29 29 30 30 30 29 32 33 31 30 31 31 30 28
13 14 15 16 15 15 17 15 12 10 10 10 11 12 14 17 20 21 23 25 27 27 29 28 27 28 28 28 28 29 29 29 30 30 30 31 30 30 31 32 30 28 26 27
15 14 14 14 14 15 13 10 8 7 7 8 9 11 13 16 19 22 24 26 27 27 27 28 28 28 28 28 28 29 29 30 30 30 30 29 30 32 31 29 27 25 25 25
13 13 12 12 12 10 7 6 6 6 6 7 8 11 15 18 21 23 24 25 26 26 27 27 27 27 27 29 29 30 30 30 30 30 30 30 31 30 27 25 25 24 23 22

GFSNGP_850_spd_015.txt.gz
Wind_Speed
1 2 6 6 8 11 10 10 10 7 8 6 5 5 7 9 13 14 17 18 20 20 19 17 14 10 5 1 8 14 18 20 22 20 21 21 21 22 24 27 29 31 34 35
1 2 4 5 6 12 11 4 7 5 7 4 5 8 7 7 8 9 11 14 17 19 19 18 13 8 4 4 10 15 17 18 18 21 21 21 22 25 27 29 32 34 36 37
3 2 5 4 10 11 7 5 11 11 9 7 4 7 10 11 9 7 4 9 15 18 18 15 11 8 4 7 12 16 16 17 18 20 21 22 24 27 30 33 36 37 36 36
3 2 2 5 1 6 8 4 5 3 5 6 11 11 10 8 7 4 1 4 11 16 16 13 11 7 6 10 14 15 17 18 18 20 22 24 27 29 32 35 37 37 37 36
4 4 4 1 4 6 7 5 6 8 6 12 15 11 6 5 3 1 1 2 7 12 13 12 9 5 7 12 16 16 17 17 19 22 24 27 29 32 34 36 37 38 38 39
2 4 6 1 2 6 4 3 8 9 8 8 9 3 2 2 0 1 2 2 8 12 12 10 6 6 10 14 16 16 16 18 20 23 25 28 31 33 34 36 38 39 40 39
3 3 5 4 4 6 4 3 9 15 16 13 4 4 6 1 1 2 3 6 9 10 9 7 6 9 12 14 15 16 17 19 20 23 27 29 32 33 35 37 39 40 41 39
3 2 7 4 4 6 4 13 19 18 14 11 10 7 4 4 3 4 6 9 10 10 8 7 8 10 12 13 15 16 18 20 23 25 28 31 33 34 35 38 39 40 41 39
6 3 1 0 1 10 24 26 15 15 11 10 9 6 5 3 4 7 9 10 10 9 7 6 10 12 13 14 15 17 20 23 25 28 31 32 34 35 37 37 37 38 36 35
3 0 2 10 18 16 18 17 13 11 10 7 7 6 5 4 6 8 9 10 8 7 7 8 11 12 11 13 16 19 22 25 28 32 34 33 33 34 35 35 34 31 32 33
2 2 6 7 14 18 16 13 11 9 8 8 9 8 7 6 6 8 9 8 7 7 7 8 9 9 12 15 17 20 24 28 31 32 33 35 35 34 34 31 25 28 31 31
5 14 6 14 17 16 14 12 10 9 9 8 8 9 8 7 7 6 7 7 7 8 7 7 8 10 13 16 19 23 28 31 31 32 34 35 36 37 32 29 26 25 24 25
5 20 6 23 19 16 14 13 11 8 7 6 6 7 6 5 5 8 8 8 6 7 6 7 9 11 15 17 22 26 29 29 31 32 33 34 34 34 38 35 31 27 24 25
17 21 17 19 14 16 12 11 9 6 4 5 6 6 6 6 7 9 8 7 6 5 6 8 11 13 17 21 25 27 28 28 31 32 32 32 30 33 33 35 35 32 32 28
24 9 20 19 19 14 12 10 6 3 3 4 5 5 7 8 9 9 8 7 5 5 7 10 13 16 20 24 26 27 29 31 32 32 30 28 30 31 32 30 31 33 35 33
16 17 21 18 15 14 11 7 4 3 3 4 4 4 6 7 8 8 7 7 6 7 9 12 16 19 22 25 26 28 30 30 30 29 28 29 30 32 30 30 32 33 34 35
27 18 17 15 16 12 7 4 3 3 4 4 4 4 6 8 9 8 8 8 8 9 11 15 18 21 23 25 27 29 30 31 28 26 28 30 31 29 29 31 32 32 34 34
16 14 13 16 14 9 5 3 2 3 4 4 5 6 7 9 8 9 9 9 10 11 14 17 20 22 24 25 27 29 30 29 27 28 30 31 27 29 31 31 32 32 33 35
20 22 17 12 8 6 3 2 1 3 4 5 6 7 8 9 10 10 10 11 12 14 16 19 22 23 24 26 28 29 28 27 29 30 31 29 31 31 32 32 32 31 32 34
22 17 12 9 6 4 2 0 3 4 6 7 8 9 10 10 10 11 11 12 13 17 19 21 23 25 27 28 27 27 28 29 30 31 31 29 31 31 31 31 28 29 32 30
17 12 8 6 5 3 2 3 5 6 7 8 8 9 10 10 11 11 13 14 14 18 20 21 23 25 27 28 28 28 28 29 29 30 30 30 30 30 31 30 31 31 31 30
10 7 6 5 4 4 4 5 7 7 8 8 9 10 10 10 11 12 13 15 17 18 21 22 25 26 27 27 28 28 28 29 29 29 28 28 29 30 30 31 31 30 30 33
7 6 4 4 5 6 6 7 8 9 9 9 8 9 9 9 11 12 14 15 17 20 23 25 26 26 27 27 27 27 28 27 27 27 27 28 28 29 31 30 29 30 31 30
3 3 5 6 6 7 8 9 10 9 7 6 6 7 8 9 10 12 14 16 19 22 24 26 26 26 25 27 26 26 26 26 26 27 27 27 29 29 28 29 30 30 30 27
4 7 7 8 8 8 8 9 8 6 4 4 4 5 7 9 11 12 15 19 21 24 25 24 25 25 25 24 25 25 26 26 27 28 28 28 27 28 29 30 29 28 26 26
9 9 8 7 7 7 8 7 5 3 2 2 3 5 8 10 13 16 19 21 22 23 23 24 24 24 25 25 26 26 27 28 28 28 28 27 27 29 29 28 26 25 25 23
8 8 7 7 6 6 6 4 3 2 2 2 4 6 9 12 15 18 19 20 21 22 22 22 23 23 25 26 27 27 28 28 28 28 27 28 28 27 25 24 24 23 21 20

GFSNGP_850_spd_021.txt.gz
Wind_Speed
2 5 16 15 19 21 21 18 13 12 15 9 10 9 8 14 20 22 23 23 22 20 18 17 15 13 12 11 9 7 5 7 11 14 16 15 14 16 18 21 23 24 25 25
4 2 6 11 17 21 21 21 20 18 16 7 1 4 9 15 20 22 22 21 20 18 18 17 16 14 13 12 10 5 5 9 13 15 15 15 16 19 21 22 24 24 25 24
3 6 5 8 18 19 19 21 19 20 17 13 6 8 10 13 16 17 18 18 18 17 16 16 15 14 13 11 7 4 6 10 13 15 15 16 19 21 22 23 25 26 24 25
1 6 5 1 3 16 20 19 19 19 15 6 10 9 7 5 9 11 11 14 15 15 16 15 15 13 13 10 6 4 8 10 13 16 16 18 20 20 22 24 25 25 27 28
3 7 8 8 4 5 12 17 20 17 15 6 17 18 9 8 10 11 11 12 13 14 15 16 15 14 11 8 5 6 8 11 15 16 18 19 21 23 25 26 27 28 29 30
1 3 4 6 3 0 5 7 5 16 13 16 20 9 6 11 11 12 12 12 13 14 14 14 13 12 9 6 5 6 10 14 16 17 19 21 23 26 26 27 29 29 29 28
4 3 7 3 4 4 5 2 3 6 15 21 12 5 24 17 13 11 10 10 11 12 12 13 12 10 7 5 6 8 13 15 16 17 20 22 25 26 27 27 28 28 28 27
4 4 7 5 5 4 3 6 9 13 17 17 19 18 18 16 13 11 11 11 11 12 12 10 9 8 6 4 7 12 14 14 16 19 21 24 26 27 26 25 27 27 27 27
9 5 3 2 3 2 5 12 15 18 17 21 20 17 15 15 12 11 10 10 10 10 10 9 7 6 4 6 10 12 13 15 17 21 23 24 24 24 25 24 25 26 27 27
3 4 2 4 2 4 13 14 16 18 19 17 18 15 14 12 10 9 8 9 10 10 9 7 6 5 7 10 10 11 13 16 20 23 24 23 21 22 23 24 26 26 29 30
1 2 2 5 6 13 16 17 18 15 13 14 15 13 11 9 8 7 8 8 9 9 7 7 7 8 8 8 9 12 15 19 21 22 22 22 21 22 24 22 23 28 30 32
3 13 4 10 17 17 19 19 18 17 16 13 11 10 8 6 6 7 8 9 9 9 9 8 7 7 7 8 11 14 18 20 20 22 21 21 23 27 22 23 23 24 26 26
2 14 4 17 19 17 19 18 15 13 11 12 10 7 6 6 6 7 8 9 10 9 9 8 7 6 7 10 13 16 19 20 21 21 20 22 23 25 30 31 24 23 24 25
13 18 15 19 14 18 19 18 16 14 13 10 7 5 5 5 6 7 8 9 10 9 9 8 6 7 10 12 15 17 19 21 21 21 25 24 24 25 25 27 30 30 28 27
13 8 12 18 22 19 20 19 17 15 11 8 5 4 4 5 6 7 9 10 10 10 9 8 8 10 12 14 16 19 20 21 22 26 26 24 23 24 25 26 27 30 31 32
13 13 19 24 25 23 21 18 16 13 9 6 4 3 4 5 7 8 9 10 9 9 9 9 10 11 13 15 18 20 21 23 25 26 26 23 22 24 25 26 28 29 29 30
24 18 23 26 26 23 19 15 12 10 7 4 3 3 3 6 8 9 10 10 10 11 10 10 11 13 15 18 20 22 23 25 25 24 21 22 23 23 25 27 27 28 29 29
13 15 22 28 26 22 18 14 10 7 5 4 3 4 5 6 7 8 9 10 11 11 11 12 12 14 17 19 21 23 25 25 24 23 23 22 23 25 25 26 27 27 29 31
15 21 20 21 20 19 16 12 9 7 5 3 4 4 5 6 8 9 10 10 11 11 11 12 14 16 18 20 22 25 25 23 21 21 22 22 23 24 24 25 26 28 29 31
22 22 21 22 19 15 14 11 8 6 3 3 3 4 5 7 9 11 11 11 11 11 13 14 16 18 20 22 24 25 22 19 21 22 23 23 23 23 25 24 24 27 29 29
25 25 23 20 18 15 12 9 6 4 3 3 4 5 7 9 10 11 11 9 12 11 13 15 17 19 21 24 25 23 21 21 22 22 23 22 22 24 25 26 27 28 28 29
27 24 20 17 14 12 10 7 5 4 3 4 5 7 7 8 8 9 9 9 13 12 14 16 18 21 23 24 23 21 21 23 23 23 23 23 25 28 28 28 28 27 29 30
23 19 16 13 11 10 8 6 4 4 5 6 6 6 6 6 7 7 7 10 11 14 15 17 20 21 22 22 21 21 22 22 23 23 24 26 27 27 27 27 27 27 28 28
17 15 13 11 9 8 6 5 5 5 5 4 5 5 6 6 7 7 8 11 12 15 17 18 19 20 21 22 21 22 22 23 24 25 26 26 26 28 28 28 27 28 28 27
13 11 9 8 8 7 6 5 5 4 4 5 5 6 6 5 6 7 9 11 14 16 17 17 19 20 21 21 22 24 24 25 25 26 27 28 29 28 27 27 27 27 25 25
10 8 7 8 7 7 7 7 6 6 6 6 6 5 4 5 6 8 10 13 14 15 17 18 19 21 22 23 24 25 25 26 27 27 27 28 27 27 26 26 26 25 25 24
8 8 8 9 9 8 8 7 6 7 7 6 5 3 3 5 8 10 12 13 15 16 18 20 21 23 23 25 25 25 26 27 28 28 27 27 27 27 26 26 25 24 23 22

GFSNGP_850_spd_024.txt.gz
Wind_Speed
8 12 11 10 11 9 10 7 2 2 7 9 10 11 13 20 26 29 29 29 29 28 24 23 21 18 17 15 12 10 6 3 4 10 14 16 15 15 17 19 22 26 29 30
7 7 7 8 10 13 14 8 7 8 5 7 4 18 18 23 24 25 28 30 27 25 24 24 22 20 19 15 12 9 5 3 6 11 14 15 15 16 19 22 26 28 29 29
4 4 3 3 9 14 13 11 11 11 8 1 6 8 12 22 23 22 24 26 25 24 24 23 21 20 18 15 12 8 4 4 8 13 15 14 16 19 22 25 28 28 29 30
1 4 2 5 2 11 11 7 11 8 6 3 8 16 18 13 19 20 23 26 24 23 22 22 21 18 16 13 11 6 3 6 10 14 14 15 18 21 24 27 28 29 31 32
2 4 5 3 2 1 6 9 8 7 9 15 24 18 12 14 16 18 21 23 22 23 23 22 20 18 15 12 8 4 4 8 11 13 14 17 20 24 26 27 29 31 32 33
3 2 2 2 3 6 3 3 6 7 8 15 14 5 4 13 19 20 19 20 23 22 21 19 18 15 13 10 6 3 5 9 11 12 16 19 23 26 27 27 30 32 32 31
2 2 6 2 1 4 3 3 9 10 21 20 5 4 26 21 19 19 19 20 18 17 17 15 14 13 10 7 4 3 7 9 11 14 18 22 24 25 27 29 31 32 33 33
3 2 6 5 3 2 2 3 4 19 23 29 29 29 27 23 21 19 19 18 16 16 14 13 13 11 8 5 2 5 8 9 12 16 20 22 24 27 27 30 32 33 34 36
7 5 2 4 5 4 3 8 14 22 24 27 28 26 24 22 19 18 17 17 14 12 13 13 11 8 5 3 3 6 7 10 14 18 20 22 26 27 29 30 31 33 35 37
4 3 4 6 4 7 9 15 15 19 23 25 28 23 22 19 18 16 14 13 12 11 11 10 9 6 3 2 4 5 9 13 16 19 22 25 26 27 29 30 31 32 34 35
2 2 3 4 7 15 18 19 20 20 20 22 22 20 18 17 14 13 13 13 11 9 8 8 6 3 1 3 5 8 11 14 17 21 25 26 26 28 28 27 25 28 30 32
3 12 6 8 19 20 23 25 23 24 22 18 18 19 16 14 12 11 11 11 11 8 7 5 4 2 2 4 6 9 13 16 20 24 25 26 30 33 29 29 26 24 24 25
3 15 9 22 24 22 26 25 22 22 20 21 18 15 13 13 10 9 8 9 9 10 7 5 3 3 3 5 8 11 15 20 23 24 26 28 30 30 35 35 31 26 24 25
20 24 18 23 15 22 25 23 21 20 18 16 15 11 9 8 8 7 7 7 8 7 5 4 4 3 5 7 10 14 18 21 22 24 26 28 27 29 29 31 35 37 33 27
19 6 18 20 27 25 24 23 22 20 17 14 11 8 7 7 7 6 6 6 6 6 4 3 4 6 6 9 13 18 20 22 23 25 26 26 27 28 29 30 30 33 35 34
13 19 24 28 27 25 24 21 21 18 14 12 9 7 6 5 4 4 4 5 4 4 4 5 5 6 9 13 17 19 21 22 23 24 25 27 27 28 29 29 32 32 32 35
27 21 25 24 27 25 22 19 17 16 14 10 8 7 6 5 4 4 4 4 5 5 5 4 6 9 12 15 18 20 21 23 23 24 24 25 27 28 28 30 30 31 33 34
13 15 20 26 31 28 22 18 17 14 11 9 8 7 6 4 3 2 2 4 5 5 5 6 8 11 14 17 19 20 22 23 24 23 24 25 25 25 28 29 30 32 34 35
11 18 22 28 27 25 22 20 16 13 11 9 7 5 4 3 0 1 2 3 3 4 7 8 10 14 16 18 19 21 23 24 23 23 24 26 26 27 27 28 30 30 33 35
25 27 30 27 23 22 21 16 14 12 9 6 5 4 3 1 1 2 2 2 4 6 8 11 14 16 17 18 20 23 23 22 22 24 26 25 26 26 27 29 30 32 32 31
29 30 30 29 25 20 17 14 11 9 7 5 3 2 1 0 1 1 2 4 5 6 9 12 14 15 16 20 22 22 22 22 23 25 25 25 26 27 30 31 31 31 31 30
31 31 28 25 22 20 15 12 9 7 5 3 2 0 0 1 1 2 3 5 6 9 11 12 14 17 19 21 22 22 21 22 23 24 24 25 27 29 29 30 31 31 29 30
29 26 24 21 18 16 13 9 6 4 3 2 1 0 1 1 1 2 3 4 7 9 11 13 16 18 19 20 21 21 21 22 23 24 25 26 27 28 30 31 30 29 29 30
26 22 20 17 14 11 9 8 5 4 3 1 1 1 1 1 1 1 3 6 8 10 13 15 16 17 19 20 20 21 22 23 24 25 25 26 29 30 30 29 28 28 28 26
20 18 15 13 10 9 8 7 6 4 2 2 2 2 1 1 2 3 4 7 10 12 12 14 16 17 19 20 21 22 23 23 25 25 27 27 27 28 28 28 27 27 26 26
16 14 12 10 9 8 8 7 5 3 2 2 3 2 1 1 2 4 7 9 10 11 13 15 17 19 20 21 22 22 23 24 25 26 26 27 27 27 27 26 26 25 24 23
14 11 11 11 10 8 7 5 3 3 3 2 2 1 0 2 4 7 8 9 11 13 15 17 18 20 21 22 23 23 24 25 24 25 25 25 24 24 24 24 24 23 22 20

GFSNGP_850_spd_027.txt.gz
Wind_Speed
13 16 9 8 5 7 5 4 4 5 6 8 8 10 14 26 29 32 36 40 41 39 34 29 26 24 22 19 17 14 12 8 3 3 8 11 12 12 13 15 18 22 24 25
7 8 8 7 5 6 4 3 2 3 2 4 5 11 13 27 31 29 31 33 37 36 32 28 27 26 23 19 16 14 11 6 2 4 9 12 11 12 15 18 21 23 24 26
2 4 5 3 7 4 2 2 5 3 5 4 6 8 13 24 29 31 36 38 37 35 31 28 27 25 23 18 15 13 9 5 2 6 10 10 11 14 17 20 23 24 25 27
3 4 2 4 2 8 11 5 6 4 3 3 10 15 11 25 35 36 37 37 35 32 28 28 26 23 20 16 13 12 8 4 3 8 9 10 12 16 19 22 23 25 27 28
1 2 5 2 4 3 6 6 6 11 6 12 19 15 14 12 27 32 33 33 31 28 27 28 26 23 18 14 14 11 6 2 5 8 8 11 15 18 21 23 25 27 28 29
3 2 3 2 4 3 1 2 2 1 11 15 11 5 3 17 21 26 28 29 29 28 28 27 23 18 14 14 13 8 3 3 6 6 9 13 17 20 23 24 26 28 29 29
2 2 6 4 3 6 2 4 6 4 15 18 6 4 26 23 25 26 28 28 27 26 24 21 17 15 15 14 10 5 2 4 4 7 11 15 18 21 24 25 27 28 30 30
2 2 6 2 2 2 3 4 6 12 18 25 29 34 31 26 26 25 26 24 21 21 19 17 15 15 13 10 6 3 2 2 5 9 13 16 20 23 24 26 28 30 32 33
6 6 2 1 2 4 2 7 10 23 24 30 33 31 29 28 25 23 21 20 18 19 19 16 14 11 9 7 5 2 1 3 7 11 14 19 22 23 25 27 28 30 31 34
4 5 4 6 4 5 9 12 17 22 26 27 33 30 28 26 24 22 20 19 18 17 17 17 14 11 7 5 3 1 2 5 9 14 17 20 21 23 26 28 28 29 30 32
2 1 2 4 7 14 19 19 21 21 23 28 30 27 26 25 23 21 19 17 15 14 14 13 11 8 6 4 3 1 4 8 12 16 19 21 22 25 26 25 23 25 26 27
5 10 6 6 19 24 24 24 24 27 26 24 24 26 24 22 20 18 17 15 14 12 11 11 10 7 6 4 1 3 7 11 15 18 20 22 25 27 24 25 24 22 21 21
4 6 5 18 25 23 25 26 26 26 26 26 22 22 20 21 18 16 14 13 11 10 10 9 7 6 5 1 2 6 10 14 17 19 22 24 26 28 31 29 26 25 24 23
15 23 17 23 14 24 27 27 26 25 23 22 22 18 17 17 16 14 13 12 11 10 9 7 6 5 2 2 5 9 13 15 18 21 23 25 26 26 27 29 32 33 30 27
12 4 18 19 27 28 28 29 28 27 24 22 18 18 15 15 15 14 13 12 11 10 8 8 6 4 2 4 8 11 14 17 20 22 23 24 24 25 26 27 30 32 34 33
14 18 25 31 32 31 30 28 29 27 23 21 19 17 15 14 13 12 11 9 8 8 8 6 4 1 4 7 10 13 16 18 21 23 23 22 23 26 26 28 29 30 32 34
27 22 29 32 32 31 29 27 25 25 23 19 17 16 15 14 13 12 11 9 8 6 5 3 2 4 6 9 13 15 18 20 21 22 21 22 24 25 26 27 28 30 32 32
16 19 26 30 34 32 28 25 24 22 20 18 16 14 13 12 11 11 9 8 6 5 4 2 3 5 8 12 14 17 18 20 21 21 21 22 24 24 25 25 28 31 33 33
12 20 22 30 32 30 28 26 23 20 19 16 15 14 12 11 10 9 8 7 6 4 2 2 3 7 11 13 15 17 20 20 20 20 21 23 23 24 24 26 28 30 31 31
20 25 30 32 29 27 28 24 22 20 17 15 14 13 12 11 8 7 7 6 4 2 1 4 7 10 12 14 16 18 19 19 20 20 22 23 23 24 25 27 28 30 30 29
29 33 34 32 31 28 24 22 20 19 17 14 12 12 10 9 8 6 4 3 3 2 2 6 9 11 13 15 16 18 19 19 19 20 22 23 24 25 26 27 28 29 29 27
34 35 35 33 32 29 23 20 17 17 15 13 11 9 8 8 7 6 5 3 2 1 5 8 10 12 14 15 17 18 18 18 19 21 22 23 24 25 27 29 30 29 28 28
36 36 34 31 30 28 24 19 16 13 12 10 8 8 7 7 6 5 4 3 1 4 7 9 11 12 14 16 17 17 18 19 20 21 22 23 24 27 28 28 28 28 27 27
36 32 30 27 25 23 22 18 14 12 10 9 8 8 6 6 6 5 3 2 3 6 9 10 12 13 15 16 17 18 18 19 21 22 23 24 25 24 26 27 27 27 26 25
30 28 26 23 21 19 17 15 13 11 10 9 9 8 7 5 3 3 2 3 6 7 9 10 12 14 16 17 17 18 19 20 22 24 24 24 24 25 25 25 25 25 25 24
27 24 21 16 15 15 14 13 11 11 9 10 10 8 5 4 3 2 3 5 7 8 10 12 14 15 16 17 18 19 20 22 23 23 23 23 23 23 23 23 23 23 23 22
22 19 19 18 16 14 12 11 9 11 10 8 7 7 5 3 2 3 5 6 8 10 11 13 15 16 17 18 19 20 21 22 21 22 22 21 21 22 21 22 22 22 21 20

GFSNGP_850_spd_030.txt.gz
Wind_Speed
14 22 16 18 22 24 26 12 12 23 25 9 8 12 14 25 27 29 32 37 40 40 38 36 32 28 26 23 21 18 15 12 9 5 3 5 7 7 9 11 15 18 19 20
7 8 16 14 17 19 16 13 22 15 2 5 4 15 14 24 28 28 32 37 39 39 37 34 32 30 27 23 19 16 14 11 8 5 4 6 7 7 10 14 16 18 20 22
6 1 14 8 18 14 18 20 8 2 2 5 4 7 11 22 29 32 36 41 41 39 36 35 32 29 26 22 18 15 14 11 8 4 5 6 7 9 12 15 18 19 21 23
3 5 3 4 3 6 6 7 6 6 3 4 5 10 15 23 30 32 36 37 38 37 36 32 28 26 23 20 16 15 14 11 6 3 6 6 8 11 14 17 19 21 22 24
2 2 4 4 5 3 4 3 6 7 6 5 17 10 6 14 24 30 32 32 33 33 32 29 27 25 22 19 16 15 13 8 5 5 5 6 10 13 16 18 19 22 23 25
3 2 1 2 2 1 1 2 0 3 8 10 8 5 3 9 20 24 27 28 29 30 29 27 27 24 21 18 16 14 10 7 4 4 5 8 11 15 18 19 21 23 24 26
2 2 6 4 2 3 2 4 3 2 12 14 6 2 18 17 21 24 25 26 28 28 27 28 27 23 19 16 15 12 9 5 4 4 6 9 13 17 18 20 23 25 26 26
2 1 5 4 3 2 3 2 3 0 10 14 22 29 26 25 27 27 29 29 27 28 28 26 22 18 16 16 14 10 6 4 3 4 7 11 14 16 19 22 25 26 27 27
7 5 1 3 1 3 1 2 3 13 19 28 35 33 31 32 31 30 30 29 28 27 26 22 17 14 16 14 11 7 5 4 3 6 9 13 16 18 22 24 25 26 28 29
1 2 2 3 2 2 3 7 12 21 28 32 37 32 32 30 30 29 27 26 24 23 23 22 19 16 12 11 8 6 5 3 4 8 11 14 16 20 23 24 24 25 26 28
4 3 0 4 5 6 10 16 20 21 24 30 34 33 32 30 28 26 25 23 20 20 20 19 17 14 11 9 7 6 4 4 6 10 13 16 18 22 23 22 22 22 23 24
5 7 4 3 14 17 20 22 22 25 28 29 30 32 29 28 26 24 23 21 19 17 16 16 15 12 9 8 6 4 3 5 9 12 16 19 21 22 20 22 22 20 21 20
1 2 5 11 20 20 21 22 24 27 28 29 26 28 26 26 22 21 19 18 16 16 15 14 12 10 9 7 5 3 5 9 12 15 18 21 22 23 26 24 22 22 22 23
9 16 13 19 14 21 24 25 27 27 26 26 26 24 23 23 21 19 18 17 15 15 14 12 10 10 8 5 3 4 8 11 14 17 19 21 22 22 23 25 28 28 25 24
16 4 15 21 26 27 28 30 30 29 27 26 23 22 21 21 20 18 17 16 15 13 12 11 10 8 5 3 4 7 10 13 16 18 19 20 20 21 23 24 27 28 29 28
13 18 24 31 31 31 32 30 32 30 27 25 23 21 19 18 19 18 16 14 13 13 11 10 8 6 4 4 6 10 13 15 17 19 19 20 21 23 24 25 26 27 29 31
25 19 27 31 33 34 32 30 29 29 27 24 23 22 20 20 19 18 17 15 11 10 9 8 6 4 4 6 9 12 14 16 18 18 19 20 22 23 24 25 25 27 28 29
12 15 23 32 37 35 31 28 28 27 25 23 22 20 19 17 17 17 16 13 12 11 9 7 4 3 5 8 11 13 15 17 18 19 20 21 22 23 23 24 26 28 29 30
9 16 23 30 32 31 30 29 27 25 23 21 21 19 17 16 15 15 13 12 10 8 7 5 2 4 7 10 12 14 16 18 19 20 21 22 22 22 23 25 27 28 29 29
17 23 27 30 30 30 31 27 26 24 22 21 20 19 18 16 14 13 12 11 9 6 6 3 3 6 8 10 13 15 17 18 20 21 22 23 23 24 24 25 27 28 28 28
25 28 32 35 34 31 29 27 26 24 22 18 17 17 17 16 13 10 11 9 8 6 3 2 5 7 9 12 14 16 17 19 21 22 23 24 24 24 26 27 28 28 28 28
29 34 34 33 32 31 28 25 23 23 21 19 16 15 14 14 13 13 10 5 6 3 2 4 6 9 11 13 15 17 19 20 22 22 23 23 25 26 27 27 28 28 27 26
35 36 36 35 34 32 27 23 21 19 18 16 15 14 13 13 11 8 8 7 4 1 3 5 8 10 13 15 17 19 20 21 22 22 23 24 25 25 26 26 26 26 26 26
36 35 35 34 32 30 28 24 21 19 17 16 15 12 10 11 11 8 6 4 2 2 4 7 9 12 14 16 18 19 20 21 22 23 24 24 23 23 23 25 25 25 25 24
35 35 33 31 29 26 25 23 21 19 17 17 15 14 12 9 5 6 4 2 1 3 6 8 11 13 16 18 18 19 21 22 23 24 24 23 22 23 23 24 24 24 25 24
34 32 29 25 24 24 23 21 19 19 16 16 15 12 9 7 6 4 2 1 3 5 8 10 13 15 17 18 19 20 21 22 23 22 22 21 21 22 22 22 22 22 22 21
30 27 26 25 22 21 19 18 17 17 15 12 11 11 8 6 4 2 0 2 5 7 10 13 15 16 17 18 19 20 22 22 22 22 21 20 20 21 21 21 20 21 22 22

GFSNGP_850_spd_033.txt.gz
Wind_Speed
18 20 16 4 12 20 23 22 14 10 21 25 19 10 6 12 23 28 31 37 40 40 39 38 36 33 30 27 25 22 19 16 13 10 7 5 5 7 9 11 13 16 17 19
17 20 23 10 14 22 21 24 16 13 21 19 19 27 14 19 24 26 29 35 38 39 39 38 35 33 30 27 24 20 17 15 13 10 7 5 6 8 9 11 14 16 19 21
6 6 7 6 16 24 19 20 21 13 20 23 18 8 15 22 27 31 34 38 39 38 38 37 36 33 29 26 22 19 16 15 13 10 6 6 7 8 10 12 15 18 20 23
4 2 3 4 18 19 20 14 13 13 19 22 17 6 13 20 26 28 33 36 36 36 36 35 33 30 26 24 21 18 17 15 12 8 6 7 7 8 11 14 17 19 22 24
4 3 2 4 9 9 11 12 22 24 20 9 16 9 3 12 21 27 31 33 33 32 32 32 31 28 26 23 20 18 16 14 11 8 7 7 8 10 13 16 18 21 23 25
3 3 2 2 3 10 12 3 13 19 13 8 6 4 3 13 17 21 23 26 29 29 29 29 29 27 25 23 19 17 15 13 9 7 6 7 9 12 15 18 20 23 24 24
2 3 6 4 5 2 3 4 2 4 10 10 5 2 15 18 21 21 22 24 25 27 29 29 28 27 24 20 17 16 15 11 8 7 6 7 10 15 17 19 22 24 25 24
2 2 4 6 5 3 1 2 2 6 9 13 15 20 22 22 24 24 26 26 27 30 29 28 26 25 21 18 17 15 12 9 7 5 6 9 12 15 18 22 24 24 25 26
6 4 3 4 2 3 3 2 2 6 13 23 25 24 25 27 27 27 28 29 28 28 28 27 24 19 18 18 16 13 10 7 5 5 8 11 14 17 20 22 24 25 27 28
1 1 2 3 2 5 5 7 8 15 23 25 30 28 29 29 29 29 28 28 28 29 29 27 21 16 15 16 14 10 7 6 5 6 9 13 16 19 21 23 24 25 27 28
4 5 5 6 3 3 8 11 15 19 23 30 33 32 33 33 32 31 30 29 27 26 25 24 22 19 15 12 9 8 6 4 5 8 12 14 17 20 21 21 22 24 24 25
4 4 2 1 10 10 13 15 16 22 27 27 29 33 32 32 29 28 27 25 24 23 22 22 19 16 13 10 8 7 5 5 7 10 13 17 19 20 20 21 23 22 23 22
3 4 2 9 14 13 16 16 17 23 25 28 28 29 28 29 26 25 24 23 22 21 19 19 16 13 10 9 7 5 5 6 9 12 15 18 20 22 25 24 24 24 24 23
7 9 9 14 9 16 19 20 22 25 25 26 27 26 27 28 26 23 22 20 19 18 17 14 13 11 10 8 6 4 5 8 11 15 17 19 21 22 24 27 28 28 25 25
13 4 5 15 22 22 22 26 28 27 27 27 25 25 24 25 24 22 20 18 17 16 15 13 11 10 8 6 4 5 7 10 13 16 18 20 21 22 24 25 27 28 30 28
9 11 18 26 27 27 29 30 31 30 27 26 25 23 21 21 21 20 18 16 15 16 13 11 10 8 6 3 4 7 10 12 15 18 19 20 22 24 25 26 27 28 29 30
19 16 22 27 29 31 31 30 30 31 28 26 25 23 22 21 21 20 18 15 12 11 11 9 8 6 4 4 6 9 11 14 17 18 19 21 23 24 25 27 28 29 29 29
8 13 22 29 35 34 32 30 30 29 27 25 24 22 21 19 20 20 18 15 14 12 10 8 6 4 3 6 8 11 14 16 18 19 21 22 23 24 25 26 27 29 31 30
8 12 21 27 32 32 31 30 28 26 25 23 23 21 19 17 17 17 15 13 11 9 9 7 4 3 5 8 10 13 15 17 18 20 21 23 24 24 25 26 28 29 30 30
12 17 20 29 30 30 31 29 28 27 25 23 22 22 20 18 16 16 14 13 11 8 7 5 3 5 7 9 12 14 15 17 19 21 22 23 24 25 25 27 28 29 29 28
19 22 28 32 31 30 29 28 27 26 24 20 19 20 19 18 15 12 12 10 9 8 5 3 4 6 9 11 13 15 17 19 21 22 23 23 24 25 26 27 28 28 28 28
24 29 33 33 33 32 28 26 24 25 23 20 18 18 17 17 15 14 11 6 7 5 3 4 5 8 10 12 14 16 18 20 21 22 22 23 25 26 26 27 27 27 27 27
28 30 32 32 31 31 28 25 22 21 20 18 17 16 14 14 11 8 8 8 5 3 3 5 7 10 11 14 16 18 20 20 21 22 23 24 24 25 25 25 25 26 27 27
32 34 34 32 31 31 29 25 22 20 19 18 16 13 11 12 12 9 6 5 3 2 4 6 9 11 13 16 18 19 20 21 22 22 23 23 23 23 23 24 25 25 25 24
33 35 33 34 32 30 28 26 24 22 20 18 17 15 12 10 5 7 5 3 2 4 6 8 10 12 15 17 19 20 21 21 22 24 24 23 22 21 22 23 24 24 24 24
33 33 33 30 29 28 26 24 22 21 19 18 17 13 10 7 7 5 3 2 3 5 7 9 12 15 17 18 20 21 21 22 24 23 23 22 20 20 23 23 22 19 21 22
32 31 30 27 24 23 22 20 20 20 17 14 13 13 10 8 5 3 2 3 4 6 9 11 14 17 18 19 20 21 22 23 24 24 23 20 19 20 22 22 19 17 20 21

GFSNGP_850_spd_036.txt.gz
Wind_Speed
21 26 27 24 12 18 19 26 10 17 18 12 9 10 2 6 14 17 21 27 33 40 41 38 37 36 34 31 29 27 25 21 18 15 12 8 5 5 7 9 11 13 16 18
19 20 19 19 16 17 22 20 22 19 18 12 13 6 6 10 19 19 22 27 34 38 39 38 37 36 33 30 28 25 22 19 17 13 10 7 5 6 7 10 12 15 17 19
11 10 11 5 8 15 14 14 18 15 19 15 15 16 8 9 21 22 25 33 37 38 38 37 36 34 31 28 25 22 20 18 15 12 9 6 5 6 8 10 13 16 18 20
6 7 5 4 5 13 17 12 16 12 14 11 11 18 19 17 26 24 28 33 36 36 37 35 33 30 27 25 24 22 19 16 13 11 8 6 6 6 9 12 15 17 20 23
4 4 6 5 2 4 5 6 16 17 17 16 12 8 4 13 22 27 32 34 34 35 33 32 30 28 26 25 23 21 18 15 12 10 8 6 5 7 10 13 16 19 22 24
4 4 3 3 4 7 3 5 9 15 15 10 3 2 1 12 18 23 27 30 31 30 29 29 29 28 27 25 23 19 16 14 12 9 5 4 6 9 12 15 19 21 23 24
2 3 6 2 3 13 3 3 2 16 18 5 1 2 2 15 21 21 22 25 27 28 28 29 29 28 26 23 20 18 16 14 10 6 4 5 7 11 14 17 20 22 24 24
3 3 3 3 2 2 1 3 3 7 16 21 21 8 8 15 21 23 25 26 27 29 29 29 28 27 25 23 20 17 15 11 7 5 4 6 9 13 16 19 22 24 25 25
6 5 3 3 3 5 8 7 3 7 12 23 22 22 24 25 25 26 26 27 26 28 30 29 27 25 23 21 18 16 12 8 5 4 4 8 11 15 18 21 24 25 26 28
3 2 4 3 1 5 3 2 4 6 18 23 27 24 25 25 26 26 26 27 28 30 31 30 26 22 17 17 16 12 9 6 5 4 6 10 14 18 20 22 24 25 27 28
5 7 8 9 3 1 6 8 11 14 17 22 26 27 28 28 28 28 28 29 30 31 31 30 25 20 16 15 12 9 7 5 3 5 9 12 16 19 21 21 22 24 24 25
5 5 3 1 6 8 10 12 12 17 22 22 26 31 30 30 29 29 30 30 30 29 27 25 21 19 16 12 9 7 5 3 4 8 11 15 18 18 19 20 21 22 23 24
2 4 5 10 12 11 15 15 17 21 23 28 28 30 31 32 30 30 29 28 25 24 22 22 19 16 13 10 7 5 2 3 7 11 14 17 18 20 23 21 22 23 24 24
7 11 8 12 8 13 17 21 22 23 24 26 29 28 29 30 28 26 25 23 22 21 20 18 15 12 10 8 5 2 3 7 10 13 15 17 19 20 22 25 27 28 24 25
13 6 4 14 17 19 20 25 26 26 27 27 25 27 26 29 27 25 23 21 20 18 17 14 11 10 8 5 2 3 6 9 11 14 16 18 19 20 22 24 26 27 28 27
10 10 15 20 24 23 26 25 30 29 27 27 26 25 24 24 24 23 20 18 16 17 14 11 9 7 5 3 3 5 8 11 13 16 17 18 20 22 24 25 26 27 28 30
20 13 18 24 26 26 27 28 29 30 28 27 26 25 24 23 23 22 20 17 13 13 11 9 7 6 3 3 5 7 10 12 15 16 17 19 22 23 24 24 26 27 28 28
4 6 18 25 31 31 29 28 28 28 28 26 25 24 22 21 22 21 19 17 15 13 11 8 6 3 2 4 7 9 12 14 16 17 19 21 23 23 23 25 26 28 28 28
4 9 17 23 28 29 29 30 28 27 26 25 24 23 21 19 19 19 16 14 11 10 10 7 4 2 4 6 8 11 13 15 16 19 21 22 22 23 24 26 27 27 28 28
8 13 17 24 26 28 30 28 27 26 25 24 23 23 22 20 18 17 15 14 12 8 7 5 2 3 5 8 10 12 14 16 19 20 21 22 23 24 24 24 25 26 27 28
12 17 22 28 30 29 28 27 27 26 24 22 21 21 21 20 16 14 13 11 10 8 5 2 2 4 6 9 11 13 16 18 20 21 22 23 23 24 24 24 25 26 27 27
18 22 28 30 31 30 27 26 25 25 23 21 20 20 20 19 17 15 11 5 8 6 3 2 4 6 9 11 13 16 18 19 20 21 21 22 24 24 24 24 25 25 26 26
23 27 30 31 32 32 30 27 25 23 23 21 20 18 16 15 13 10 9 9 7 4 1 3 6 8 10 13 15 17 19 20 20 20 22 23 23 23 23 23 24 25 25 24
27 30 31 31 31 32 32 28 25 22 21 21 18 15 13 14 13 10 7 8 4 1 2 4 7 10 12 15 17 18 19 19 20 21 22 22 22 22 21 22 24 24 23 22
29 33 35 35 34 32 31 29 27 25 23 21 19 17 14 12 6 9 7 4 2 1 4 6 8 11 14 16 18 18 19 20 21 23 23 22 22 21 20 21 23 23 21 21
34 36 36 31 31 31 30 28 26 25 22 21 19 16 13 9 9 7 5 3 0 3 5 8 11 13 15 17 18 19 20 21 22 22 23 23 21 20 20 21 23 20 17 19
35 33 31 32 29 28 26 24 23 23 19 17 17 15 12 10 8 5 3 0 3 5 7 10 12 15 17 18 19 20 21 22 23 24 24 22 20 19 20 21 22 18 16 19

GFSNGP_850_spd_039.txt.gz
Wind_Speed
20 24 25 26 27 22 20 26 10 16 18 16 11 5 10 17 13 9 11 15 21 29 35 39 40 40 38 37 35 34 31 28 25 22 17 13 10 6 3 3 6 8 10 13
18 22 21 21 18 16 16 21 19 21 24 17 9 7 3 11 10 10 14 18 23 30 37 39 40 39 38 36 34 31 28 26 23 19 15 12 8 4 2 4 7 9 12 14
7 13 23 4 5 7 4 7 15 14 15 11 8 7 8 13 13 14 18 22 26 34 37 37 38 38 37 35 32 29 26 24 20 16 13 9 6 2 3 5 8 11 13 16
7 13 4 2 2 6 10 9 15 11 10 8 6 12 21 22 10 18 22 25 29 35 36 36 36 36 34 32 30 28 25 22 18 14 11 7 3 1 4 7 10 12 15 18
3 4 8 3 4 2 2 6 16 14 13 9 7 16 8 5 9 17 19 24 30 33 34 34 34 33 31 31 29 26 22 19 15 12 8 5 1 3 5 8 11 14 18 20
2 4 4 3 6 1 3 4 4 9 9 2 2 3 3 5 9 16 19 24 30 32 32 32 32 32 31 30 27 23 20 17 13 10 6 2 2 4 7 10 14 17 19 20
8 3 7 4 7 2 4 5 4 10 8 3 1 3 3 7 13 16 19 24 29 31 31 31 32 31 29 27 24 21 18 14 11 8 3 3 3 6 9 13 16 18 19 20
3 3 6 3 2 2 2 7 11 10 8 10 7 8 9 12 16 17 21 26 27 30 31 32 31 30 28 25 22 18 15 12 9 5 3 2 5 8 12 15 17 19 20 20
6 5 5 7 6 9 10 11 9 10 9 9 15 11 14 15 15 19 22 26 28 30 33 32 30 27 26 23 20 16 13 10 6 4 2 3 7 10 14 16 18 20 22 24
2 3 6 11 8 6 7 7 7 5 6 10 13 16 18 20 21 22 25 28 30 32 33 32 28 24 19 20 17 13 12 8 5 3 2 6 10 13 15 18 19 21 24 26
5 7 8 10 9 4 4 5 7 7 8 13 16 20 23 24 23 25 27 28 29 32 32 30 26 23 19 16 14 12 9 6 4 2 5 8 11 14 16 18 20 22 23 25
4 3 0 2 3 4 5 8 10 11 15 15 18 24 24 26 26 27 28 29 31 32 31 30 25 21 18 15 11 8 6 5 2 3 7 10 13 15 16 17 19 20 22 23
2 3 1 6 8 6 10 13 14 16 18 23 23 26 27 29 28 29 30 31 31 30 28 26 22 19 17 13 9 7 5 2 2 6 10 13 15 17 19 18 20 22 22 22
12 6 4 9 5 9 13 18 18 20 22 24 28 29 31 32 31 31 32 30 28 26 25 22 20 17 14 10 8 6 2 2 6 9 12 14 16 17 20 23 26 25 22 23
12 14 4 10 18 14 17 21 25 25 26 28 28 31 32 34 33 31 29 27 25 24 22 18 15 14 13 9 6 2 2 5 8 11 13 15 16 18 20 22 23 25 26 25
13 8 13 21 22 24 24 25 29 29 28 29 29 29 30 30 30 29 26 23 22 22 19 16 14 13 10 6 2 2 5 8 10 12 13 15 17 19 21 22 23 25 26 27
17 13 17 22 26 25 26 27 27 29 30 30 30 30 30 30 29 28 25 21 19 19 16 12 11 9 6 2 2 5 7 9 11 12 14 17 19 20 21 22 23 24 25 25
5 6 15 23 31 33 28 29 31 31 31 30 30 29 28 27 28 27 24 22 19 17 14 11 8 5 2 1 4 6 8 10 12 14 16 18 19 20 21 22 23 24 25 24
4 7 16 22 26 28 30 33 32 31 30 30 29 27 25 24 24 23 21 17 15 13 13 9 6 3 1 3 6 8 9 11 14 15 17 18 19 19 21 22 22 23 24 25
9 14 17 24 26 28 32 30 30 30 28 27 26 26 26 24 22 21 19 17 14 9 9 7 3 1 3 5 7 9 11 13 15 17 18 19 19 20 20 20 21 22 23 24
14 18 23 27 29 29 30 31 31 31 30 25 25 26 25 24 20 18 17 14 13 11 7 4 1 2 4 6 8 10 12 15 16 18 18 19 20 20 20 20 20 21 23 24
18 22 27 29 31 32 30 30 29 28 27 25 24 24 24 23 21 18 13 7 12 9 5 2 0 2 5 7 9 12 15 16 17 18 18 19 20 21 21 21 20 21 22 23
20 24 29 31 33 33 32 30 29 27 26 23 23 23 20 20 16 13 13 13 9 6 3 1 2 4 7 9 12 15 16 17 18 18 19 20 20 21 21 20 20 22 23 21
23 28 31 33 33 34 34 31 28 25 24 23 21 19 17 19 17 13 11 11 7 4 2 1 4 6 9 12 15 16 17 17 17 18 19 20 20 20 19 19 19 22 22 18
25 29 32 35 36 35 34 31 29 29 27 25 22 20 16 14 6 13 11 8 6 3 0 3 5 9 12 14 16 17 17 18 19 20 20 21 20 19 18 18 19 22 21 17
28 33 35 35 34 35 33 31 31 30 27 26 23 20 16 12 13 11 9 6 3 1 2 4 8 11 13 15 16 17 18 19 20 19 21 21 20 19 18 18 20 20 18 15
30 33 34 35 31 30 30 29 29 29 25 22 22 20 15 15 12 10 7 4 2 1 4 7 10 12 14 16 17 18 19 20 20 21 21 20 20 19 19 19 19 19 15 14

GFSNGP_850_spd_042.txt.gz
Wind_Speed
18 22 22 23 25 26 19 23 16 29 20 18 14 14 16 18 12 9 7 3 7 11 17 22 31 36 37 39 38 38 38 37 35 32 27 23 19 14 10 6 2 2 4 6
13 20 20 21 21 20 17 12 16 22 24 23 19 17 17 11 9 8 7 8 11 15 19 25 35 40 40 40 39 38 37 35 31 28 24 20 15 11 8 4 1 3 5 9
8 13 23 5 4 10 8 7 7 9 13 13 11 8 6 10 13 16 11 14 16 18 22 32 37 40 41 40 38 36 34 31 28 24 21 17 13 9 5 2 1 4 8 11
7 14 3 5 4 8 8 11 13 14 14 12 11 13 13 12 9 8 14 16 18 23 30 33 37 39 39 38 37 35 31 28 25 21 17 14 10 7 3 1 3 6 9 13
4 7 15 1 2 6 3 5 9 14 12 11 14 10 8 13 7 11 15 18 21 27 31 35 38 39 39 37 34 31 28 25 21 17 14 11 8 5 1 2 5 9 12 15
3 5 4 4 4 2 3 4 11 7 7 7 8 5 3 9 9 14 17 21 25 27 29 32 34 35 35 34 31 27 25 22 18 15 11 9 5 3 1 4 7 11 14 16
10 5 9 6 5 4 4 5 6 11 5 4 6 4 5 9 12 14 20 24 27 29 30 32 34 33 32 31 28 25 22 19 16 13 9 6 4 1 3 7 10 13 15 17
4 5 7 1 3 5 3 7 9 3 6 5 9 10 11 14 15 17 24 27 28 30 30 31 31 31 30 28 24 21 19 16 14 12 8 4 2 3 6 9 12 15 16 17
7 5 3 3 6 6 6 8 8 7 4 5 10 11 14 16 17 18 22 27 28 30 31 31 30 27 27 25 23 20 18 16 12 8 5 3 2 5 9 12 14 15 17 18
3 3 8 4 4 6 7 4 5 6 9 11 14 15 20 20 19 21 23 25 28 30 31 30 28 24 21 23 21 19 17 13 10 7 4 1 4 8 11 13 14 16 16 17
6 12 12 3 3 3 3 3 5 5 7 13 19 20 21 22 23 23 25 26 28 31 31 30 27 24 22 21 19 17 13 10 7 5 1 4 7 10 12 13 14 16 17 20
3 3 3 3 1 2 1 4 7 10 13 13 17 22 24 24 25 25 27 27 29 30 30 30 28 25 22 19 15 11 10 8 5 1 3 6 9 11 12 12 15 17 20 20
2 3 1 4 3 5 7 9 10 12 15 20 20 23 24 27 26 27 27 28 30 32 31 30 27 24 21 17 13 10 7 5 2 2 5 7 9 11 13 17 20 20 19 20
11 6 1 6 3 8 10 13 15 16 18 20 22 23 26 29 29 29 31 31 31 31 29 27 23 21 17 13 11 8 5 2 2 4 6 9 11 13 17 19 22 22 21 22
10 10 4 9 13 15 10 16 20 21 22 22 22 26 28 32 33 33 32 32 30 28 25 22 19 18 15 12 8 5 2 1 3 6 8 10 13 16 18 19 20 21 22 21
8 9 9 16 17 17 15 17 21 24 25 26 27 29 31 33 34 33 31 27 26 25 23 19 16 15 12 9 6 3 0 3 6 7 9 12 15 17 18 19 20 20 20 21
14 11 14 19 20 21 20 17 20 27 28 29 30 32 32 32 32 31 28 25 22 21 18 15 14 13 10 7 3 1 3 5 7 9 12 14 16 17 18 18 19 20 21 22
9 9 11 17 26 24 23 23 26 28 30 31 32 31 31 31 31 29 26 24 22 20 17 14 12 10 7 4 1 3 4 6 8 11 14 15 16 17 17 19 20 21 22 22
8 11 14 20 25 28 29 29 28 29 30 30 31 31 29 28 27 26 24 21 19 18 17 13 10 6 3 1 2 4 6 8 11 13 15 16 16 17 18 19 20 21 22 22
9 11 16 21 24 27 30 30 31 31 31 31 29 29 29 27 25 24 23 20 17 14 13 10 7 4 1 1 3 6 8 10 12 14 15 16 16 18 19 19 20 20 20 21
11 15 19 25 29 28 30 33 33 32 31 28 29 29 28 27 24 22 21 19 17 14 11 7 5 2 1 3 5 8 10 12 14 15 16 16 18 19 19 20 20 19 20 21
14 18 23 27 29 32 33 33 33 33 33 31 28 27 28 27 24 21 16 12 15 12 8 6 3 1 3 5 7 10 12 14 15 15 16 18 19 19 20 20 19 19 20 22
15 20 25 29 32 35 34 33 33 30 29 29 28 28 26 25 22 19 17 16 12 10 7 4 1 2 4 7 9 12 14 15 15 16 17 18 19 20 20 19 18 19 20 21
16 21 26 29 32 34 35 33 31 30 29 27 24 23 22 23 21 16 13 14 11 8 5 2 1 3 6 9 11 13 15 15 16 17 18 19 19 20 19 18 18 18 19 19
19 23 26 31 34 35 34 34 32 30 29 28 26 23 20 17 12 16 15 12 9 6 3 2 2 5 8 11 13 14 15 16 17 19 19 20 20 19 18 18 17 18 19 18
21 26 30 33 34 36 36 35 34 33 32 31 28 24 21 16 15 15 13 10 7 5 3 2 4 7 10 12 14 15 16 17 18 19 19 20 19 19 18 18 18 18 18 16
24 28 31 33 34 33 33 31 32 33 30 28 27 23 18 18 16 13 11 8 6 3 1 4 7 9 12 14 15 16 17 18 19 20 20 19 19 18 18 18 18 18 16 13

GFSNGP_850_spd_045.txt.gz
Wind_Speed
16 20 20 19 20 19 18 20 15 30 26 28 22 21 17 20 20 18 9 8 6 8 13 18 21 23 24 25 29 35 36 37 38 36 32 30 27 22 18 14 9 5 2 3
12 19 18 16 18 20 19 18 15 16 21 21 18 13 13 17 14 10 16 13 8 12 18 20 23 26 28 31 38 38 39 38 36 33 30 27 23 19 14 10 6 2 2 4
5 9 17 6 6 6 9 12 7 9 10 11 10 7 10 13 16 20 25 15 15 17 19 22 27 30 35 39 39 39 39 36 32 30 27 23 19 15 11 7 3 1 3 7
6 11 3 8 4 4 8 10 9 14 14 12 13 11 8 13 15 7 16 17 17 19 22 24 29 33 38 39 38 37 35 32 28 26 23 20 16 12 9 4 1 2 6 9
3 6 14 8 2 5 2 3 8 11 9 10 8 8 3 15 12 12 14 16 18 20 24 28 33 35 39 40 38 34 32 28 25 23 20 17 13 10 5 1 2 4 8 11
3 4 3 2 4 3 3 2 10 9 11 11 12 1 3 11 12 16 16 19 21 22 25 29 34 36 38 36 31 27 26 25 23 19 16 14 10 3 3 1 3 7 11 13
8 5 8 9 3 4 4 5 8 6 12 12 6 5 6 11 15 16 18 22 23 24 27 31 31 30 30 29 27 26 25 23 19 16 13 8 4 5 1 3 6 10 12 13
4 5 8 1 2 5 4 4 3 7 5 6 7 9 11 12 15 18 23 23 22 25 26 23 23 27 28 27 25 23 20 18 16 13 8 7 4 1 2 6 9 11 12 13
7 6 7 2 8 11 7 8 5 5 3 5 8 9 12 14 14 20 24 24 26 28 27 26 25 21 23 23 22 20 17 15 14 11 8 4 1 2 6 8 10 11 13 14
3 5 9 9 10 3 5 5 4 6 8 11 10 11 13 15 19 20 18 20 21 24 24 25 22 21 20 23 20 18 18 15 11 7 5 2 1 5 7 9 10 12 14 16
11 16 11 6 5 3 2 3 4 1 7 12 15 17 17 21 19 21 22 23 23 23 25 26 24 22 21 21 19 17 14 10 8 5 2 1 4 6 8 11 12 14 16 18
5 6 5 5 4 5 3 4 5 7 12 13 14 17 16 15 18 22 25 25 25 24 28 28 25 23 22 19 15 12 10 8 6 4 2 3 6 9 11 11 14 16 16 17
8 2 2 1 4 5 6 7 7 10 12 17 16 17 18 20 20 24 25 24 25 29 28 28 26 24 20 16 13 10 8 7 5 2 2 5 8 9 11 15 18 19 20 20
6 4 2 3 2 5 7 9 12 14 15 16 18 19 20 23 24 25 26 27 28 30 29 27 24 20 17 14 11 9 7 4 1 2 5 7 9 11 13 15 16 15 15 18
8 8 5 6 8 10 9 9 12 14 18 18 19 21 24 27 28 28 30 31 30 29 27 24 20 18 15 12 10 7 4 1 2 5 6 8 10 13 14 16 17 17 19 18
7 7 8 10 14 14 13 13 15 15 19 21 23 24 27 30 32 31 31 28 27 26 23 20 18 16 13 10 7 3 0 2 5 6 8 10 13 14 16 17 17 18 19 19
7 7 12 15 18 18 17 14 16 19 22 23 26 29 31 32 32 31 29 25 23 22 20 17 15 14 11 7 3 1 2 4 6 8 10 13 15 15 16 17 18 19 19 19
10 8 14 16 20 20 19 16 17 21 23 26 29 30 31 31 31 29 26 24 22 21 18 15 13 10 7 4 1 2 4 5 7 10 12 14 16 16 17 17 18 18 19 20
9 9 12 13 18 20 21 20 22 24 26 28 30 30 28 27 27 26 24 22 19 18 17 13 10 8 5 1 1 3 5 7 10 12 14 16 16 16 17 18 18 19 20 20
8 6 12 14 20 22 24 23 24 26 28 30 30 28 28 27 25 25 23 20 17 14 14 12 9 5 2 0 3 5 7 9 12 14 15 16 16 18 18 19 20 21 20 20
7 7 11 17 21 22 24 26 28 29 28 27 27 27 26 26 24 22 20 18 16 15 12 9 6 3 0 2 4 6 9 12 14 15 16 17 18 19 19 20 21 21 20 20
6 9 13 18 21 23 24 26 27 27 28 27 25 24 25 26 24 22 17 13 16 14 10 7 4 2 2 4 6 9 11 14 15 16 17 19 20 20 21 21 21 20 19 20
8 10 13 18 22 25 26 27 28 29 28 27 26 25 25 24 22 20 18 16 14 11 9 6 3 2 3 5 8 11 13 15 16 17 19 20 20 21 21 21 20 20 19 20
9 12 16 20 23 26 29 29 30 29 27 26 25 23 23 24 22 17 12 15 13 10 7 4 3 2 5 7 10 13 15 15 16 18 20 20 21 21 21 21 19 19 19 18
11 14 17 21 25 30 30 31 30 29 27 26 25 24 22 20 15 16 16 15 12 8 6 4 2 4 7 9 12 14 14 16 18 19 19 20 20 20 19 19 18 18 18 18
10 14 18 23 27 29 31 33 33 30 29 28 27 24 22 19 14 16 16 12 10 8 5 3 3 6 9 11 13 14 15 17 18 19 20 20 19 18 17 18 18 18 18 16
13 16 21 23 25 29 32 33 32 32 30 30 30 27 22 18 17 16 13 11 9 6 3 3 5 8 11 13 13 14 16 17 18 19 19 18 17 17 17 18 18 18 16 13

GFSNGP_850_spd_048.txt.gz
Wind_Speed
10 13 9 10 10 13 15 20 12 23 23 26 23 22 18 14 19 15 28 9 6 3 8 11 15 25 29 32 31 31 29 32 35 36 37 36 33 29 25 23 18 12 7 4
5 12 12 12 16 16 19 19 16 19 24 16 25 11 12 12 14 15 17 3 4 5 12 18 24 28 29 29 28 29 34 38 39 39 37 33 29 26 23 18 14 8 4 2
3 7 9 8 9 9 4 7 8 9 17 14 16 13 8 11 15 19 21 15 9 15 22 23 26 27 27 29 32 35 39 40 40 37 34 31 27 23 19 14 10 5 1 2
4 8 4 2 6 6 7 8 8 13 14 11 8 6 16 17 14 8 3 13 16 21 22 20 22 24 29 33 35 38 39 38 35 33 30 27 24 20 16 11 6 3 1 5
2 5 9 3 4 1 1 3 4 8 12 13 4 5 11 19 11 10 14 16 16 16 16 19 24 27 33 34 38 37 36 34 31 27 26 23 19 15 11 6 3 0 3 7
3 3 3 2 4 4 7 2 4 0 8 11 11 4 3 13 8 10 11 13 16 17 22 25 28 31 33 33 34 34 32 30 26 23 19 17 15 10 6 3 1 2 5 9
4 3 6 7 7 8 1 4 4 2 7 11 4 5 8 11 12 10 14 17 19 22 27 30 32 29 31 30 28 27 26 22 20 19 19 14 7 5 4 2 2 5 8 10
3 3 7 1 4 0 2 3 7 3 2 7 8 10 13 18 19 23 24 21 20 25 27 29 31 31 28 27 25 23 24 25 24 18 9 7 7 6 3 2 5 7 9 11
6 6 8 5 8 4 5 5 6 3 3 7 9 11 11 19 20 21 26 25 24 28 30 26 24 24 27 27 26 27 23 17 14 12 11 9 6 3 2 5 7 9 11 13
4 5 9 5 8 6 6 5 7 6 7 10 12 13 13 18 19 21 23 26 28 30 29 28 24 25 28 28 24 21 19 16 13 10 8 6 4 3 6 8 9 11 13 16
6 9 4 7 7 4 5 4 4 1 10 11 13 15 15 18 18 18 21 21 21 25 28 27 25 27 26 22 18 16 15 12 10 7 6 4 4 6 8 9 11 13 15 17
3 4 1 2 3 3 2 1 2 5 10 11 13 15 18 19 20 22 23 20 20 24 26 27 26 24 21 17 13 10 10 9 7 5 4 4 6 7 9 11 13 15 16 17
0 1 2 2 1 1 2 4 5 9 12 13 13 16 18 20 21 23 21 19 22 27 27 27 23 20 18 14 11 9 6 5 3 2 3 5 7 8 10 12 14 15 18 19
8 5 3 5 3 4 5 8 10 12 13 15 17 17 20 23 22 21 22 22 27 28 26 24 22 19 14 11 8 6 5 3 1 3 5 6 8 10 12 14 16 16 15 15
9 8 7 7 8 8 8 9 12 14 15 17 17 19 21 24 23 24 25 28 28 27 25 22 18 16 13 10 7 5 3 1 2 4 5 7 9 12 14 15 16 17 18 17
4 7 7 10 11 12 13 13 14 17 17 19 21 22 23 24 26 28 29 29 29 28 24 19 16 14 11 8 5 3 1 2 4 5 7 9 12 14 15 16 16 17 18 19
5 4 9 12 14 16 15 15 16 20 20 21 22 24 26 28 30 30 29 27 24 23 20 16 14 12 9 6 3 1 1 2 4 6 9 12 14 15 16 16 17 18 18 19
7 8 8 10 18 19 17 17 17 19 21 22 24 27 30 31 32 30 28 26 23 21 17 14 12 10 7 4 1 1 2 4 6 9 11 14 15 15 16 17 18 19 19 19
7 4 4 8 15 17 18 18 17 18 22 25 28 30 30 29 29 28 25 23 21 19 18 14 11 8 5 3 0 1 4 6 9 11 14 15 15 15 17 18 18 19 20 20
3 2 8 7 12 17 19 18 19 22 25 29 29 28 28 27 26 25 23 21 17 14 16 13 10 6 4 2 1 3 6 8 11 13 14 15 16 17 18 18 19 19 19 19
3 4 9 12 15 18 20 20 23 27 28 27 27 27 27 27 25 23 22 21 18 15 13 10 8 5 3 0 2 5 8 11 12 14 15 16 17 18 18 19 19 19 19 18
2 6 11 14 18 20 21 23 24 26 27 27 25 26 26 25 24 21 16 12 17 15 12 9 6 4 1 2 5 7 10 12 13 14 16 17 17 18 18 19 19 19 18 18
3 5 9 14 17 20 22 23 25 26 28 28 27 27 26 24 22 21 20 17 15 14 11 8 5 2 1 4 6 9 11 12 13 15 16 17 17 18 19 19 19 18 17 16
4 5 9 12 17 21 24 25 27 28 28 27 26 24 23 24 22 18 13 16 15 12 9 7 4 1 2 5 8 10 12 13 14 16 17 17 18 18 18 18 17 16 15 15
5 7 10 13 17 21 25 27 29 30 29 27 26 24 22 20 16 18 15 17 14 10 8 6 3 2 4 7 9 11 12 14 15 17 17 17 17 17 17 16 16 16 16 15
5 7 9 13 18 21 24 28 31 32 31 29 25 23 22 20 17 16 17 15 12 10 8 5 2 3 6 8 10 11 13 14 16 16 17 17 17 16 16 16 16 15 15 13
6 8 10 14 15 19 25 29 32 32 30 27 26 25 23 21 17 16 17 15 12 9 6 4 3 4 7 9 10 12 14 16 16 17 16 16 15 15 16 16 16 15 13 11

GFSNGP_850_spd_051.txt.gz
Wind_Speed
5 7 5 7 7 8 9 16 8 21 16 22 21 23 25 29 22 20 20 19 15 16 5 6 8 13 17 26 29 32 33 29 28 30 29 30 34 35 33 29 26 21 17 12
5 9 10 10 12 13 17 20 16 23 26 22 22 25 18 12 15 17 18 14 9 4 5 7 10 14 21 26 30 30 29 27 28 29 32 35 37 34 31 27 22 17 13 9
4 4 3 5 10 16 7 7 10 11 13 13 15 8 9 14 17 15 17 12 12 7 9 14 17 20 21 24 24 23 25 27 30 33 38 37 33 29 27 23 18 15 9 7
3 4 1 4 3 6 9 5 6 9 10 11 14 3 10 14 11 12 12 13 17 16 17 18 19 19 19 19 21 24 27 32 36 37 34 30 29 26 22 18 12 10 7 3
2 3 6 1 2 3 5 4 4 6 9 11 15 7 8 12 11 9 9 11 14 15 16 17 17 19 19 24 27 29 28 27 26 27 30 29 25 21 18 15 12 7 3 3
2 1 3 1 2 2 4 2 6 7 5 8 11 2 2 9 6 7 8 9 12 14 15 17 21 20 24 26 25 25 23 27 27 26 25 24 20 16 11 10 6 3 2 4
6 3 6 8 5 5 2 4 5 6 2 3 2 2 4 5 8 8 9 12 14 14 17 19 18 16 20 17 22 26 28 28 26 23 19 16 15 13 9 6 4 1 3 5
5 3 7 4 4 3 6 4 4 4 4 9 12 10 12 16 13 12 12 12 13 19 22 20 22 20 27 29 29 29 27 24 21 19 17 15 11 10 7 3 1 3 4 6
7 6 7 6 9 5 4 4 3 3 5 10 14 15 13 14 19 19 15 15 17 19 21 19 24 25 29 29 25 24 23 24 19 15 13 11 8 6 3 2 3 4 5 8
2 5 10 21 8 4 6 4 5 5 7 13 15 16 18 17 19 19 21 24 24 24 24 24 22 24 21 25 25 24 20 18 15 13 11 9 5 3 1 2 3 6 8 11
5 8 2 3 2 5 6 5 4 2 8 12 16 16 21 23 21 20 20 21 23 25 25 25 24 26 25 23 19 17 17 16 13 10 8 6 3 2 2 4 6 9 11 13
4 4 2 2 5 5 5 3 2 4 10 12 13 17 21 21 22 24 26 25 23 23 25 26 25 23 22 19 17 17 16 14 11 9 6 4 3 4 5 8 11 13 15 16
7 7 4 4 5 4 3 1 3 6 9 15 14 15 20 23 23 23 23 26 27 27 27 28 26 24 21 18 15 13 11 11 9 6 4 3 3 4 6 9 11 12 13 13
10 10 4 8 5 4 4 4 6 8 10 12 18 20 21 23 23 22 23 25 28 29 28 27 25 23 19 16 13 11 10 8 5 4 3 4 6 9 11 13 14 13 13 14
8 13 12 9 10 9 8 8 9 10 12 15 15 19 21 23 23 22 23 27 29 29 28 25 22 20 17 13 10 8 6 4 3 3 4 6 9 11 12 13 14 14 15 14
1 5 6 8 10 11 12 12 12 14 15 17 19 19 19 19 24 25 26 29 29 29 25 21 17 17 14 10 7 5 3 2 3 4 6 8 10 12 13 14 15 15 16 17
6 5 9 11 13 14 15 12 12 15 17 18 18 19 21 24 26 28 29 27 24 23 21 17 15 14 11 8 5 3 2 2 4 5 7 10 12 13 14 15 16 17 17 17
15 13 11 12 14 18 16 14 15 17 19 18 19 20 23 25 29 29 28 27 25 23 19 15 13 11 9 6 4 2 2 3 4 7 9 11 14 14 15 16 17 17 17 17
7 11 11 9 12 17 17 17 17 15 17 19 21 23 23 25 27 28 28 26 24 22 20 15 12 9 6 4 2 1 2 4 6 9 11 13 13 14 15 16 16 17 18 17
4 5 7 9 12 14 16 16 16 17 19 22 22 24 26 26 26 27 25 23 19 16 17 14 11 8 5 3 1 1 3 6 8 10 12 13 14 15 15 16 17 17 16 15
1 2 6 7 11 13 14 15 20 22 23 23 25 26 27 28 26 25 24 23 20 16 15 12 9 6 4 2 0 2 5 7 9 11 11 13 14 15 15 16 16 15 15 15
4 1 4 7 11 16 17 19 21 22 25 26 26 26 27 27 26 24 21 17 19 18 14 11 8 6 4 2 1 3 6 8 10 11 12 13 14 14 14 14 14 14 14 14
5 2 4 8 11 15 18 19 20 22 25 27 28 28 27 26 26 26 25 20 17 17 14 10 8 6 4 2 3 5 7 9 10 11 12 13 14 14 14 13 13 14 14 13
5 3 4 7 11 14 18 21 23 25 26 26 25 26 26 26 25 21 17 18 18 15 13 10 8 6 4 3 4 6 8 9 11 12 13 13 13 13 12 12 12 13 13 12
6 4 4 6 10 15 18 21 23 25 28 27 26 26 25 23 21 22 19 19 17 14 12 11 8 5 4 4 6 8 8 10 12 12 13 13 12 12 11 11 12 13 13 12
7 4 5 7 8 12 16 20 25 28 29 29 27 26 24 22 19 19 18 17 16 14 12 10 7 5 4 5 7 8 9 11 13 13 13 13 12 12 12 12 13 13 13 10
9 7 6 9 11 12 15 21 25 28 30 29 29 28 26 24 20 19 18 18 16 14 11 9 7 5 5 7 8 9 11 13 14 13 12 12 12 13 14 14 14 13 11 8

GFSNGP_850_spd_054.txt.gz
Wind_Speed
5 6 2 4 6 8 13 16 6 3 8 17 18 18 23 26 20 21 20 21 22 17 16 12 12 10 11 12 14 20 24 25 26 26 25 24 25 28 29 31 32 29 25 21
4 6 8 7 10 10 13 15 15 21 24 23 25 14 15 15 18 17 20 26 15 7 6 11 8 6 4 6 10 16 19 22 24 25 26 26 27 28 30 31 28 26 23 19
4 3 1 5 11 15 7 7 10 13 17 13 9 10 6 12 13 13 18 18 6 4 5 7 6 5 5 10 15 19 21 23 22 24 25 26 26 28 27 25 23 20 16 13
3 3 3 5 4 7 14 10 11 14 14 10 8 2 2 8 11 11 11 6 4 6 7 6 6 8 12 11 10 14 18 22 23 20 20 22 26 26 25 22 18 16 12 8
2 2 6 2 2 4 6 5 7 8 7 8 9 7 3 10 8 6 5 4 4 7 9 10 9 10 9 12 15 14 16 18 18 18 27 26 25 26 21 19 16 10 6 3
1 1 3 2 2 4 4 4 8 9 7 4 4 0 2 9 5 3 3 5 6 8 9 9 11 8 5 10 13 19 23 21 19 22 26 26 22 21 18 11 8 6 5 4
4 3 7 7 2 6 2 5 6 11 8 3 2 2 3 2 3 4 4 7 8 9 9 11 11 7 14 18 11 16 21 26 28 27 23 20 18 14 12 10 7 6 3 2
3 3 7 4 4 2 3 8 6 6 6 6 9 7 5 4 5 6 6 7 8 11 14 13 16 12 12 16 21 25 25 25 24 20 17 15 12 12 11 8 6 3 2 3
7 6 6 4 8 13 12 11 8 5 6 11 13 11 8 8 8 9 10 10 10 12 12 12 12 17 23 25 24 24 22 21 20 18 16 15 11 9 6 4 2 3 4 6
2 5 8 14 16 18 11 8 6 5 8 14 15 15 13 11 13 13 13 16 15 16 19 20 21 21 22 22 20 19 19 17 16 16 15 12 8 6 3 2 2 4 6 9
5 8 15 9 7 6 9 8 5 4 8 16 15 17 17 16 15 17 18 19 19 19 20 21 20 19 19 20 19 17 16 15 15 12 10 7 5 3 1 2 5 7 9 10
4 6 6 6 5 7 8 8 4 3 10 15 16 18 20 20 18 18 19 18 19 18 19 21 19 18 18 16 13 14 15 13 11 8 6 3 1 2 3 6 8 10 11 12
5 16 14 9 8 8 6 5 3 3 8 17 18 16 21 22 21 20 20 20 19 20 19 20 19 18 16 14 13 10 8 9 7 5 3 2 1 2 4 6 7 8 9 10
16 12 11 13 9 8 7 6 4 5 10 14 17 18 23 23 24 22 22 21 20 20 20 20 20 18 16 14 12 10 9 8 6 4 2 1 1 4 6 8 9 10 11 12
8 9 12 12 9 11 10 8 7 8 11 15 18 20 23 23 24 24 23 22 22 21 21 21 20 19 16 14 11 10 8 6 4 3 1 2 4 7 9 11 12 12 13 12
10 8 8 9 8 10 11 11 11 10 12 16 19 20 21 20 22 23 24 26 27 28 26 23 20 17 16 13 11 9 7 5 3 1 2 4 7 9 11 11 12 14 15 15
13 13 11 12 12 13 14 12 11 11 14 16 17 19 21 22 23 24 25 27 26 24 23 20 18 17 14 12 9 6 5 3 2 2 4 7 9 11 11 12 13 14 15 15
17 21 19 14 15 14 15 14 13 13 15 17 18 20 21 23 26 27 29 28 27 25 21 18 16 15 13 10 7 5 4 2 2 4 7 9 10 11 12 13 14 14 14 14
7 9 12 16 15 13 15 15 14 14 15 17 19 20 20 22 25 28 29 29 29 27 23 19 16 13 11 9 7 5 3 2 4 6 8 9 10 11 12 13 13 14 14 13
6 5 6 7 7 11 14 15 13 14 15 16 18 20 22 24 27 29 29 29 26 21 21 19 15 13 10 8 6 4 3 4 6 8 8 10 11 12 12 13 13 13 13 13
8 4 2 3 6 9 11 13 13 14 16 17 20 22 25 27 28 28 28 27 24 20 19 17 14 12 10 7 5 4 4 6 7 8 9 10 11 12 12 13 13 13 13 12
10 6 2 3 6 10 11 12 15 15 17 20 22 23 25 27 27 27 25 23 23 21 19 16 14 11 9 6 5 5 5 7 8 8 10 11 12 12 12 12 12 12 12 12
7 5 3 3 6 8 12 14 15 14 16 20 23 25 26 27 27 28 28 25 21 20 18 16 13 11 8 7 6 5 6 8 8 10 11 12 13 13 12 12 12 13 13 12
7 5 3 4 7 10 12 15 16 17 17 20 21 22 24 26 26 24 21 20 20 20 17 15 13 11 9 7 6 6 8 8 9 11 12 13 13 13 13 13 13 14 14 13
9 6 4 3 6 8 11 14 16 18 20 22 23 23 23 23 23 24 23 20 20 20 18 16 13 11 9 8 7 8 9 9 11 12 13 14 13 13 13 13 14 15 15 13
9 8 6 5 6 7 10 13 17 20 22 23 24 25 25 23 22 20 20 20 20 20 17 15 13 11 9 8 8 9 9 10 12 14 14 15 14 14 13 14 15 16 15 13
7 7 7 7 8 9 10 13 16 20 23 25 24 26 26 25 24 21 21 21 22 20 17 15 13 11 10 9 9 10 10 11 13 13 13 13 13 13 15 16 15 14 13 11

GFSNGP_850_spd_057.txt.gz
Wind_Speed
3 4 2 5 4 8 11 9 6 3 6 11 12 14 23 12 18 19 19 25 23 15 11 14 11 10 12 13 15 13 12 8 10 13 16 18 20 22 25 25 24 24 25 26
3 4 6 5 7 8 9 10 12 19 22 24 28 22 11 11 14 14 20 24 14 7 7 7 7 7 9 10 8 6 4 5 10 14 17 21 23 23 23 21 23 26 24 21
4 4 3 5 8 13 7 5 14 12 20 13 9 8 8 9 9 12 14 14 9 4 5 4 5 7 8 6 5 4 6 11 14 16 19 21 21 20 20 26 26 23 22 19
2 4 2 6 3 6 14 9 14 14 14 14 8 10 6 5 8 8 8 8 5 3 3 4 4 3 1 1 1 4 9 11 13 13 14 17 19 22 24 23 22 20 16 12
1 2 6 1 3 5 6 5 11 15 13 5 7 6 4 4 7 4 4 4 2 0 1 1 0 1 3 7 7 9 11 11 9 9 14 20 22 24 23 23 21 17 12 8
1 1 3 2 1 3 4 3 5 11 7 1 2 3 1 3 2 1 2 2 2 2 2 3 5 5 4 8 10 10 13 15 16 18 20 23 23 23 20 16 14 10 8 7
5 3 6 7 6 3 2 3 8 7 11 4 3 1 1 1 2 3 3 3 4 4 5 6 5 4 6 9 11 16 20 22 21 22 23 22 21 18 16 13 12 11 8 4
3 3 6 4 1 3 3 7 8 10 8 9 7 5 3 4 4 5 4 4 4 4 6 6 5 7 7 10 15 14 16 21 23 21 19 17 15 14 14 12 9 6 2 0
7 5 6 5 8 13 12 10 8 8 8 9 9 8 6 6 6 6 8 8 8 7 8 12 6 11 18 22 21 21 22 21 19 18 16 16 14 12 10 7 4 2 1 2
1 4 12 19 13 12 8 8 9 8 8 11 11 11 8 10 9 10 12 12 13 14 16 17 17 20 22 21 19 18 18 17 16 15 15 13 10 8 5 3 2 3 4 6
4 8 17 15 9 2 6 7 7 6 7 11 12 13 11 12 12 13 14 16 18 18 19 20 19 18 18 17 18 17 16 16 14 12 10 8 5 4 2 1 3 5 7 8
5 4 5 14 9 7 7 6 5 4 5 10 13 14 16 15 15 13 14 17 19 17 18 18 16 17 17 16 13 12 13 12 11 8 6 4 2 1 2 5 9 10 11 12
6 14 22 22 16 12 10 6 4 4 5 10 15 14 17 18 17 16 16 15 16 16 16 18 17 17 15 13 11 9 7 8 6 4 2 2 3 4 5 7 8 10 11 11
14 17 16 14 9 7 8 8 6 4 6 10 14 15 17 19 20 19 19 17 15 16 17 17 16 14 13 11 9 7 5 4 2 0 1 2 3 5 6 8 9 10 11 12
8 8 12 16 13 9 9 9 8 7 9 13 16 17 19 23 23 23 21 19 18 17 17 17 15 13 12 9 7 5 4 3 3 3 3 4 5 7 9 11 11 12 12 12
22 17 14 12 10 9 9 10 10 10 11 13 15 17 19 21 21 22 22 23 22 21 19 17 14 12 11 9 8 7 6 5 4 3 4 5 7 9 10 11 12 13 13 13
19 21 15 16 15 13 12 11 11 11 11 12 14 17 19 20 19 22 23 23 20 18 18 17 15 13 12 11 9 8 6 5 4 4 5 7 9 10 11 12 13 13 13 13
15 19 21 23 24 19 16 14 13 12 12 12 15 17 19 21 22 24 24 24 23 21 20 18 15 14 14 12 10 7 6 4 4 5 7 8 9 10 12 12 12 12 13 12
10 13 15 14 16 19 18 15 14 12 13 14 16 17 18 19 20 22 22 24 25 26 25 21 18 16 14 11 9 7 5 5 5 6 8 9 10 11 12 12 12 13 13 12
9 9 7 8 9 10 10 11 12 12 13 14 16 17 19 20 21 24 26 28 27 26 24 21 18 16 13 11 8 7 6 6 7 8 9 10 11 12 12 12 12 12 12 12
12 10 7 4 1 3 5 6 10 12 13 14 15 17 18 20 23 25 29 29 27 25 21 20 18 15 12 10 8 7 7 7 8 9 10 10 12 12 13 12 12 12 12 11
13 11 9 6 3 2 3 4 8 9 12 14 15 17 19 23 26 27 27 26 26 25 22 20 17 15 12 10 9 8 8 8 9 10 10 12 13 13 13 13 12 12 13 12
12 10 7 4 3 2 4 6 8 8 10 13 15 17 19 21 24 27 27 27 25 23 21 19 17 15 13 11 10 9 9 9 11 11 12 13 14 14 14 13 13 13 14 13
11 8 7 7 6 4 5 7 9 11 10 12 14 15 19 23 24 24 22 23 22 21 20 20 17 15 13 12 10 10 10 11 11 12 13 14 15 15 15 14 14 14 16 16
12 11 7 4 3 4 6 8 9 12 14 17 17 17 18 21 22 21 24 22 21 21 21 20 17 16 13 12 11 10 11 12 12 12 14 15 15 15 14 14 14 16 16 16
10 9 9 8 6 6 6 8 10 12 14 17 20 20 20 21 22 21 21 21 21 21 22 20 18 15 14 12 11 11 12 12 12 14 15 15 15 14 14 14 15 17 16 15
11 10 9 7 7 7 8 9 10 12 13 16 18 21 21 23 23 23 23 22 21 22 22 20 17 15 14 13 12 12 13 12 13 15 15 15 15 14 15 16 16 15 13 13

GFSNGP_850_spd_060.txt.gz
Wind_Speed
4 2 3 4 4 8 6 5 5 3 6 8 9 12 18 20 9 13 13 14 14 12 9 10 9 11 14 15 16 14 13 16 11 7 6 7 9 12 16 20 21 23 24 24
3 2 6 4 7 8 9 7 9 9 18 18 23 18 14 4 8 10 10 13 11 10 10 12 11 13 15 16 15 13 11 6 6 5 7 10 11 14 16 19 20 21 23 22
3 4 3 4 7 11 6 5 8 7 11 8 9 8 7 6 6 8 9 11 8 7 8 10 11 11 11 10 10 10 4 1 2 3 6 6 9 12 14 17 20 20 20 19
2 4 2 4 1 6 12 4 11 9 11 12 9 10 8 5 6 8 8 8 6 5 6 7 7 8 8 7 7 6 3 4 4 4 6 9 11 15 20 23 21 19 17 15
1 2 6 0 2 5 5 1 9 12 12 17 8 7 2 3 6 6 5 4 3 3 4 4 5 6 6 5 4 1 3 7 7 6 10 12 17 20 19 18 19 19 16 12
0 1 2 2 2 2 1 2 2 7 9 5 3 3 1 3 4 4 2 1 1 1 1 4 5 5 5 3 3 4 6 8 10 13 14 16 18 18 17 17 17 14 12 10
1 2 6 6 6 2 2 4 8 3 8 6 4 3 2 0 2 2 0 1 1 1 2 5 3 4 4 6 9 11 12 14 15 16 18 19 19 17 15 12 12 12 10 8
3 3 6 4 1 2 2 8 10 10 7 5 4 3 3 2 2 3 2 4 3 2 4 4 6 6 8 14 15 13 13 15 18 18 17 16 15 15 14 12 11 10 6 4
6 5 4 2 7 11 16 17 13 9 8 5 6 7 7 6 4 4 5 7 7 6 7 8 7 9 13 15 14 15 17 18 18 17 16 15 13 12 10 9 6 5 4 4
1 3 8 15 15 14 16 9 9 9 7 6 8 9 9 9 8 8 9 10 11 12 12 16 18 20 19 20 19 17 17 17 16 15 14 12 10 8 6 5 3 2 3 5
4 7 11 6 11 11 8 8 8 6 5 5 9 11 9 11 11 11 13 16 17 18 18 19 18 18 17 16 15 14 15 15 14 12 10 8 7 6 5 5 6 7 7 8
5 8 4 9 13 16 15 12 7 5 4 4 10 11 12 12 12 12 15 19 19 19 20 19 17 17 16 13 11 11 12 12 10 8 6 5 5 5 4 5 7 10 12 12
5 7 14 19 22 15 13 12 8 7 5 5 12 13 13 14 14 15 17 18 19 19 19 18 17 16 15 12 11 9 7 7 6 5 3 2 2 3 6 8 10 11 11 10
6 10 10 3 6 10 9 9 9 8 8 8 11 15 14 16 18 18 18 19 17 18 17 17 17 16 14 12 10 8 6 5 3 2 2 3 4 6 7 9 9 10 11 11
7 11 11 13 12 11 10 10 11 10 9 11 13 15 17 20 21 21 19 19 19 19 19 19 17 15 13 11 9 6 5 2 1 2 3 4 6 7 9 10 11 12 12 12
20 20 17 15 14 12 11 10 11 11 11 12 13 15 16 18 20 21 23 22 22 22 20 18 15 13 12 10 8 5 3 2 2 3 4 6 7 9 10 11 13 13 13 13
18 19 17 20 15 13 13 12 13 13 12 13 13 15 17 18 19 22 24 24 21 19 18 16 15 13 11 9 7 5 5 4 4 4 5 7 9 9 11 13 13 14 14 13
15 19 19 20 23 21 21 19 16 15 15 13 14 15 17 19 20 22 24 25 23 21 19 18 15 13 11 10 9 7 6 6 5 6 7 8 9 10 12 13 14 14 13 13
10 14 16 17 18 18 17 17 17 15 14 14 15 16 15 17 19 19 22 26 27 25 24 22 17 14 12 11 10 9 8 7 6 6 7 9 9 11 13 13 13 13 13 13
9 9 9 10 10 10 11 12 12 13 14 14 14 16 17 17 18 19 21 24 27 24 23 23 19 15 14 12 11 10 8 7 7 7 8 9 11 13 14 14 13 13 13 12
12 11 9 6 5 2 1 3 7 11 12 13 14 15 15 15 17 19 22 26 26 23 23 20 18 16 15 13 11 10 8 7 7 8 9 10 12 13 14 14 14 13 13 13
13 12 10 8 5 3 1 3 5 7 9 11 12 12 13 16 18 20 21 24 24 24 24 21 19 17 15 13 12 10 9 8 8 9 10 11 13 14 14 15 14 14 14 14
16 13 11 8 7 5 3 1 2 3 3 6 8 9 11 14 18 22 24 23 24 23 23 20 18 17 16 14 12 10 9 9 9 10 11 12 14 15 15 15 14 15 14 15
13 12 10 9 7 5 3 3 2 4 5 7 8 9 11 15 17 19 18 19 21 22 21 20 19 18 16 14 12 10 10 9 10 11 12 13 15 16 16 15 15 15 16 17
11 11 11 9 8 7 6 6 5 6 7 9 9 11 11 13 15 16 19 21 21 22 21 21 20 19 16 14 12 11 11 10 11 12 13 14 16 16 16 16 16 16 17 17
12 12 12 11 10 9 8 7 7 8 9 10 12 15 16 14 14 15 17 19 20 21 21 21 21 19 16 15 13 12 11 11 12 12 13 15 16 15 15 15 16 17 18 16
12 12 11 8 9 10 10 9 9 9 9 10 12 13 17 20 20 19 19 22 22 21 21 22 21 18 17 15 13 12 11 11 13 13 15 16 16 16 15 16 17 16 14 14

GFSNGP_850_spd_063.txt.gz
Wind_Speed
1 2 3 4 4 7 5 5 5 2 5 6 7 7 12 15 7 9 10 11 8 9 7 7 7 9 12 12 12 13 11 10 12 13 10 7 7 6 8 11 14 16 18 21
3 1 4 3 4 7 8 3 7 1 13 13 20 14 8 1 6 5 7 8 6 4 5 7 9 11 11 11 14 15 12 11 9 7 5 3 4 4 5 8 11 16 19 22
2 2 1 4 9 11 5 4 8 7 9 6 5 3 1 3 2 3 5 5 4 3 4 6 8 8 10 12 14 15 13 9 8 8 8 6 2 4 5 10 14 16 19 18
1 2 2 3 1 7 12 4 11 6 9 10 10 7 5 3 1 3 3 2 2 1 3 5 7 8 10 11 12 13 10 8 8 8 8 7 9 12 14 17 18 18 16 16
1 2 5 1 2 5 5 1 9 13 13 14 10 4 3 1 1 0 1 1 0 2 4 5 6 8 9 9 9 8 7 7 8 8 9 11 12 14 17 16 17 16 16 15
1 1 2 2 0 2 2 3 3 9 6 4 1 2 1 3 1 1 1 2 2 4 3 3 5 6 6 5 6 7 8 9 12 13 14 15 15 15 16 16 17 16 14 11
2 2 5 5 4 3 1 3 3 2 7 5 3 3 3 4 3 3 4 4 4 4 2 3 6 7 6 10 13 14 15 16 16 16 17 18 18 16 14 13 11 13 11 11
2 0 5 4 1 1 1 6 12 11 7 5 5 6 6 6 5 4 4 5 5 4 3 6 9 7 14 17 19 19 19 19 19 18 16 15 13 14 14 13 11 11 9 8
6 5 4 3 4 8 13 16 11 7 7 5 6 8 8 7 4 4 5 6 7 6 8 9 10 13 16 20 18 20 19 17 16 15 15 15 13 12 11 9 7 7 6 5
1 1 7 11 11 8 8 9 9 8 6 5 7 9 10 9 6 6 8 10 10 11 13 16 17 17 19 21 18 16 15 15 15 13 13 12 10 9 8 7 6 6 6 5
4 7 8 5 4 7 8 13 11 9 6 5 7 10 10 10 8 9 11 15 15 17 19 20 19 18 18 17 16 15 16 15 13 11 10 8 7 6 5 5 5 5 6 7
5 7 5 9 10 15 14 17 12 10 6 5 7 10 11 12 11 12 16 19 19 19 19 19 19 18 16 15 13 13 13 12 10 8 7 6 5 5 6 7 8 9 10 11
3 4 10 15 16 12 12 9 8 9 7 6 8 13 14 15 14 15 18 21 21 20 19 18 17 16 15 13 13 11 9 9 7 6 4 4 4 5 5 6 8 10 10 11
8 9 7 3 4 13 10 8 7 7 8 8 9 14 16 17 19 19 20 21 23 21 19 17 17 16 14 13 12 10 9 7 5 3 3 2 2 3 6 7 8 9 11 10
8 7 11 14 13 10 8 8 9 9 9 9 11 14 19 21 23 23 23 22 23 22 20 19 19 18 15 14 12 9 8 5 4 3 2 1 3 5 7 8 9 10 11 11
13 16 14 9 9 9 11 11 11 9 9 10 12 15 17 19 21 23 26 27 28 28 24 22 20 18 16 14 12 10 8 6 4 2 1 3 5 6 7 9 10 11 11 12
14 13 14 19 15 14 15 14 15 14 13 12 12 14 17 19 20 24 27 29 27 24 24 22 20 18 16 14 11 10 8 5 3 3 3 4 6 7 8 10 11 11 11 12
12 14 16 18 20 19 19 18 19 19 16 13 14 16 18 20 23 25 27 28 26 26 25 24 21 18 16 14 12 10 7 5 5 5 4 5 7 7 9 11 12 11 11 11
9 12 14 15 16 17 20 19 18 18 18 16 16 17 17 18 20 22 26 28 30 31 29 27 22 19 17 15 13 10 8 7 7 5 5 7 7 8 10 11 12 12 11 11
8 9 10 11 11 12 13 12 12 13 14 14 15 16 17 18 19 20 23 28 31 31 28 28 26 20 18 16 13 11 9 8 7 7 7 8 8 9 11 12 13 12 12 11
9 8 8 8 7 6 4 3 4 7 10 12 13 14 15 15 17 20 23 27 27 27 27 26 23 22 19 16 14 12 10 10 8 8 8 8 8 10 12 13 14 13 13 12
13 12 11 8 8 7 4 2 3 5 8 10 12 13 14 16 16 18 19 21 22 26 27 27 23 20 17 16 14 13 11 11 9 8 8 9 9 11 13 14 14 14 14 14
14 16 15 12 9 8 6 4 2 2 3 5 7 9 11 11 13 16 18 18 22 24 24 23 21 20 18 16 15 14 12 11 10 8 9 10 10 12 14 15 15 15 15 14
9 11 13 13 12 10 7 5 3 1 2 3 5 6 7 9 11 13 13 16 21 23 22 23 22 21 19 17 16 14 12 11 9 9 10 10 11 13 14 15 15 15 15 16
10 9 9 9 10 10 9 8 6 3 3 4 5 6 7 8 9 11 14 17 20 21 22 23 22 21 19 18 17 14 13 11 10 10 10 11 12 14 15 15 15 15 15 16
10 10 11 11 10 10 9 9 7 6 6 6 7 8 10 11 11 12 13 15 18 19 22 24 24 23 20 19 17 15 13 11 10 10 11 12 13 14 15 15 15 16 17 15
10 11 10 8 9 10 9 8 8 7 7 7 8 9 10 13 16 17 19 19 20 20 22 24 24 22 20 19 17 15 13 12 11 11 11 11 13 14 15 14 15 16 14 14

GFSNGP_850_spd_066.txt.gz
Wind_Speed
3 2 2 3 5 10 6 3 4 2 4 6 3 7 6 5 1 1 1 2 2 3 4 2 3 4 6 7 8 7 4 4 6 8 7 6 6 6 8 8 9 9 11 12
2 2 5 5 7 10 12 11 11 8 14 10 9 4 4 1 1 2 1 2 2 0 2 1 3 4 6 7 7 8 6 8 7 5 6 5 5 4 4 3 3 3 5 8
0 2 3 5 9 12 8 8 11 9 7 3 7 5 5 4 4 3 1 1 0 2 1 1 2 3 5 5 7 8 9 7 8 8 8 8 7 6 5 4 5 9 13 14
0 2 2 3 2 3 11 5 12 8 10 11 11 10 6 5 5 3 1 2 3 3 2 3 3 4 4 4 6 8 8 8 9 9 10 10 10 11 11 12 13 14 12 11
2 2 4 2 3 4 4 2 11 13 13 14 10 2 5 5 4 4 4 4 5 5 5 4 3 3 3 4 6 7 9 9 11 11 14 14 16 17 16 14 15 14 12 11
1 2 2 2 2 2 2 2 2 9 7 6 1 5 1 9 5 5 4 5 6 6 5 4 3 2 3 5 7 9 11 13 14 16 16 17 17 17 15 13 14 13 11 9
3 3 3 2 2 2 3 5 1 4 7 6 4 3 4 7 7 5 5 7 6 6 6 4 4 5 6 10 13 16 17 18 18 17 17 17 16 14 13 12 11 10 9 9
3 3 4 5 3 3 3 1 6 7 5 5 6 6 7 8 7 6 6 8 8 7 6 7 6 9 13 15 17 19 19 20 19 18 17 14 13 14 13 12 10 9 8 6
5 2 2 3 1 3 4 7 6 4 5 5 7 9 10 10 8 7 8 9 9 8 9 8 12 14 16 20 20 21 19 18 16 15 15 14 13 12 10 9 8 6 4 3
2 3 9 8 8 6 4 2 5 7 6 5 6 9 11 11 8 8 10 11 10 11 11 15 16 17 20 22 20 18 16 15 16 14 13 12 10 9 7 6 4 3 2 4
5 9 11 6 5 2 6 7 11 12 8 6 6 10 12 12 11 9 11 12 13 16 18 20 21 20 19 18 16 15 16 15 14 12 10 9 8 7 5 3 3 3 4 5
5 5 4 4 4 9 12 11 13 15 10 7 6 9 13 13 12 11 14 17 19 20 21 21 19 18 16 15 14 14 14 13 11 9 8 7 5 4 2 1 4 5 6 7
2 2 5 9 11 13 9 8 8 9 8 8 7 11 13 15 15 15 16 19 21 21 21 20 19 18 16 16 15 14 12 10 9 7 6 5 3 1 2 5 6 8 8 9
9 6 6 4 3 9 12 10 9 7 8 8 9 11 14 16 18 19 20 19 22 23 22 20 19 18 17 17 16 14 12 10 8 7 5 4 2 1 3 5 7 9 10 10
8 9 10 12 13 12 11 9 9 9 10 10 11 13 16 20 21 21 22 23 24 25 23 22 22 21 19 17 15 13 11 9 7 6 5 3 2 2 4 6 7 9 10 10
9 12 13 13 12 11 12 11 13 12 12 12 12 13 15 17 20 20 24 27 31 31 27 25 24 22 20 18 16 14 13 10 8 7 6 4 3 4 5 7 8 10 10 10
10 8 8 14 14 15 15 16 17 17 15 16 13 13 15 19 21 22 26 30 30 29 27 25 24 23 20 18 17 15 13 11 10 9 7 5 5 6 6 8 9 10 10 10
9 11 13 15 17 18 17 17 18 20 21 18 15 16 18 21 23 23 26 30 33 31 30 27 25 24 22 21 19 17 15 13 11 9 7 6 6 7 8 9 10 11 11 11
9 11 13 14 15 17 18 19 20 21 21 20 22 21 19 19 21 22 24 29 33 36 35 32 30 26 24 23 21 18 16 14 12 10 8 8 8 8 9 10 11 12 12 12
7 9 10 10 11 13 15 15 16 16 16 17 19 20 20 20 21 21 23 27 31 35 34 35 34 31 25 24 22 19 17 14 12 11 10 9 9 9 10 11 12 13 13 13
7 6 6 7 8 8 9 9 7 7 9 12 15 16 16 17 19 20 22 26 29 31 32 34 35 32 27 25 23 20 18 15 13 12 11 10 10 10 11 12 13 14 14 15
9 10 10 9 8 7 6 6 5 5 6 7 10 13 15 16 18 18 20 22 22 26 30 32 32 32 27 24 22 20 18 16 15 13 12 11 11 12 12 13 14 15 16 16
9 11 13 13 11 10 8 7 4 3 4 6 9 10 12 13 15 17 20 20 20 23 27 30 29 30 24 24 22 20 18 17 15 13 13 12 12 13 13 14 15 15 16 16
8 9 9 11 12 12 12 9 6 5 3 2 3 4 6 8 9 12 13 13 17 20 23 26 28 30 27 24 23 21 18 17 16 15 14 13 13 13 13 14 15 16 16 16
9 9 9 9 8 9 9 10 9 7 5 4 4 6 7 7 8 8 11 11 15 19 22 24 28 26 26 24 22 20 18 17 16 16 15 14 14 14 14 14 15 16 16 16
8 9 11 11 10 10 9 8 7 7 6 6 6 6 7 9 10 11 12 13 15 19 22 24 26 28 26 23 22 20 19 18 17 16 16 14 14 14 14 14 16 16 16 16
8 8 8 9 11 11 10 9 8 7 7 7 6 6 7 9 11 14 16 19 20 21 23 25 27 28 25 24 23 21 19 18 17 17 16 15 15 15 14 15 16 16 16 16

GFSNGP_850_spd_069.txt.gz
Wind_Speed
3 3 0 3 5 10 5 5 2 5 2 11 12 9 5 3 5 6 5 5 5 5 3 2 1 2 3 3 4 4 4 3 4 4 3 3 3 4 6 6 6 6 7 7
1 1 3 5 6 8 12 14 12 8 7 4 8 5 4 3 5 6 7 7 6 5 4 2 0 1 0 2 3 4 3 2 2 1 1 3 4 3 4 5 6 6 5 3
0 2 4 7 12 12 9 8 13 10 11 6 4 2 4 5 7 7 9 7 7 7 6 5 3 3 3 2 1 3 3 2 2 4 7 8 7 8 9 9 8 9 9 7
2 2 3 3 1 4 12 6 11 8 6 5 4 6 6 6 7 8 8 8 7 7 6 6 4 4 3 2 2 3 4 5 5 7 8 10 10 13 14 13 12 13 12 9
3 4 5 4 4 4 7 3 14 12 9 5 3 2 7 6 6 8 8 6 6 6 7 7 7 4 3 3 4 5 5 7 8 9 13 13 14 16 15 13 14 14 13 11
1 2 2 4 3 3 2 3 5 4 2 2 1 4 3 8 7 6 6 6 7 8 8 7 6 5 5 5 6 8 8 11 13 15 16 16 17 18 16 14 13 11 10 10
5 3 4 6 4 1 3 3 6 4 4 4 4 2 5 6 6 5 7 7 9 9 7 7 6 7 7 9 11 12 14 16 17 18 18 17 16 15 12 10 10 10 9 9
4 4 4 7 4 2 3 3 6 6 4 4 2 4 5 7 7 7 7 8 9 8 8 8 8 9 11 13 15 16 18 18 18 18 16 14 12 12 11 10 8 7 5 4
5 2 4 6 2 4 3 1 3 4 4 3 4 7 7 9 9 9 8 8 9 10 10 9 9 12 15 18 18 19 19 17 16 15 15 13 11 10 9 7 4 3 3 4
2 4 7 6 3 3 0 2 1 5 6 5 4 6 9 10 11 9 9 10 11 10 11 12 15 16 18 21 21 18 16 15 15 13 12 10 9 8 5 4 2 2 3 4
7 9 6 10 7 3 2 4 6 9 10 7 5 7 10 11 11 10 10 11 13 13 13 17 19 20 22 22 19 16 15 15 13 12 10 9 8 6 3 1 1 3 4 6
3 4 4 3 5 3 6 7 8 10 11 10 8 7 10 12 12 11 12 13 14 15 17 20 22 22 22 20 17 16 15 13 12 10 9 7 5 4 1 1 3 4 6 8
10 1 2 4 4 6 7 8 9 9 9 8 8 8 11 13 13 12 13 14 16 19 20 21 21 20 18 17 17 16 14 12 11 9 8 7 5 3 2 3 5 7 8 9
5 4 6 8 3 6 11 13 12 11 9 9 9 9 11 13 13 16 16 16 17 20 21 21 20 19 18 18 17 16 13 11 10 9 8 7 5 4 4 5 7 10 10 12
8 10 9 9 11 10 11 11 11 10 10 11 11 12 12 15 16 19 18 19 20 22 22 23 22 21 19 19 18 16 15 13 11 10 9 8 6 5 6 6 7 9 12 13
8 9 11 11 12 10 11 11 11 12 12 12 13 12 13 14 16 18 18 22 24 28 26 25 24 21 21 20 20 18 16 14 13 11 10 9 8 7 7 7 8 10 11 12
6 7 9 10 10 10 12 13 14 16 16 17 16 14 14 16 18 20 21 24 26 27 27 27 25 23 22 21 21 19 17 16 14 13 12 10 9 8 8 8 10 11 12 12
8 9 10 11 13 14 14 13 14 15 17 18 18 18 19 20 22 21 21 24 28 30 29 29 27 25 25 24 22 20 18 17 16 14 13 12 11 10 9 10 11 12 13 14
7 9 11 13 13 15 17 18 19 19 20 19 20 22 22 20 20 20 21 24 28 32 34 33 32 28 26 25 23 22 20 19 17 16 15 14 13 11 11 11 12 13 14 15
7 8 9 10 11 12 15 16 16 17 16 18 18 20 22 23 22 21 22 25 26 28 32 34 35 33 31 28 25 24 22 21 19 18 16 15 14 13 13 13 13 14 15 16
6 7 7 7 7 8 10 12 12 11 11 11 13 15 17 18 19 19 21 24 24 25 28 30 36 37 35 32 30 26 24 22 21 20 18 16 15 14 14 14 14 15 17 18
8 9 10 11 10 9 8 9 9 9 8 8 8 11 13 14 16 17 19 21 21 21 23 27 31 36 35 34 31 27 25 24 22 21 19 17 15 15 14 15 15 17 18 18
5 6 7 8 11 12 12 10 8 7 7 7 8 10 12 13 14 16 19 18 19 19 19 23 26 27 30 33 33 27 26 24 23 21 19 17 17 16 16 16 16 18 18 19
6 7 8 9 9 9 10 12 10 8 7 6 6 6 7 8 10 12 14 15 14 15 17 19 21 25 29 32 32 29 24 24 23 21 19 19 17 16 17 17 17 18 20 19
7 8 9 10 9 10 10 10 10 11 9 8 7 6 7 8 9 8 9 10 10 12 14 16 19 23 28 31 31 28 23 23 22 21 20 19 18 17 17 17 17 18 20 19
8 9 9 10 10 11 11 10 9 10 10 10 9 8 7 7 8 9 8 10 10 11 12 16 20 24 28 30 29 25 23 23 23 22 21 19 18 18 18 18 18 19 20 19
8 8 9 10 11 11 10 11 12 11 10 10 10 9 9 9 9 9 10 12 13 14 15 18 21 24 28 28 26 25 24 23 23 21 20 20 19 18 18 18 19 19 20 19

GFSNGP_850_spd_072.txt.gz
Wind_Speed
4 4 3 4 3 7 4 5 3 5 2 8 10 8 11 12 13 13 12 9 10 10 8 6 4 3 3 2 1 1 2 2 2 2 2 2 1 1 2 1 1 2 4 6
2 0 2 3 5 6 7 7 7 5 5 4 14 12 7 8 13 11 11 12 12 13 10 8 7 4 3 2 2 1 1 1 2 1 1 2 1 0 1 3 6 6 7 7
1 1 4 5 10 9 6 6 9 7 6 1 4 5 7 6 10 11 13 13 13 11 12 12 8 5 4 4 3 2 1 1 1 2 3 4 3 5 8 11 12 13 14 12
1 1 2 3 4 2 8 6 7 7 4 5 3 1 2 8 9 12 13 12 12 12 11 10 9 8 6 6 4 3 3 4 4 4 5 6 10 13 15 16 16 16 15 13
1 3 1 1 2 3 5 5 8 6 3 7 4 2 5 8 9 11 11 10 11 10 10 11 11 9 8 6 5 5 5 4 4 6 9 13 15 17 17 16 16 16 15 12
2 1 2 3 3 1 2 2 3 9 6 4 3 1 2 10 9 10 9 11 12 12 10 11 12 9 8 8 8 7 7 8 9 11 13 16 17 18 17 15 14 13 12 11
4 2 4 5 6 2 2 3 7 3 2 4 3 2 7 8 8 7 10 10 10 9 11 11 10 9 9 9 9 9 11 13 14 15 16 17 17 15 12 12 11 11 9 7
4 2 5 6 3 1 6 7 6 5 3 3 2 3 5 6 8 9 9 8 9 11 11 9 10 10 10 10 11 13 15 16 18 16 15 15 13 13 11 9 8 7 6 5
5 3 2 9 8 6 3 3 2 5 2 2 2 3 5 7 9 10 8 7 9 10 10 10 10 10 12 13 15 17 18 18 16 15 13 13 11 10 8 6 5 4 3 4
3 2 7 8 6 1 3 5 4 3 2 3 1 4 5 8 11 11 10 10 9 11 12 10 10 13 14 16 17 19 19 17 16 14 13 11 9 7 5 4 2 1 3 5
4 5 3 6 7 11 5 3 2 4 5 3 4 7 6 8 11 11 10 10 11 13 11 10 13 15 18 20 20 18 16 16 15 13 12 11 9 6 3 2 1 3 5 7
2 3 6 10 10 5 1 2 4 6 7 7 6 6 9 9 10 11 10 11 13 15 11 14 15 19 22 22 20 18 17 16 14 13 11 9 7 5 4 2 3 5 7 7
3 3 3 3 3 4 2 3 5 7 7 7 8 6 10 9 10 12 11 11 11 12 13 17 19 23 25 23 21 18 17 16 15 13 11 10 8 6 4 3 4 5 6 8
7 5 3 3 5 5 5 8 10 10 8 7 8 8 10 10 10 13 14 11 10 13 15 18 22 23 23 22 20 20 18 15 14 12 12 10 8 6 5 6 6 6 8 10
10 8 8 7 7 8 11 11 10 9 8 8 8 9 10 14 12 13 15 14 14 16 19 21 22 23 22 22 21 20 18 16 15 14 12 10 9 8 8 8 8 9 10 10
9 11 9 9 9 9 9 9 9 9 9 10 10 10 10 13 15 13 15 17 22 23 23 24 23 22 22 22 22 21 19 18 16 14 13 12 11 10 9 9 9 9 10 12
6 4 6 7 8 8 10 12 13 13 14 14 14 12 12 13 15 18 17 18 22 23 23 25 25 24 23 22 22 22 21 19 18 16 15 14 12 11 11 10 10 10 11 12
5 6 7 9 11 13 14 13 13 14 14 14 14 16 16 17 19 20 18 16 20 25 26 26 26 25 24 24 24 23 22 21 20 18 16 15 13 13 12 12 11 12 12 13
3 5 7 10 11 13 15 15 16 17 17 17 18 19 20 20 20 20 19 20 22 25 28 28 29 29 28 26 25 24 24 23 21 20 18 16 16 14 14 13 13 13 13 14
3 5 7 8 9 11 12 13 15 16 15 15 16 17 19 22 21 21 21 22 22 22 22 25 31 32 30 29 30 28 26 24 22 20 19 18 17 16 15 14 14 14 15 15
6 7 8 8 7 7 8 10 12 12 12 12 12 13 15 18 19 19 20 22 21 20 21 22 26 33 34 34 34 33 30 26 24 22 20 19 18 17 16 15 15 15 16 16
5 6 6 8 10 10 11 11 11 11 10 10 10 10 11 13 15 15 17 19 18 17 19 21 23 27 32 36 36 34 34 31 26 22 20 21 19 18 17 16 16 16 16 17
5 5 7 8 8 9 10 11 13 11 9 8 8 8 10 11 12 14 15 15 16 18 18 19 20 22 25 32 35 34 33 32 27 25 22 22 20 19 18 17 17 17 17 17
6 7 8 9 9 9 10 10 10 11 11 10 9 8 7 7 8 10 12 14 15 15 17 17 17 18 22 26 31 32 32 32 31 28 22 22 21 20 19 17 17 17 17 18
6 8 9 10 9 10 11 11 10 10 10 10 10 8 8 8 9 8 9 9 11 12 12 12 13 15 20 22 25 27 30 32 30 27 22 23 21 19 18 18 17 17 18 19
7 8 8 9 10 10 11 12 12 11 11 10 10 10 10 10 9 9 9 9 8 9 9 10 13 16 19 20 22 24 27 28 28 27 22 22 21 19 18 18 17 17 18 19
8 8 9 10 10 11 11 11 12 11 12 13 12 11 10 10 11 10 10 10 9 9 8 10 12 15 18 19 21 23 25 26 25 23 20 22 21 20 18 17 17 17 18 19

GFSNGP_850_spd_075.txt.gz
Wind_Speed
2 4 4 5 4 7 4 4 5 1 3 11 12 10 16 19 20 20 17 15 14 13 12 9 9 7 6 6 6 5 4 5 5 5 5 5 4 4 4 4 3 3 2 3
2 3 3 3 6 7 5 4 4 4 4 7 17 21 12 20 22 22 19 16 15 15 14 12 10 8 8 7 6 5 5 4 4 4 5 5 5 4 4 3 3 3 2 5
2 2 0 5 9 9 5 5 6 5 7 2 6 10 15 20 22 22 19 18 17 16 16 15 12 11 9 8 7 6 6 5 4 4 5 5 5 5 7 7 7 9 12 12
2 2 1 5 1 8 9 7 8 4 4 4 7 8 8 11 16 16 15 16 16 16 16 16 14 13 11 9 8 7 7 5 4 3 5 7 8 10 12 12 13 14 14 12
3 2 4 2 3 5 7 6 7 7 5 4 7 5 3 8 11 12 13 15 16 15 14 15 16 15 13 10 9 8 7 5 5 7 8 11 13 14 15 15 14 14 13 11
2 1 3 2 2 1 3 3 5 11 6 6 6 2 4 9 9 11 13 15 16 15 13 14 15 14 12 12 10 8 8 7 7 9 11 14 15 16 17 14 12 11 11 10
2 2 5 1 3 4 3 3 4 8 8 10 4 6 3 11 10 12 14 13 13 13 14 15 15 14 13 12 10 9 9 9 11 13 16 17 17 16 13 11 10 9 8 7
3 3 5 5 3 2 4 8 7 6 5 6 6 6 7 9 10 13 12 11 11 13 14 13 13 13 13 13 12 11 12 13 15 17 18 16 14 14 12 10 7 6 4 3
6 4 4 9 4 8 11 8 6 7 5 5 6 6 7 9 12 12 11 11 11 12 14 15 14 14 14 13 13 15 16 17 18 17 16 14 13 12 10 8 5 3 1 3
3 1 5 12 7 5 4 6 7 6 5 4 3 3 5 8 12 14 13 11 10 13 15 15 14 14 14 14 17 18 18 19 18 17 16 14 13 10 8 5 3 1 2 3
3 5 5 10 11 10 7 6 5 4 4 5 5 6 4 6 11 14 12 10 11 13 15 14 12 14 17 18 19 20 20 19 18 16 14 13 11 8 7 5 3 3 3 4
4 2 5 3 14 9 7 3 2 4 5 6 7 9 8 8 9 12 13 12 12 13 13 12 13 16 19 20 20 21 21 20 18 16 14 13 11 9 7 6 5 4 4 5
5 4 5 11 8 4 4 3 3 4 6 6 6 8 10 10 10 11 13 12 12 12 13 13 16 19 21 22 22 22 19 19 18 17 15 14 12 10 8 8 6 5 4 6
8 7 6 8 5 5 4 4 6 8 8 8 7 8 9 10 10 13 14 10 10 13 14 14 17 20 24 25 24 22 19 18 18 16 15 14 13 11 10 8 7 6 6 7
12 10 8 6 7 5 6 7 8 7 7 7 7 8 10 12 12 11 12 13 13 13 15 15 17 20 23 25 24 22 21 21 19 18 16 15 13 12 11 9 8 8 7 8
11 9 7 5 5 6 7 7 7 7 7 8 8 8 9 12 13 13 13 15 18 20 17 17 18 18 22 24 23 22 22 21 20 19 18 17 16 14 12 11 10 10 9 9
9 6 5 4 5 6 7 8 10 11 12 12 12 12 12 12 14 16 16 15 17 19 19 19 19 19 22 24 24 24 24 24 22 22 21 18 17 15 14 13 12 11 10 11
5 5 6 8 9 11 10 10 11 13 13 14 14 15 14 14 16 17 18 15 16 19 23 23 22 22 24 25 25 25 25 26 25 24 21 20 18 16 16 15 13 12 12 12
1 3 5 7 9 10 11 13 14 14 15 15 17 17 16 18 17 18 19 20 21 23 24 23 25 25 27 28 27 27 28 28 27 25 24 21 20 18 17 15 14 14 13 13
2 1 2 3 5 7 8 10 12 13 13 15 15 16 16 16 17 19 20 23 24 22 20 19 24 28 29 29 31 30 31 30 29 27 25 24 22 19 17 16 15 15 14 14
6 6 6 7 7 7 7 8 9 10 10 11 12 13 13 13 14 16 19 21 20 20 21 20 22 25 28 31 33 35 35 35 34 30 27 25 22 20 18 16 16 15 15 15
5 5 6 6 7 8 8 9 11 10 10 9 9 10 11 11 12 13 15 17 17 18 20 21 22 23 25 30 34 36 38 37 37 34 31 26 23 20 16 16 17 16 16 16
4 4 5 7 8 8 9 10 10 11 11 10 10 9 9 9 10 12 13 13 15 16 17 18 19 21 23 26 31 36 38 37 36 36 34 28 24 24 18 17 18 18 17 17
4 5 7 7 8 8 8 9 9 9 10 10 10 10 10 9 7 8 9 10 13 15 17 17 18 19 21 24 27 30 33 35 35 34 34 31 29 23 18 20 20 18 18 17
6 6 7 8 9 9 10 10 10 9 9 9 9 9 9 9 9 9 8 9 11 11 13 13 15 17 19 22 23 24 25 27 30 30 31 34 28 26 17 20 19 18 18 17
7 8 9 9 9 9 10 11 11 10 11 10 9 9 9 9 9 10 9 8 8 8 9 10 11 14 16 17 17 18 20 21 24 27 30 30 26 24 18 20 19 19 17 17
8 9 9 9 9 9 10 11 11 10 11 12 12 11 11 10 9 9 9 9 8 8 7 8 9 11 12 13 14 15 17 18 20 22 24 25 27 24 19 19 18 18 18 16

GFSNGP_850_spd_078.txt.gz
Wind_Speed
2 5 4 5 7 10 8 6 5 3 7 7 10 9 17 23 24 23 21 19 19 18 15 13 11 10 9 8 8 7 8 8 8 8 8 8 8 8 8 8 7 6 6 6
4 1 1 2 6 8 6 5 3 4 6 6 11 12 17 22 23 24 24 22 19 17 16 15 13 12 11 10 9 8 8 7 7 7 7 8 7 7 6 6 5 5 5 4
3 1 1 5 10 9 5 5 7 6 7 2 11 10 18 20 24 26 25 23 21 19 17 16 15 13 12 11 10 9 8 7 7 7 7 7 6 6 7 7 7 7 9 9
2 2 2 5 1 7 9 6 8 3 4 4 9 16 19 18 24 26 23 22 21 19 18 17 16 15 13 12 11 10 9 8 8 7 7 7 8 9 9 10 11 13 13 12
3 3 5 3 3 4 6 7 8 8 5 2 11 11 4 11 16 19 19 19 18 17 17 16 16 15 14 14 12 10 9 9 8 7 8 9 11 12 13 13 14 14 13 12
2 2 4 2 1 2 4 4 4 11 7 6 8 3 4 12 14 14 15 16 16 16 16 15 15 15 14 14 12 11 10 9 8 8 10 12 13 15 15 14 13 13 12 10
2 1 6 4 2 5 1 4 1 10 15 13 5 6 4 7 10 11 12 13 14 14 14 14 15 15 15 15 13 11 11 10 9 10 12 14 16 16 15 13 12 11 8 6
3 3 5 4 3 3 3 3 4 8 8 11 7 6 6 8 10 11 12 13 13 14 14 15 15 15 16 15 13 11 11 11 12 14 16 18 17 15 14 12 10 8 6 3
6 5 5 9 3 5 8 6 4 4 4 5 7 7 7 9 11 12 12 13 13 13 14 15 16 16 16 15 15 14 14 14 16 18 18 16 15 14 13 11 8 5 3 1
1 2 5 9 6 6 5 4 4 4 5 4 5 5 5 7 10 13 14 14 12 13 15 16 17 16 17 16 15 15 17 18 19 20 19 17 16 14 11 8 6 4 3 3
3 5 2 5 9 7 5 6 6 4 2 3 5 6 7 7 9 12 13 14 14 13 14 16 16 17 18 18 18 19 19 20 21 20 18 17 15 12 9 8 6 4 4 5
4 4 4 4 11 9 7 6 4 3 3 4 7 9 9 10 9 10 13 14 14 13 13 15 16 16 18 20 20 21 21 23 22 21 19 17 14 12 10 8 7 7 7 7
6 6 3 8 10 9 7 5 3 3 4 5 6 7 9 10 10 9 13 14 14 12 12 13 14 14 17 20 22 22 23 23 22 20 19 17 14 13 11 11 10 9 9 8
10 10 8 12 7 9 6 5 4 5 6 8 8 8 9 9 10 11 12 11 12 13 13 13 14 16 18 20 22 22 22 21 20 19 17 16 15 14 13 12 11 11 10 8
10 11 6 11 11 9 7 6 7 8 8 8 8 8 9 10 11 10 10 11 13 15 14 15 15 16 20 23 25 25 24 23 21 20 19 17 16 16 16 15 14 12 12 10
12 9 8 8 8 8 7 7 7 7 8 9 10 9 9 11 12 12 13 14 16 19 16 16 16 14 19 24 26 25 24 23 22 22 21 21 20 19 19 17 16 15 14 12
12 9 8 7 6 5 5 7 9 10 11 13 14 14 14 14 15 14 14 16 15 16 16 17 16 15 19 23 25 26 25 24 24 24 24 23 21 21 19 18 18 16 14 14
6 5 5 5 6 7 8 9 10 11 12 15 15 16 16 17 18 17 15 14 16 19 20 19 17 18 20 22 25 26 27 26 27 26 25 25 24 22 21 21 20 18 16 16
4 3 3 4 5 7 9 10 11 13 14 16 17 17 17 17 17 18 17 18 20 22 23 20 18 19 22 23 25 28 28 28 29 29 28 26 26 24 23 22 21 19 18 17
4 2 1 1 2 4 5 7 10 11 11 13 14 16 17 17 17 18 19 23 21 21 23 20 20 21 22 24 26 29 31 32 32 32 31 30 29 27 25 23 22 21 20 18
6 5 5 5 4 4 5 6 8 9 9 10 11 12 14 14 14 15 15 18 18 20 22 22 22 23 23 25 27 30 32 34 36 36 35 34 31 29 27 25 24 21 20 19
4 4 6 8 8 8 8 8 9 9 10 10 10 10 11 12 13 14 14 17 17 19 19 21 22 23 23 24 27 30 33 35 38 39 39 39 38 33 29 26 24 21 17 20
4 3 4 6 8 8 9 10 11 10 10 11 11 11 11 11 11 12 12 13 16 16 17 18 19 20 21 25 26 27 31 35 38 39 39 38 38 37 34 30 24 24 21 20
2 4 5 7 8 9 9 9 10 10 11 11 11 11 12 11 8 8 10 12 12 12 15 17 18 19 21 24 25 26 28 30 33 34 35 35 35 36 35 34 33 28 25 23
5 6 7 8 9 9 10 10 10 10 9 10 10 11 11 12 12 12 11 11 11 12 12 12 14 16 19 22 24 24 25 25 26 27 29 30 31 31 35 33 31 29 21 23
7 8 9 10 10 10 11 11 11 11 11 10 10 10 10 11 11 12 12 12 11 11 11 10 11 13 15 17 18 19 20 20 20 22 22 24 26 27 30 31 29 28 22 22
10 9 10 11 11 12 12 12 12 11 12 12 12 12 12 12 12 12 12 12 12 12 11 10 10 10 11 12 13 14 15 16 17 18 19 20 23 25 26 28 30 28 22 23

GFSNGP_850_spd_081.txt.gz
Wind_Speed
3 4 4 4 8 15 14 13 8 4 6 8 7 8 15 24 24 23 22 20 20 18 16 15 14 12 10 9 8 8 8 8 8 8 8 9 9 10 10 10 10 11 10 9
3 1 2 2 6 12 17 12 9 6 7 6 7 11 13 22 25 26 25 23 20 18 17 16 14 12 12 10 9 9 9 8 7 7 8 9 9 9 8 8 7 7 6 6
3 1 1 5 10 11 8 6 12 10 11 3 3 7 18 22 26 28 26 23 22 20 18 17 15 14 12 11 11 10 9 8 8 8 9 8 8 8 8 8 7 7 7 8
2 1 1 5 2 7 12 6 9 4 5 5 8 17 22 24 25 24 23 22 21 19 18 17 17 16 15 13 12 11 10 9 9 9 8 8 8 8 8 8 8 10 11 11
3 3 5 2 2 4 6 7 11 12 7 3 3 11 8 16 16 16 21 19 19 18 17 17 18 16 15 14 13 12 11 9 9 9 9 9 9 10 10 11 12 13 13 12
1 2 4 2 2 5 4 4 2 10 8 6 6 4 3 12 12 11 14 16 16 17 18 18 17 16 15 14 14 13 12 9 9 9 9 10 11 12 13 13 13 13 13 11
2 1 6 5 3 5 2 4 2 8 14 12 4 4 4 7 11 13 13 13 14 15 16 15 16 16 16 15 14 12 12 10 10 9 9 11 13 14 15 14 13 12 10 8
2 2 6 3 1 4 4 1 2 3 8 13 9 4 4 5 6 7 8 11 12 13 14 15 15 15 15 15 13 13 12 11 11 11 12 15 16 17 16 14 12 10 8 5
6 5 4 6 3 5 3 3 3 5 4 5 7 5 5 5 7 8 9 10 11 12 13 14 15 15 16 15 15 14 13 12 13 13 15 17 18 17 16 14 11 8 6 4
1 2 4 5 5 2 2 1 2 3 6 4 2 2 2 4 7 9 11 12 12 13 14 14 15 16 16 16 15 15 15 15 15 16 19 19 18 17 14 12 10 8 5 4
3 5 5 5 9 6 4 4 5 5 4 4 6 7 8 10 8 8 10 12 13 13 12 13 15 16 17 17 17 17 16 17 18 20 21 19 17 15 13 11 9 7 6 5
4 4 3 5 9 8 7 6 5 3 2 2 3 6 8 9 10 10 10 11 13 13 13 13 15 16 17 18 19 19 19 20 21 23 21 20 18 17 15 13 11 9 8 7
4 5 4 1 6 9 8 6 3 2 2 3 4 6 7 8 8 10 10 11 13 12 12 12 13 15 17 17 20 21 21 21 22 23 22 21 19 17 15 13 11 10 10 9
6 6 4 8 4 9 7 5 4 3 4 6 7 8 9 9 9 9 9 8 10 12 13 13 13 14 12 14 19 22 22 20 23 23 22 20 19 16 16 15 13 12 11 11
6 11 5 5 9 9 8 6 5 6 7 7 7 8 9 10 9 9 9 9 10 12 14 14 14 13 12 14 19 21 21 24 24 23 21 19 18 18 18 17 16 14 14 13
11 10 7 7 8 7 6 6 6 6 7 8 9 10 11 11 11 11 12 13 14 14 13 15 15 12 13 14 18 21 23 22 23 23 23 23 22 22 21 20 19 18 17 14
9 6 7 7 7 6 6 6 7 9 11 12 13 15 16 17 16 14 13 13 14 15 14 15 14 13 14 15 18 21 25 26 26 25 25 25 24 24 22 21 21 20 18 16
4 3 4 5 6 5 6 8 10 11 12 13 14 16 18 18 17 16 16 15 16 17 17 16 15 15 16 18 19 22 24 26 28 28 27 27 27 26 25 24 23 22 20 19
2 2 2 2 3 5 6 7 9 11 12 13 15 16 17 17 17 18 16 16 18 20 18 17 16 16 18 19 21 23 26 29 30 31 30 28 29 29 28 27 26 24 22 22
3 2 1 2 2 3 3 5 6 8 10 12 13 14 14 14 16 18 18 19 18 19 20 18 16 18 20 20 22 24 27 30 33 33 33 32 32 32 31 29 28 26 25 24
5 6 5 5 4 5 6 7 8 9 10 11 12 12 13 13 13 14 16 16 13 15 18 20 21 19 22 23 22 26 28 30 33 36 37 37 37 36 34 32 29 29 27 26
3 3 2 5 8 8 9 9 11 11 11 11 11 12 12 12 12 11 12 15 16 17 18 19 20 21 22 24 25 25 28 31 33 34 37 39 40 39 38 36 37 34 29 27
1 3 4 5 7 8 9 10 11 12 11 11 12 12 13 13 14 14 12 10 13 15 17 18 18 19 20 23 26 26 27 29 32 35 37 38 38 38 38 39 40 39 36 29
3 4 6 7 9 9 10 10 11 11 11 12 13 14 14 14 10 10 14 14 14 14 14 15 15 18 18 22 24 26 27 29 29 30 31 32 33 34 34 34 35 37 39 38
6 7 8 9 10 11 11 12 12 12 11 11 12 12 13 15 16 15 15 15 15 14 14 13 14 14 16 19 22 24 25 25 26 26 27 28 29 29 30 30 30 31 35 38
10 10 10 11 11 12 13 14 13 13 13 13 12 13 12 13 13 14 15 15 15 15 15 14 14 13 14 15 17 19 20 20 21 22 23 24 24 25 26 26 26 27 30 32
13 12 10 11 13 14 15 15 14 13 14 16 16 14 15 16 16 16 16 16 16 15 15 15 14 14 14 14 14 15 16 16 17 18 19 20 21 22 22 23 24 24 26 28

GFSNGP_850_spd_084.txt.gz
Wind_Speed
2 1 2 2 5 10 9 8 8 2 9 11 8 7 9 14 20 23 23 23 21 19 17 15 13 11 10 9 8 7 7 7 8 9 9 9 10 10 10 11 11 11 10 11
1 3 2 3 7 10 13 10 7 11 12 6 12 6 6 15 21 25 25 24 22 19 17 17 15 12 11 11 10 9 8 8 8 9 9 9 10 10 10 9 10 10 10 10
2 0 0 5 7 12 7 5 12 9 14 5 2 5 13 18 24 27 26 24 22 21 19 17 16 14 13 12 12 11 10 9 10 10 11 11 10 10 11 10 10 9 8 8
2 1 1 4 1 5 10 4 11 8 4 5 6 9 14 19 25 26 25 23 22 20 18 17 17 16 15 14 13 12 12 11 11 11 11 10 9 9 9 10 9 9 9 10
2 1 6 2 1 3 5 5 11 14 14 6 4 3 9 17 21 21 19 19 19 18 17 17 18 17 16 15 14 13 13 13 12 11 11 10 10 10 10 10 10 12 12 12
1 2 3 2 3 3 3 4 2 7 9 7 6 2 4 13 17 15 14 15 16 17 18 18 18 18 17 16 15 14 13 12 12 11 11 10 10 11 12 12 13 13 14 14
3 2 6 5 3 5 3 4 7 6 9 9 5 6 1 8 10 10 10 10 12 14 15 15 16 16 17 16 15 13 14 13 13 12 10 10 11 13 15 15 15 15 14 12
3 1 6 3 2 3 4 3 4 5 2 11 8 3 1 3 3 4 5 7 8 10 12 14 14 14 15 16 14 14 14 14 14 12 12 12 14 16 17 17 16 15 12 9
6 5 5 4 5 4 4 0 1 4 4 5 3 2 1 1 2 3 5 6 8 9 11 12 12 14 15 14 15 14 15 14 13 13 12 13 16 18 20 18 16 13 10 8
1 2 4 7 7 5 3 2 1 3 6 7 7 5 3 3 4 4 5 7 8 10 10 11 12 14 14 14 15 15 16 15 14 14 14 16 18 19 17 17 15 12 9 7
3 6 7 10 8 6 4 3 3 4 4 3 1 2 4 5 9 11 8 8 10 10 10 10 12 14 14 15 16 17 17 16 16 15 16 18 20 18 17 14 12 10 9 8
4 3 3 5 4 7 5 5 4 2 2 1 1 3 5 6 8 9 10 9 11 12 12 11 12 13 15 16 17 18 19 19 18 18 18 21 20 20 18 17 15 12 11 9
4 7 6 5 1 5 6 6 3 2 1 2 3 5 6 7 7 9 9 10 11 11 11 13 12 13 13 15 17 20 21 21 20 21 21 23 22 21 18 17 15 13 11 10
12 6 4 5 1 5 5 5 3 1 2 3 5 7 8 9 9 9 8 8 9 11 12 13 14 13 12 14 15 16 20 20 20 21 23 23 21 19 18 18 15 14 13 12
11 8 6 3 5 6 6 5 3 3 3 4 5 6 8 10 10 10 10 10 11 12 12 12 13 12 12 13 13 14 18 21 21 21 22 23 21 20 20 19 19 17 16 15
7 7 7 4 5 5 4 4 5 5 6 7 7 9 10 13 15 14 13 13 13 13 12 13 13 11 13 14 13 13 16 19 20 22 23 25 24 24 23 23 21 20 20 17
3 3 4 4 3 3 3 4 5 7 9 11 13 13 14 15 17 17 16 16 16 15 14 15 13 12 13 14 15 14 16 19 23 24 26 27 26 26 25 24 23 23 21 18
4 3 3 3 3 4 4 6 9 10 12 13 13 14 15 15 17 20 17 14 16 17 16 15 13 14 15 15 17 18 18 20 24 27 27 28 27 27 27 27 27 26 23 21
2 1 1 1 2 4 5 6 7 8 9 11 12 14 14 14 15 15 16 16 15 16 14 15 14 15 16 16 17 19 21 22 26 28 28 29 29 30 29 29 29 28 25 24
2 2 2 2 3 2 2 3 5 7 9 11 12 12 12 12 13 13 14 15 15 16 16 15 15 16 16 18 19 21 22 24 25 29 32 32 32 33 32 31 31 31 29 28
4 6 5 4 5 5 6 6 7 9 10 11 12 13 13 13 13 14 14 13 12 15 16 16 15 16 18 20 21 23 24 26 27 30 33 34 35 37 36 36 35 34 32 31
2 1 0 2 5 8 7 8 9 10 11 11 12 12 13 13 13 12 12 12 13 14 15 16 18 18 20 21 24 25 26 27 28 29 31 33 36 36 37 38 39 37 36 33
1 2 4 5 7 8 8 10 11 12 12 12 13 13 14 14 16 16 13 13 15 15 15 16 16 17 18 20 22 24 25 26 27 29 31 33 35 36 36 36 35 36 36 38
4 4 5 6 8 9 10 11 12 13 13 13 14 15 16 16 11 12 15 16 16 16 16 16 16 16 16 18 20 22 24 25 26 28 29 30 31 31 32 33 33 33 33 33
7 8 9 9 9 10 12 13 13 14 13 13 14 14 14 16 17 17 17 17 17 18 17 16 16 16 16 15 16 19 21 23 24 25 26 27 28 29 29 29 29 30 30 31
10 10 11 11 10 11 13 15 15 15 15 15 13 15 14 15 16 18 18 18 18 18 19 18 17 17 16 16 16 16 17 19 20 21 22 24 24 25 25 26 26 26 27 27
12 11 12 10 9 11 14 16 15 14 15 17 17 17 17 17 18 19 18 19 19 19 19 19 19 19 18 18 17 17 17 17 17 18 19 20 21 21 21 22 22 22 23 23

GFSNGP_850_spd_087.txt.gz
Wind_Speed
3 1 3 1 3 7 6 5 6 6 8 12 6 7 10 8 9 17 21 22 22 21 20 17 16 16 16 14 12 10 8 7 7 7 8 9 11 11 11 11 11 11 11 11
3 2 2 2 5 7 9 5 4 3 9 5 13 9 9 6 11 19 22 23 22 21 20 20 18 17 16 14 12 11 10 8 8 8 9 9 9 10 11 11 11 11 12 11
2 2 2 5 5 7 4 4 7 8 8 5 3 4 10 9 15 20 23 24 23 23 22 19 17 16 15 13 13 12 12 10 10 10 10 10 11 11 12 12 11 11 9 9
1 2 1 3 1 3 7 3 8 6 4 5 7 11 11 11 12 18 21 23 23 21 21 19 17 17 16 16 14 14 13 13 12 11 11 11 10 9 9 10 11 11 10 9
2 2 5 2 1 2 2 4 4 11 11 9 7 5 11 12 13 14 18 19 20 18 18 17 18 18 19 17 16 15 14 13 13 12 11 11 10 9 9 10 11 11 10 10
1 1 2 2 2 2 2 3 2 4 7 6 9 4 4 7 7 12 13 14 15 16 17 19 20 20 20 19 17 15 14 14 14 13 12 11 9 10 10 11 11 12 12 13
3 1 5 5 4 4 2 3 7 6 7 7 4 5 3 2 4 9 9 9 10 12 15 16 18 19 19 18 17 13 15 15 15 13 13 11 9 11 13 13 13 14 15 15
2 1 5 3 1 1 4 4 4 7 4 5 3 3 3 4 3 4 5 6 8 9 11 13 15 16 16 16 13 15 15 15 14 13 13 13 12 13 15 16 16 16 16 14
6 5 4 4 6 3 5 4 3 6 5 4 3 2 3 3 2 0 1 3 4 6 9 11 12 13 14 13 15 16 16 15 14 14 14 13 14 16 18 18 18 18 16 14
1 1 4 5 6 6 3 2 3 2 5 7 7 8 7 5 6 6 4 3 5 6 8 9 10 11 13 14 15 15 15 15 15 15 14 14 15 16 19 20 20 19 17 14
3 5 8 5 6 4 4 3 3 3 3 3 3 3 2 3 4 5 8 8 5 7 7 8 10 10 12 14 15 16 17 16 16 15 15 15 16 17 19 18 17 15 13 13
3 3 3 5 8 5 4 5 5 4 3 3 2 3 3 3 4 5 6 8 9 9 10 10 11 10 11 13 15 16 18 18 18 16 17 16 17 20 22 20 19 18 17 14
3 11 9 8 4 3 4 6 5 4 3 2 3 3 4 5 6 6 7 7 7 8 10 12 12 12 10 12 14 17 18 19 18 18 18 18 20 23 23 23 22 20 17 15
15 9 6 4 1 2 4 5 4 3 1 2 3 3 4 5 7 9 9 9 9 9 10 11 13 12 11 12 12 14 17 20 20 20 19 19 22 24 23 23 21 18 17 15
8 5 6 2 3 4 5 4 3 1 1 2 3 3 4 6 8 10 11 12 12 12 10 10 11 12 12 13 13 13 14 16 18 20 19 20 22 25 24 24 23 20 19 19
9 4 5 4 4 4 4 3 2 2 4 5 7 8 11 13 13 13 14 15 15 13 12 13 13 10 12 14 13 14 13 13 16 19 20 23 24 27 27 26 25 23 23 20
4 2 3 4 4 3 2 1 3 5 7 9 11 12 13 13 13 13 13 15 16 15 14 14 13 13 13 13 14 14 14 13 14 18 22 24 25 28 28 27 26 26 24 21
3 2 2 4 5 4 2 3 5 6 7 8 9 11 12 12 13 13 14 14 15 13 12 13 13 12 13 14 14 15 16 15 17 20 21 24 26 28 29 29 28 28 26 24
2 2 2 3 3 2 1 1 2 4 5 7 9 10 11 12 12 13 13 12 13 14 11 10 11 13 15 14 15 16 17 18 19 21 23 24 27 28 30 31 30 30 28 27
1 2 3 4 5 4 3 3 4 6 8 9 10 10 10 11 12 12 12 11 10 12 14 13 12 12 15 15 16 19 20 21 22 22 24 27 29 31 32 32 32 32 31 31
1 3 5 6 6 7 6 5 5 6 7 9 11 11 12 12 13 13 12 10 9 11 13 13 14 14 15 16 18 20 21 23 25 26 26 28 29 31 33 35 35 35 35 34
0 1 1 3 5 4 5 6 7 8 9 9 10 11 12 12 12 11 11 11 13 14 14 13 14 14 15 16 19 20 22 23 25 26 28 29 30 31 32 33 34 34 35 35
1 1 3 3 3 4 5 6 8 9 10 11 11 11 12 12 14 14 13 13 14 15 15 15 15 15 15 15 16 18 20 22 24 26 27 28 28 29 30 30 31 31 31 31
4 1 4 5 6 7 8 8 9 10 11 11 12 12 13 13 10 12 15 16 16 16 16 17 17 16 16 16 15 15 17 19 21 22 23 24 26 27 27 28 29 30 30 30
8 7 6 8 9 9 9 9 10 12 12 11 12 12 13 15 16 16 17 16 16 17 17 17 17 17 16 16 16 16 16 16 18 19 21 23 24 25 26 27 27 28 28 29
11 11 10 10 9 9 9 10 12 13 13 12 12 13 13 14 15 16 16 17 17 18 18 18 18 18 18 17 17 17 17 17 16 17 18 20 21 22 23 24 25 25 25 26
13 13 13 12 10 9 10 12 13 12 13 14 14 14 15 14 15 17 17 18 18 19 19 19 19 19 19 20 19 18 18 18 18 17 17 18 19 20 21 21 21 22 22 22

GFSNGP_850_spd_090.txt.gz
Wind_Speed
4 4 3 5 10 11 6 4 5 5 10 14 8 5 9 7 3 8 11 14 15 17 18 18 16 15 15 14 14 13 12 11 10 10 10 11 12 13 14 14 14 14 14 14
2 3 3 3 6 12 12 10 11 7 14 6 12 13 8 6 5 11 13 15 15 18 18 17 17 16 15 15 15 14 13 12 11 11 10 11 12 12 14 14 15 15 14 14
2 3 4 2 2 8 5 5 9 10 10 4 6 2 4 8 7 11 15 17 19 20 19 17 16 16 16 16 15 15 14 14 13 12 12 12 13 14 15 16 15 15 14 14
1 0 2 4 2 2 7 6 11 10 9 9 7 8 8 8 7 10 15 18 19 19 18 17 16 16 16 17 16 16 15 15 14 14 14 14 14 15 16 14 14 15 14 12
1 2 2 3 2 1 1 3 1 7 8 12 13 11 15 11 12 10 12 15 17 18 16 16 16 17 18 19 18 17 17 15 15 15 15 15 15 14 14 14 13 13 12 11
1 2 0 3 2 1 2 3 2 4 7 7 5 5 3 6 8 8 11 13 15 15 16 17 18 19 20 21 20 19 17 16 16 16 16 16 15 14 12 13 12 11 11 11
2 1 2 1 1 4 3 3 4 4 7 1 3 3 5 4 1 4 8 11 12 13 15 17 19 20 22 22 21 17 17 17 18 18 17 17 15 14 12 12 12 12 13 14
2 2 3 2 1 2 2 4 3 4 2 2 1 1 2 4 4 4 4 5 7 7 10 13 16 17 20 20 17 17 18 18 18 18 17 16 16 15 14 14 15 15 16 16
3 0 2 3 6 3 3 4 3 2 4 3 2 1 3 4 4 4 2 1 2 4 6 9 11 13 15 14 16 18 18 19 19 18 17 16 16 16 17 17 18 17 19 18
2 2 3 3 4 5 4 2 1 3 5 5 6 6 5 5 4 6 7 5 2 3 5 7 8 10 12 14 15 17 18 19 18 18 17 17 16 17 18 19 20 21 21 19
3 1 3 5 5 3 3 2 2 3 4 3 3 3 2 2 3 4 3 3 4 4 5 7 9 10 12 13 15 17 18 18 19 18 18 17 17 17 17 19 20 21 20 19
2 4 5 6 10 3 3 5 5 3 4 4 3 3 3 4 4 5 5 6 8 8 10 10 11 12 12 13 13 15 17 19 19 18 19 18 18 17 18 19 20 21 20 19
4 12 11 11 5 1 5 5 5 2 2 1 2 2 2 3 4 5 6 6 7 8 9 11 12 13 13 13 13 14 16 18 19 20 21 20 19 19 20 22 24 24 23 21
11 10 7 4 3 3 5 7 6 6 4 2 0 1 1 2 3 5 7 8 9 9 9 10 12 12 13 15 14 14 15 16 19 21 21 21 20 20 20 24 26 26 24 21
8 7 8 7 4 5 7 7 6 4 2 1 2 3 4 5 7 9 9 10 11 12 11 11 12 10 11 13 15 15 16 16 16 17 20 20 20 21 22 25 26 25 23 23
14 8 6 7 6 6 6 6 5 3 2 4 5 7 9 11 13 13 13 13 12 13 13 13 13 11 13 13 15 16 16 15 16 16 16 20 22 23 24 27 28 29 27 25
11 5 4 5 7 7 7 6 4 4 4 6 8 10 10 10 11 11 11 11 12 15 16 14 14 13 14 14 15 15 15 15 16 16 17 20 23 24 25 28 31 31 29 26
7 6 6 6 7 7 5 4 3 4 4 5 6 6 7 8 10 11 11 11 11 12 13 13 13 13 14 14 15 15 15 16 16 19 17 19 22 24 26 27 31 32 30 29
5 4 4 5 7 6 5 3 2 1 2 4 6 7 8 9 10 10 10 9 9 9 9 11 12 11 12 13 15 16 17 17 18 19 21 20 22 25 27 29 30 32 32 31
3 3 4 4 5 4 3 2 2 3 4 5 6 7 7 8 9 9 9 8 8 10 10 10 10 11 12 13 14 16 18 20 21 22 22 23 25 26 28 29 30 31 33 34
2 3 4 7 6 5 4 3 3 4 5 6 7 8 8 9 10 10 9 7 8 10 11 10 11 11 12 14 16 17 19 20 22 23 24 25 26 27 28 28 30 32 34 35
2 2 1 4 5 6 2 3 4 4 5 6 7 8 9 9 9 9 9 9 11 12 11 11 11 12 13 13 13 15 18 20 21 23 24 25 26 27 28 29 29 29 30 32
3 5 5 3 2 2 1 3 5 6 7 8 9 9 10 11 12 11 10 12 13 13 14 13 13 14 14 14 14 14 15 16 19 21 23 24 25 26 27 27 28 29 29 29
6 5 5 3 4 5 6 6 7 8 9 10 10 11 11 10 10 12 13 15 16 15 15 15 15 16 16 15 15 15 15 16 16 17 19 22 24 25 25 26 27 28 29 29
10 9 9 7 8 8 7 7 8 9 11 11 11 12 12 14 14 14 15 15 16 17 17 17 17 17 17 17 17 17 17 17 17 18 18 19 20 22 23 25 26 27 28 29
12 13 12 11 10 10 10 8 9 11 11 10 10 12 13 14 15 15 16 17 17 18 18 19 18 19 19 19 19 19 19 19 19 19 19 19 20 21 21 22 23 24 25 26
15 14 14 14 12 11 10 11 11 11 11 10 10 11 11 12 14 16 17 17 18 20 21 21 21 21 21 21 21 21 20 20 21 21 21 21 21 21 21 22 22 22 23 24

GFSNGP_850_spd_093.txt.gz
Wind_Speed
4 5 5 8 12 12 5 5 3 5 6 5 3 1 3 4 2 3 6 9 11 13 14 14 14 14 14 14 14 13 13 13 12 11 11 11 11 11 12 14 15 16 16 17
2 3 1 3 5 10 8 10 12 12 16 10 10 12 12 7 3 3 8 9 11 11 12 12 13 13 13 13 12 12 13 13 12 11 11 11 11 12 12 13 15 15 16 17
3 2 3 2 6 8 7 6 10 11 9 8 6 6 3 3 3 3 7 11 13 13 13 12 12 12 12 12 13 13 13 13 12 12 12 12 13 13 14 15 17 18 17 16
1 3 4 4 2 1 8 5 8 11 10 11 12 9 7 7 5 4 4 11 13 14 13 12 12 13 13 13 13 13 13 13 13 13 14 14 15 15 15 16 16 17 16 16
2 2 5 4 4 1 3 3 1 5 6 8 7 9 15 11 6 6 5 9 13 13 12 12 14 14 15 15 15 15 15 14 14 15 15 16 16 15 16 16 15 14 14 14
1 2 1 6 3 0 2 4 0 4 7 9 4 4 5 6 4 4 5 5 9 11 11 12 14 15 17 17 17 16 16 16 16 16 17 17 17 17 17 15 13 12 13 12
3 2 2 4 3 3 4 3 3 5 8 5 3 5 6 5 3 1 4 9 12 12 12 13 15 17 18 18 18 17 16 17 17 17 17 18 17 17 17 15 13 12 13 12
2 2 2 3 3 4 5 3 3 4 4 3 3 3 4 5 4 3 3 4 7 9 11 14 15 16 18 18 18 16 17 17 18 18 18 18 17 16 15 15 15 13 13 13
3 3 3 1 4 4 4 5 3 4 4 2 1 3 2 4 4 5 5 3 1 3 5 8 10 12 14 14 14 14 16 17 18 18 19 18 17 16 16 16 16 16 15 15
3 4 3 3 3 3 2 2 1 2 2 3 5 4 4 4 5 5 5 4 2 1 3 5 6 7 9 11 12 13 15 17 19 19 18 17 17 17 17 18 18 18 18 18
6 1 3 5 8 5 1 1 1 2 3 4 2 3 3 3 4 4 4 4 3 2 2 5 6 7 9 10 12 13 15 17 19 18 18 18 18 17 17 18 18 19 20 19
1 8 7 6 11 8 2 2 3 3 2 4 4 3 3 3 3 4 5 6 6 5 6 8 9 12 13 12 13 14 15 17 18 18 19 19 19 19 18 18 17 19 20 21
6 14 12 12 9 6 2 4 5 6 4 2 2 1 0 1 2 2 3 5 6 7 8 9 11 12 13 14 14 15 15 16 16 16 19 20 20 20 20 18 19 21 23 22
7 12 4 5 4 6 5 6 6 5 5 4 2 1 1 1 2 4 6 7 7 8 9 10 11 12 12 14 15 16 15 16 17 17 18 20 21 21 20 19 20 21 24 25
8 9 11 11 9 7 6 6 6 5 4 3 3 4 5 7 9 11 12 13 13 12 11 11 12 12 13 13 14 15 16 17 17 17 18 18 18 20 20 20 20 21 22 24
16 13 9 7 6 7 6 6 5 5 5 5 6 7 9 11 13 14 14 14 13 13 13 14 14 15 14 15 15 14 14 16 17 18 17 17 17 18 20 21 22 22 24 24
13 7 7 6 5 5 6 7 7 6 5 6 8 9 9 9 10 11 12 12 12 13 13 14 17 16 14 14 15 16 16 15 16 17 18 17 17 18 20 21 23 24 26 26
11 11 9 9 8 7 6 6 6 6 6 6 6 6 7 8 9 10 11 11 11 11 12 13 14 14 14 13 14 15 16 16 16 18 19 18 17 18 19 21 23 25 26 29
8 9 9 8 8 9 8 6 5 4 4 4 7 8 9 9 10 11 11 12 10 9 9 11 11 11 12 12 13 14 16 16 17 17 19 20 20 21 21 22 23 25 26 27
8 6 7 7 6 5 4 3 1 4 5 5 6 6 7 8 8 9 10 10 10 11 12 12 12 11 12 12 13 14 15 17 18 19 20 22 23 24 24 24 24 25 26 28
6 7 6 7 5 4 2 1 2 3 6 7 6 7 7 8 9 10 10 9 9 12 12 12 12 13 13 14 14 15 17 19 20 21 23 24 24 25 25 25 26 26 26 27
6 6 6 5 5 6 7 1 4 5 6 8 8 8 9 10 10 10 10 9 12 14 14 14 14 15 15 15 15 15 15 16 18 20 22 23 24 25 25 26 27 27 27 27
5 6 8 8 6 4 4 6 5 6 9 10 10 11 11 12 12 12 10 13 15 15 16 16 16 17 17 17 16 16 16 17 17 17 18 20 22 24 25 26 27 26 27 27
8 8 8 9 10 8 6 8 9 9 10 11 12 12 12 12 12 12 13 15 16 17 17 17 17 17 18 19 19 19 19 19 18 19 19 20 20 20 22 24 25 26 27 27
11 11 12 13 12 11 8 10 11 10 11 12 12 12 12 13 13 14 15 16 16 17 18 18 19 20 20 19 20 20 21 21 21 21 21 21 22 22 22 23 23 23 24 25
12 14 14 14 15 14 13 12 12 12 12 13 12 12 12 12 13 14 15 17 18 19 20 21 22 22 23 23 23 23 23 23 23 23 24 24 24 23 24 24 24 24 24 24
14 15 16 17 17 16 15 14 14 14 14 13 12 11 11 12 14 15 17 19 20 21 23 23 24 24 24 24 24 24 24 25 25 25 26 26 26 26 26 25 25 25 25 25

GFSNGP_850_spd_096.txt.gz
Wind_Speed
3 3 4 4 7 12 5 4 2 3 3 4 5 3 6 5 5 6 9 10 12 13 14 15 16 15 15 15 16 16 15 15 15 14 12 11 10 10 10 11 12 14 15 16
3 2 3 3 7 7 4 6 6 5 3 4 10 9 8 5 7 4 8 10 12 14 15 17 17 17 16 14 14 14 14 13 12 11 10 10 9 9 9 10 12 14 15 16
1 1 2 2 4 6 2 3 2 4 2 5 6 7 2 7 4 2 5 11 13 15 15 15 15 16 14 13 12 13 13 12 11 10 10 10 10 11 11 11 12 13 15 17
1 2 1 2 5 5 3 3 2 5 5 6 7 11 9 4 6 4 3 10 13 15 16 14 13 13 12 12 11 11 11 11 11 11 11 12 12 12 13 14 14 14 15 17
1 2 3 2 2 1 0 1 3 3 5 8 7 7 7 5 7 7 4 2 12 14 15 16 15 13 12 11 11 12 13 12 12 11 12 12 13 14 14 15 16 17 16 14
2 1 1 2 2 4 3 1 4 4 5 6 5 2 2 9 4 4 4 5 10 11 13 13 13 13 13 13 12 12 13 13 13 13 13 14 15 15 15 16 17 17 15 12
3 1 2 3 3 0 1 2 4 5 5 6 3 3 2 4 4 3 3 9 12 14 13 12 12 14 15 14 13 13 12 14 15 14 15 15 16 16 17 17 17 16 14 12
1 0 1 3 2 2 2 2 4 6 5 5 6 5 7 8 7 5 4 3 9 13 15 16 16 15 14 14 15 15 14 15 15 15 15 16 16 17 18 17 16 15 15 14
2 0 2 2 1 2 3 4 3 4 4 4 3 5 6 7 8 8 7 6 4 2 4 6 8 10 12 13 13 13 14 14 15 15 16 17 17 16 16 16 16 15 15 15
2 3 5 8 5 5 3 2 0 3 5 4 6 5 5 4 5 5 6 6 5 3 2 1 2 4 7 7 8 9 11 12 14 15 17 17 16 16 16 16 16 16 17 17
0 8 7 12 10 7 3 2 1 1 2 1 2 5 3 4 5 5 5 5 4 3 3 3 2 3 5 6 7 8 11 13 14 15 17 16 16 16 16 17 16 16 17 17
1 8 8 5 12 8 3 1 3 2 3 5 4 4 1 2 2 3 4 4 4 4 3 5 7 8 9 9 10 12 13 14 15 14 16 16 16 17 17 18 18 18 16 17
5 10 11 11 7 7 2 4 5 7 4 2 2 1 1 1 1 2 2 4 5 6 6 6 8 10 10 11 13 14 14 14 16 16 15 16 16 18 19 17 18 18 17 17
2 10 3 6 9 11 6 5 5 6 5 5 5 5 2 2 3 5 7 8 9 9 10 10 9 9 11 12 13 14 14 15 16 16 16 16 16 17 18 18 19 19 17 18
6 7 9 13 11 10 6 4 4 4 3 3 3 3 4 6 7 9 12 13 12 12 12 12 12 13 14 13 13 13 13 14 15 16 17 17 17 17 17 17 19 19 17 17
15 13 5 5 7 9 6 5 5 5 5 5 5 5 7 9 10 10 11 11 11 11 11 11 13 14 16 16 15 14 14 14 15 15 16 17 17 16 17 17 17 19 19 18
9 8 13 10 4 5 6 7 7 7 7 6 6 7 8 8 7 8 9 10 11 11 11 12 13 14 15 14 13 13 14 14 14 16 16 16 16 16 15 16 17 18 19 19
8 8 7 10 12 5 7 6 6 7 6 6 5 5 6 8 9 11 11 11 10 9 10 11 13 13 12 11 12 12 13 13 14 15 16 17 17 17 17 17 17 18 19 19
7 7 6 7 8 6 7 7 5 2 3 4 5 6 7 8 9 10 11 12 11 9 9 12 12 12 11 11 12 12 13 13 14 14 16 17 18 18 18 19 19 19 19 20
5 6 5 5 4 5 5 5 5 4 1 5 5 5 6 8 9 10 11 11 10 10 13 14 13 13 13 13 14 13 14 14 15 16 17 18 19 20 21 22 22 23 22 22
4 4 4 5 5 4 4 2 2 2 4 6 8 9 9 10 10 11 11 10 10 12 13 14 14 14 14 15 14 15 15 15 15 16 18 19 20 21 22 22 23 23 23 24
3 3 4 4 4 4 6 7 7 3 4 4 4 9 12 11 11 11 12 10 10 14 14 14 15 15 16 16 16 16 16 16 16 16 17 17 18 20 21 21 22 23 24 24
4 3 4 3 3 4 4 2 2 3 6 8 9 10 12 12 12 12 11 12 14 15 15 16 16 17 17 17 17 17 17 18 18 18 18 18 18 19 20 21 21 22 24 25
7 7 6 6 6 5 5 7 4 6 8 8 10 12 11 11 10 11 11 12 13 15 15 16 17 17 18 19 19 19 19 19 19 19 20 20 20 20 20 21 21 22 23 21
12 9 9 11 11 8 8 7 8 8 9 9 10 10 10 10 10 10 10 12 13 15 16 16 18 19 20 20 20 20 20 20 20 21 22 23 23 23 23 22 23 22 22 22
12 11 11 12 13 12 12 13 12 11 12 11 12 12 11 10 10 10 12 14 16 17 19 20 21 22 23 23 22 22 22 22 21 21 21 22 23 25 25 24 24 24 23 23
8 10 11 13 12 12 14 14 14 13 13 14 13 13 13 13 13 14 15 17 18 20 22 23 24 24 24 24 23 22 22 21 21 22 22 22 22 23 24 25 26 26 25 25

GFSNGP_850_spd_099.txt.gz
Wind_Speed
5 4 4 4 5 7 4 3 3 2 5 1 1 3 1 4 7 6 6 8 12 15 16 16 17 17 17 16 17 19 19 19 19 18 16 15 15 14 12 12 12 12 12 13
3 2 3 2 6 6 3 2 2 5 2 3 5 8 10 5 6 8 9 8 11 13 15 16 15 15 14 14 16 17 17 17 16 14 13 12 12 12 12 12 11 11 11 12
3 3 4 3 1 5 3 1 2 3 3 3 4 5 6 7 5 2 9 12 13 15 15 14 14 13 13 14 15 15 15 14 13 12 12 12 12 12 11 11 12 13 14 15
2 2 0 3 2 3 4 2 2 2 1 1 2 3 5 2 2 3 0 11 13 15 15 13 14 14 12 13 13 14 13 13 13 12 11 11 11 12 13 13 14 14 16 17
1 1 1 1 1 2 2 2 2 3 4 6 5 1 4 6 1 3 4 4 13 12 15 14 13 13 14 14 13 13 13 13 12 11 12 12 11 12 13 14 15 17 17 18
3 1 1 2 1 2 2 1 2 5 3 5 5 2 3 8 4 4 6 5 10 14 14 16 15 14 14 13 13 13 12 11 11 12 12 11 12 13 14 15 16 17 18 18
1 1 3 0 1 1 4 3 2 5 3 4 2 2 2 5 3 3 3 5 8 16 16 14 13 14 14 14 13 11 12 12 13 13 13 13 13 15 16 17 17 17 17 15
1 2 2 1 2 2 2 4 5 4 3 6 6 4 4 5 6 5 4 4 8 14 16 15 14 12 12 14 13 13 12 13 14 13 13 14 15 16 17 18 18 17 15 15
4 3 2 4 4 4 3 2 2 2 3 4 4 5 5 7 8 8 7 5 5 7 10 11 12 14 14 14 14 13 13 13 14 14 13 14 16 17 18 17 16 15 15 15
2 6 5 11 10 8 5 2 1 2 3 5 7 5 4 3 4 4 5 6 6 4 3 4 5 8 9 9 9 10 11 12 13 13 13 14 15 17 17 16 16 15 15 15
2 5 5 12 14 12 6 4 0 2 3 4 4 4 3 4 5 4 4 4 3 2 2 2 1 1 3 5 6 8 10 11 13 11 12 13 14 15 16 16 16 16 15 16
2 2 3 8 15 10 6 2 0 1 3 4 4 4 2 3 3 2 3 3 3 3 3 3 3 4 6 8 9 10 11 12 13 13 13 14 14 14 15 16 16 16 16 18
0 5 7 9 1 7 5 4 4 4 2 3 3 1 1 1 1 2 2 3 4 5 5 6 7 7 7 8 9 11 13 14 16 15 15 14 14 14 14 15 17 18 17 17
2 4 7 2 7 10 7 5 5 6 6 5 4 4 3 5 3 4 6 7 8 10 10 10 10 10 10 11 11 12 12 14 16 16 15 15 16 15 15 16 17 17 17 17
3 5 7 11 9 9 8 5 6 6 6 5 5 3 3 4 6 8 9 10 10 10 10 11 11 11 12 13 14 14 14 14 15 16 16 16 17 17 16 16 17 16 16 16
12 7 5 4 3 4 7 6 7 7 7 6 5 5 6 6 7 8 9 9 8 8 8 9 10 11 12 14 17 17 14 14 14 15 14 16 17 17 17 16 16 16 16 15
10 8 9 8 6 6 4 6 6 8 7 6 5 6 5 4 5 6 8 9 9 8 8 8 9 10 11 12 12 12 11 13 13 13 14 14 16 17 16 16 16 16 15 14
8 9 8 9 10 7 5 8 7 7 7 7 2 3 4 5 5 6 7 8 8 7 7 8 10 10 10 10 10 10 11 12 11 12 13 14 15 16 16 17 17 17 16 16
8 7 7 7 7 6 7 8 8 8 7 5 1 4 4 3 4 5 6 7 6 4 6 8 9 10 10 11 12 12 12 12 11 11 13 14 15 15 16 16 17 18 18 19
6 6 6 6 5 5 7 7 7 6 4 2 2 1 2 4 5 6 8 7 7 7 10 11 11 11 11 11 11 11 13 13 13 13 13 14 15 15 16 18 18 19 20 20
6 6 5 5 6 6 6 6 6 4 4 5 3 1 3 5 9 10 9 8 7 8 10 11 11 11 11 12 12 13 13 13 13 13 14 14 15 16 17 17 18 18 19 20
5 4 5 5 6 7 5 5 5 5 4 5 5 5 6 8 8 9 9 8 6 9 10 10 11 11 11 12 12 13 13 13 14 14 14 14 15 16 16 17 18 19 19 20
5 5 5 5 5 5 6 4 4 3 2 4 5 6 9 10 10 9 8 8 8 9 10 10 11 12 13 14 14 15 15 15 15 16 16 15 15 15 16 17 17 18 19 19
8 7 7 7 8 8 7 5 7 7 5 4 4 7 9 8 8 9 7 6 7 9 10 11 13 14 15 16 16 17 17 17 17 18 18 18 18 19 19 19 20 20 20 20
11 12 10 11 12 12 10 8 10 8 9 8 8 8 9 9 8 7 7 7 9 10 11 13 14 16 17 17 17 17 17 18 18 18 18 19 20 21 22 23 23 22 22 22
10 11 11 11 12 12 12 11 13 11 11 11 10 10 9 10 9 8 9 10 11 13 15 16 18 19 20 20 20 19 18 18 18 18 18 19 19 20 21 21 22 22 23 24
6 6 8 9 10 11 12 13 14 12 12 12 11 10 9 11 11 11 12 13 15 16 17 19 21 22 23 22 21 20 19 18 18 19 19 18 19 19 20 21 21 22 22 23

GFSNGP_850_spd_102.txt.gz
Wind_Speed
3 4 2 2 2 5 2 4 4 0 1 3 3 1 3 3 2 3 2 2 6 12 17 20 22 22 19 18 19 20 20 22 22 21 20 19 17 16 16 15 15 15 14 13
2 3 5 1 3 6 0 3 9 3 5 3 4 6 4 2 2 3 4 2 5 10 14 15 16 18 19 19 19 18 19 20 20 19 17 16 16 14 14 13 13 12 12 14
3 4 2 4 1 5 4 3 5 5 5 2 2 4 5 4 1 4 7 6 8 11 13 14 14 14 14 13 13 15 15 16 16 15 15 14 13 12 12 12 12 13 14 16
2 4 2 2 3 0 5 4 4 3 1 1 3 3 3 2 2 1 2 8 9 9 11 10 10 11 9 11 13 14 14 15 14 14 14 13 13 13 13 13 14 14 16 17
2 1 3 3 4 2 1 3 3 4 2 3 4 1 1 5 3 3 3 3 8 10 9 10 10 9 10 13 13 13 14 14 13 13 13 13 13 12 12 13 14 15 16 18
1 2 1 2 3 4 2 1 1 2 2 2 1 0 3 8 6 5 5 6 6 13 13 11 11 10 12 12 12 13 13 12 13 13 14 13 13 12 13 14 15 17 18 19
0 0 3 2 2 2 3 2 3 2 1 2 1 2 2 5 6 6 5 5 6 12 14 12 11 11 11 11 12 10 11 13 14 14 14 13 13 13 14 15 17 18 19 19
1 2 2 2 2 0 3 2 3 2 2 2 3 2 2 4 5 6 4 1 2 10 14 14 13 12 11 11 9 13 13 14 14 14 14 14 14 14 15 17 19 20 20 18
3 3 2 7 7 5 2 2 1 2 3 4 4 3 3 4 6 7 7 5 3 5 7 10 12 13 13 11 12 13 14 14 14 14 15 15 15 15 17 18 20 20 19 18
2 5 5 12 10 10 6 3 1 1 4 5 6 5 3 1 2 3 4 5 5 4 4 6 8 11 12 13 13 13 14 14 14 15 15 15 15 15 16 18 19 19 18 18
2 1 1 6 15 11 8 3 1 1 3 4 4 5 1 2 3 4 4 3 3 3 3 2 2 3 5 6 8 10 11 12 13 14 14 15 15 15 15 15 17 18 18 18
3 2 0 3 8 11 8 4 2 3 2 4 4 5 5 3 2 2 2 3 2 2 2 1 1 3 5 7 8 9 11 12 13 14 15 15 15 15 14 13 14 15 18 20
2 3 5 8 9 6 10 6 4 4 4 6 7 5 4 3 3 1 1 1 2 3 3 4 5 6 7 8 9 10 12 14 16 17 17 16 16 16 16 15 16 15 16 17
2 4 5 3 5 11 9 7 6 5 6 8 7 7 6 6 7 6 7 7 7 8 8 9 10 11 11 11 11 11 13 14 16 17 18 18 18 17 16 17 17 15 15 16
4 4 6 10 10 10 7 8 7 7 7 8 7 6 6 6 6 8 7 8 8 9 9 9 10 10 11 11 12 12 14 16 16 17 18 18 18 17 16 17 17 17 16 14
7 7 7 8 8 9 9 8 8 9 8 9 9 8 8 10 9 8 8 7 7 7 8 8 8 9 10 11 12 13 15 16 15 16 15 16 16 16 16 16 17 17 17 14
5 4 6 7 8 9 8 8 8 8 10 10 10 9 9 8 8 8 7 8 8 8 8 7 7 8 9 10 11 11 10 10 11 13 14 14 15 15 15 17 17 17 17 14
5 6 7 8 9 9 7 9 9 9 10 10 10 10 8 4 7 7 6 6 6 6 6 7 8 9 9 10 10 10 10 10 10 11 12 13 14 15 16 17 17 17 17 16
4 5 7 8 9 8 9 10 9 10 11 10 10 8 3 3 7 5 5 5 5 4 5 6 7 7 7 8 9 9 11 11 12 11 12 13 13 15 15 16 16 17 17 18
5 5 6 6 6 7 8 8 9 10 10 9 6 2 3 5 3 3 5 6 6 5 7 7 7 8 8 9 10 10 10 10 10 10 12 14 14 15 16 17 18 19 20 20
6 7 7 7 7 5 6 6 7 7 7 8 7 7 9 10 12 9 4 6 7 7 8 9 9 9 9 10 10 11 11 11 12 12 12 13 13 13 15 17 17 17 18 19
7 6 7 7 6 5 5 5 6 7 8 7 6 5 6 5 6 8 8 8 7 7 8 8 8 8 9 10 11 12 13 13 14 14 15 15 15 15 15 15 16 16 16 16
8 8 8 9 8 5 4 4 5 6 6 6 8 9 8 7 8 8 8 7 6 6 6 7 7 9 10 12 13 14 15 15 16 16 17 17 17 17 18 18 18 18 19 19
8 8 10 9 10 10 9 7 9 10 12 10 8 8 8 8 9 9 8 7 6 6 7 8 9 11 13 14 16 17 17 18 18 18 19 19 19 20 21 20 21 21 22 22
11 11 11 11 14 14 12 10 12 12 11 11 10 11 11 11 10 9 8 8 8 8 9 11 12 13 15 17 17 18 18 18 18 19 19 19 20 20 21 21 22 22 22 22
11 11 12 12 14 13 14 14 15 13 14 13 12 12 12 12 12 11 11 11 12 12 13 14 15 16 17 18 19 19 19 19 19 18 18 18 19 19 20 20 20 21 21 21
8 8 8 9 11 11 11 12 14 12 13 14 13 12 12 12 12 13 13 14 14 15 16 17 17 18 19 19 20 19 19 19 19 18 18 18 18 19 20 20 21 21 21 22

GFSNGP_850_spd_105.txt.gz
Wind_Speed
4 4 2 2 1 3 3 3 4 6 3 2 4 5 6 4 4 7 6 3 2 4 7 16 20 21 21 21 20 20 18 17 17 17 17 16 15 15 15 16 15 14 13 12
3 4 4 2 2 3 3 3 5 5 1 2 3 6 11 8 6 7 6 6 3 2 6 9 13 15 15 15 16 16 16 16 16 15 16 16 16 16 15 14 12 11 11 11
3 5 2 6 5 2 1 1 5 2 4 2 3 4 6 7 8 7 7 5 3 1 5 8 9 10 11 13 14 15 15 17 16 17 16 15 14 12 12 11 11 11 11 13
2 3 3 4 4 3 4 4 2 3 2 3 3 3 5 6 6 5 7 5 3 3 4 7 8 10 11 12 12 13 15 13 12 12 12 11 11 11 11 10 10 11 13 15
2 1 2 3 4 2 3 2 4 2 2 4 5 2 1 7 8 6 5 5 4 5 5 6 7 9 10 10 10 11 11 11 10 11 11 10 10 11 10 11 12 13 15 16
1 3 1 2 3 3 1 0 2 2 3 5 6 4 3 9 7 5 5 6 8 6 7 7 7 7 8 8 9 8 9 9 10 11 11 11 11 11 11 12 13 15 17 18
1 1 3 3 4 5 2 3 0 2 1 1 1 2 5 7 8 8 7 5 5 7 9 9 9 8 7 8 6 7 9 10 11 11 10 11 12 13 13 14 15 16 17 19
1 2 1 8 3 2 3 2 1 3 2 1 1 0 2 4 6 8 7 3 4 3 8 8 9 9 8 6 6 8 9 10 11 11 12 13 14 15 15 14 15 18 20 20
3 3 1 7 7 5 5 2 3 4 4 3 1 1 1 3 5 7 7 6 3 4 4 6 7 9 9 9 8 9 10 11 12 13 14 15 15 15 15 14 16 18 20 21
2 2 4 9 7 9 6 4 3 3 4 3 3 2 0 1 2 3 4 5 5 2 2 4 5 7 9 11 11 12 13 13 14 15 15 16 16 15 15 16 16 17 18 18
1 1 2 1 9 9 7 3 3 3 2 2 3 3 1 4 1 1 3 3 3 3 3 2 2 3 5 7 9 10 11 13 14 15 15 15 15 15 15 15 16 16 16 16
3 6 2 2 5 6 9 7 5 5 4 4 4 5 4 5 3 1 1 1 1 1 1 1 2 3 4 6 7 8 9 11 12 13 14 15 15 16 16 16 16 16 15 17
4 5 4 5 6 4 6 8 7 5 5 5 7 6 8 7 5 3 2 3 4 4 4 5 5 6 7 8 9 10 11 12 14 16 16 17 18 19 19 17 16 16 18 17
5 3 4 4 3 7 10 8 8 6 7 8 9 9 9 8 8 8 7 9 10 9 9 10 11 11 12 12 12 13 13 14 15 16 17 18 19 20 21 20 17 17 17 19
6 4 6 6 6 6 6 7 8 8 8 8 10 10 10 10 9 10 10 9 11 11 11 12 12 12 12 12 12 12 13 14 16 17 18 19 19 19 21 21 20 19 16 16
7 6 8 8 8 5 7 7 9 10 9 9 9 9 10 11 10 11 11 8 10 10 11 11 11 12 12 12 12 12 13 14 16 18 18 19 19 19 20 20 19 19 18 16
8 6 4 6 5 6 6 6 7 7 8 10 11 12 12 10 9 8 7 9 11 11 11 9 9 10 11 11 11 12 11 12 12 13 14 15 17 17 18 18 19 19 18 16
7 5 5 6 7 7 5 6 7 8 8 9 11 11 12 12 9 6 8 9 10 9 9 8 8 9 9 10 11 11 12 12 12 12 12 13 15 16 16 17 17 18 18 18
5 4 4 6 8 9 9 8 8 8 9 9 10 12 11 10 8 6 6 9 8 8 8 8 9 9 10 10 10 11 11 11 11 12 13 14 14 14 14 15 16 17 18 18
5 4 5 6 8 8 8 9 8 9 8 9 10 9 8 6 5 6 8 9 8 8 9 9 10 10 11 11 11 11 12 12 12 12 12 12 13 15 17 16 17 18 18 19
6 7 7 7 8 9 8 8 9 8 7 7 6 6 5 7 9 11 13 10 9 10 10 13 12 11 11 11 11 12 12 13 13 14 14 14 14 15 16 16 17 18 18 19
8 9 8 8 9 9 8 8 8 6 6 7 6 6 6 6 7 8 9 10 10 11 11 11 10 10 10 11 12 13 14 15 15 16 16 16 17 17 18 17 17 17 17 18
9 9 9 9 10 9 7 7 7 8 9 9 9 8 9 9 10 10 9 9 10 10 10 10 10 10 12 12 14 15 16 16 17 17 18 18 18 19 19 19 19 18 18 19
8 8 8 9 10 12 12 10 12 12 12 12 12 12 11 10 11 12 11 12 11 11 11 11 12 13 14 15 17 18 18 19 18 19 19 19 19 19 18 19 19 19 19 19
10 10 11 12 13 13 14 14 14 14 13 13 13 13 13 13 13 12 12 12 12 13 13 13 14 16 17 18 20 21 21 20 20 20 20 19 19 19 19 20 20 20 20 20
11 12 12 13 14 14 14 14 17 17 18 18 15 14 14 14 14 15 15 15 15 16 15 16 17 18 19 20 21 22 22 21 21 20 20 19 18 19 19 19 19 19 19 19
11 11 10 10 11 11 13 13 13 12 12 15 15 14 15 15 15 15 15 16 16 17 17 18 19 20 21 22 23 23 23 22 21 20 18 18 19 19 19 19 20 20 20 20

GFSNGP_850_spd_108.txt.gz
Wind_Speed
2 4 2 3 3 4 4 2 3 4 3 2 3 4 7 10 13 15 15 12 10 9 3 6 10 15 17 18 17 15 13 13 13 13 15 16 16 15 13 12 9 9 10 11
4 6 3 4 6 2 4 3 5 3 4 2 6 10 15 15 13 13 12 11 10 8 6 3 7 11 13 14 13 13 12 13 13 13 12 13 14 12 11 10 10 10 10 9
2 4 0 5 5 3 2 3 4 3 1 3 5 7 10 11 11 11 11 7 6 5 3 2 4 7 9 10 11 13 14 13 12 13 13 13 13 13 11 10 9 8 9 8
1 2 3 4 2 3 3 4 4 4 4 5 5 5 7 8 8 7 7 6 5 4 2 3 6 7 9 10 11 13 13 13 14 14 14 14 14 12 10 10 9 9 8 7
2 2 0 3 4 2 4 3 2 2 2 3 2 2 4 9 7 7 8 8 6 3 4 6 8 9 9 10 11 11 12 12 11 12 13 13 12 12 10 9 8 8 7 8
1 3 2 2 1 1 4 1 1 1 1 2 2 2 2 6 7 7 6 9 9 6 6 8 8 8 8 8 9 9 10 12 13 13 11 11 10 11 9 9 8 8 7 9
2 2 2 3 5 2 3 4 4 3 3 5 2 2 2 5 6 8 8 6 7 5 6 8 9 8 8 8 6 7 9 10 10 11 11 12 12 10 9 9 9 8 8 11
2 2 2 6 3 1 1 2 3 4 4 3 3 2 4 5 7 7 6 5 6 3 6 8 8 8 6 6 6 6 8 9 10 11 11 11 12 11 10 11 11 11 10 11
4 4 1 4 4 3 3 2 4 4 4 2 1 1 1 3 5 6 8 8 6 7 4 5 6 7 7 7 6 6 7 8 10 10 12 12 12 12 12 13 14 12 14 15
3 2 4 4 4 6 4 4 4 5 5 2 1 1 1 3 5 5 5 6 7 4 3 3 3 3 5 7 8 8 8 9 11 12 13 13 14 14 15 15 14 15 16 15
0 1 4 2 5 6 5 4 4 5 5 2 1 4 4 3 3 3 4 5 4 4 5 4 2 0 2 5 7 8 10 10 12 13 13 14 14 14 15 14 15 15 15 15
4 9 4 5 4 1 0 3 4 6 4 4 4 4 4 5 4 3 2 2 3 4 4 3 2 2 3 3 5 7 7 9 10 12 13 14 14 15 16 17 17 16 17 16
4 8 5 4 3 3 3 4 4 4 4 5 4 5 5 6 6 5 5 5 5 6 6 6 6 7 7 8 8 8 9 10 11 13 14 15 16 17 18 18 19 18 18 18
7 6 3 4 4 3 4 5 5 5 5 5 7 7 8 8 8 8 8 9 11 10 11 10 10 11 11 12 12 12 12 12 13 13 14 15 17 18 19 19 19 20 20 19
7 4 4 4 5 5 5 5 7 6 6 6 7 8 9 10 10 11 10 11 13 15 12 13 13 13 12 12 11 11 12 12 13 13 15 17 18 20 20 20 22 21 21 20
11 6 5 6 8 7 6 6 5 6 8 9 9 10 10 10 11 12 12 12 12 12 12 15 14 14 15 14 12 12 12 13 13 13 13 14 16 18 20 19 20 20 20 18
10 7 6 5 4 4 5 4 5 5 6 7 8 9 10 11 12 13 14 13 12 10 11 11 12 12 12 12 12 13 13 12 13 13 13 13 14 15 16 17 18 17 17 15
9 7 6 5 5 6 5 4 5 5 7 8 8 8 9 10 12 14 14 11 9 10 10 11 10 10 10 10 10 11 11 12 12 13 13 13 13 13 14 15 15 15 15 16
8 6 5 5 5 6 6 7 8 7 7 8 9 9 11 13 11 11 10 9 9 9 9 9 10 11 11 11 11 11 11 11 11 11 12 12 12 13 14 13 13 14 15 15
9 7 5 6 5 6 8 8 9 10 10 9 9 10 10 8 7 6 7 8 10 12 13 12 9 10 12 11 11 10 11 12 12 12 12 12 12 12 12 13 15 17 18 18
9 7 7 6 6 7 8 9 9 9 9 9 9 8 7 6 6 8 10 12 9 8 8 9 9 11 12 10 10 10 11 12 12 13 13 13 13 13 14 14 15 14 15 16
9 9 8 7 8 8 8 8 9 9 8 8 8 8 8 7 7 9 10 11 9 11 10 9 9 9 9 9 10 11 12 14 14 14 14 14 15 15 15 15 14 14 15 15
7 8 9 9 9 8 9 9 9 9 9 9 11 10 10 10 12 12 10 10 10 9 8 8 9 10 10 11 12 14 15 16 17 17 16 16 16 16 16 16 16 16 16 16
6 7 7 7 9 11 12 11 12 13 13 13 14 13 14 14 13 13 14 13 14 13 14 13 13 12 13 14 15 17 18 18 18 18 18 17 16 16 15 15 15 15 15 16
8 9 10 11 13 13 12 11 15 16 17 16 15 14 15 15 17 13 15 15 14 14 14 14 15 15 16 17 18 19 19 19 19 19 19 19 18 17 16 16 16 16 16 16
10 11 11 13 14 14 14 14 15 14 17 19 18 17 17 16 17 17 16 16 16 16 16 16 16 17 18 19 20 19 20 20 20 20 19 18 17 16 16 16 16 16 17 17
11 12 12 13 12 12 12 13 15 13 13 14 15 12 15 16 16 16 16 15 15 16 16 16 17 18 19 19 20 20 21 21 21 20 18 17 16 16 15 15 14 15 16 16

GFSNGP_850_spd_111.txt.gz
Wind_Speed
3 1 2 4 5 9 7 0 4 3 5 3 5 6 11 17 20 22 23 22 19 16 8 4 7 11 13 14 14 14 14 14 13 12 11 11 11 12 12 12 12 11 11 9
3 4 6 7 8 8 6 5 6 5 6 3 6 11 19 19 19 20 20 19 17 15 13 7 4 6 9 11 12 12 13 13 13 12 12 12 13 13 13 13 13 12 11 10
2 2 1 6 5 4 3 4 1 4 1 4 6 9 13 15 15 14 15 15 14 13 10 8 5 7 8 11 12 13 13 13 12 12 13 13 13 14 15 14 13 12 12 10
1 3 4 4 3 2 5 4 5 4 4 4 5 8 10 11 12 13 13 11 11 9 6 2 1 4 7 9 11 12 13 13 13 13 12 13 14 14 13 13 12 11 9 7
3 3 1 2 4 3 2 4 4 3 5 8 5 3 6 11 10 11 12 12 10 9 8 4 1 2 5 7 9 11 12 13 13 13 14 15 15 14 13 12 11 11 10 9
2 4 2 0 3 3 1 3 6 6 6 6 6 3 3 12 13 11 10 10 10 6 5 3 2 2 2 3 6 7 8 9 10 11 12 12 13 13 13 12 11 11 9 7
1 2 3 2 4 2 3 3 2 4 3 4 3 2 4 8 9 11 11 10 10 5 2 6 5 3 3 3 4 6 7 8 9 11 12 13 13 12 12 12 12 12 10 7
2 3 2 1 2 2 3 2 2 4 5 5 5 4 3 4 7 9 10 9 10 8 3 4 5 5 4 4 4 5 7 7 8 9 11 12 11 12 13 13 13 12 10 10
4 3 1 3 4 5 3 3 3 4 4 2 1 1 2 3 6 7 9 9 8 8 6 3 5 6 5 5 5 5 6 8 9 11 11 12 12 13 13 13 14 15 14 13
2 1 2 4 5 5 5 5 4 3 3 2 2 2 2 5 7 5 5 6 7 7 5 5 3 2 4 6 7 7 7 8 9 10 11 12 13 14 15 16 16 15 14 15
0 0 3 3 5 6 6 4 2 2 3 3 3 1 3 3 3 4 4 4 5 5 5 4 4 1 1 2 4 6 8 9 10 11 12 13 14 14 15 15 15 15 16 15
5 13 5 8 9 4 3 2 3 3 1 1 2 3 2 2 1 2 3 4 4 4 4 3 3 3 3 3 3 5 6 7 8 10 11 12 16 15 15 16 16 17 16 15
5 17 7 12 9 4 2 2 1 1 1 1 2 4 4 4 4 3 3 3 4 6 7 7 7 7 7 8 8 9 9 9 9 10 11 11 12 13 14 15 16 16 16 17
13 15 8 9 6 6 4 3 2 3 3 3 5 5 6 7 6 6 6 7 6 6 9 11 12 11 12 11 12 12 12 12 12 12 13 12 13 14 15 16 17 17 17 16
14 11 7 9 7 6 6 5 4 4 5 5 5 6 6 7 8 9 9 10 11 11 11 12 12 10 11 11 11 11 11 11 12 12 13 13 13 14 16 18 19 19 18 18
16 11 8 7 6 7 7 6 6 6 6 6 8 9 9 9 9 10 11 12 14 14 13 12 12 13 11 11 10 10 10 11 11 12 12 12 13 12 13 14 16 17 19 18
20 13 12 10 8 7 6 4 5 5 5 6 8 7 8 9 10 10 11 11 13 14 12 11 11 10 11 11 9 9 9 9 10 10 11 11 11 11 11 12 14 14 15 14
13 9 9 8 9 7 6 5 6 7 7 7 7 8 9 8 8 11 12 12 11 10 9 9 8 7 8 9 10 10 10 10 10 10 10 9 10 11 10 10 11 11 11 10
13 9 7 7 7 6 6 8 9 9 8 8 10 10 10 12 14 14 11 10 9 8 9 9 10 10 8 9 10 12 11 11 10 10 10 10 9 10 10 10 11 11 12 12
13 10 8 6 5 5 6 8 10 10 11 12 11 10 11 11 10 8 7 6 7 9 11 11 11 11 10 8 8 10 10 10 10 10 10 10 10 10 10 10 10 11 12 14
12 10 8 6 6 6 7 8 11 11 10 11 12 11 10 9 8 8 8 7 5 7 8 8 8 9 8 7 6 6 9 11 12 12 12 12 12 12 11 11 11 10 10 12
12 10 7 7 9 8 8 9 9 10 11 11 10 8 9 8 8 8 8 10 7 10 9 9 8 7 6 7 8 8 9 12 14 15 14 14 14 14 13 13 12 11 11 10
9 7 6 7 9 8 7 10 9 9 10 11 10 11 11 10 11 12 11 10 10 10 10 9 9 9 11 11 10 11 13 14 14 15 15 15 14 14 14 13 12 11 11 11
8 7 5 7 8 9 10 8 10 12 13 12 13 13 14 15 15 15 13 13 13 12 12 11 12 12 13 13 13 14 15 15 15 15 16 16 15 14 14 13 12 11 10 10
7 8 9 9 11 11 12 10 13 14 15 15 15 16 17 16 18 14 14 15 16 15 14 13 13 14 14 15 15 16 17 17 17 16 17 16 15 14 13 12 12 11 10 10
9 9 10 11 12 13 13 14 16 14 14 14 15 17 18 18 19 18 16 16 16 16 15 14 14 15 15 16 17 17 17 17 18 18 18 16 14 13 12 12 12 11 11 10
11 12 12 13 12 13 13 14 16 14 13 15 15 11 14 14 14 14 14 14 14 14 14 14 15 16 16 17 17 18 17 18 18 19 17 14 13 11 10 10 10 10 10 10

GFSNGP_850_spd_114.txt.gz
Wind_Speed
6 3 3 9 13 16 8 5 9 10 14 11 11 11 14 16 18 19 19 19 20 13 6 2 2 9 10 15 19 19 20 21 22 22 22 23 25 25 24 24 24 20 18 20
6 9 10 14 16 12 13 13 14 14 13 7 9 10 15 16 16 17 17 16 16 15 14 8 7 8 10 11 13 14 15 19 20 21 22 22 23 23 22 22 20 19 20 19
2 4 5 7 12 10 9 10 6 10 6 6 9 12 15 14 15 14 14 14 15 13 12 11 7 8 9 10 11 14 16 16 17 19 20 19 19 19 19 20 20 21 20 18
2 2 3 3 4 2 12 10 9 8 6 6 6 7 12 14 14 13 14 13 13 12 8 7 7 7 6 8 11 12 13 14 15 16 18 20 21 21 21 21 21 20 18 18
1 4 3 3 3 2 4 7 8 6 5 6 3 2 12 15 15 14 15 14 12 9 6 5 3 3 5 5 5 6 9 12 14 15 16 17 18 18 19 20 19 18 18 16
1 2 2 2 1 3 3 3 6 6 7 8 3 3 6 11 14 15 14 14 12 9 4 4 3 2 2 3 5 7 9 11 13 14 16 17 18 19 20 19 19 18 17 16
3 3 2 1 1 2 1 4 5 6 7 7 5 5 4 9 12 13 14 15 14 10 5 3 4 4 4 3 3 5 7 9 11 12 13 13 14 14 15 17 17 17 16 15
1 1 2 2 3 2 4 5 4 4 4 4 5 4 5 7 10 11 13 13 13 12 8 6 4 4 4 5 5 5 5 6 8 10 12 13 14 16 16 17 17 16 15 15
2 2 2 1 2 5 4 5 3 3 3 3 3 3 4 7 9 10 10 12 12 12 10 6 3 2 2 2 2 4 6 8 10 12 13 14 15 15 16 18 18 18 17 16
3 3 2 1 3 4 5 4 5 4 3 2 3 3 2 4 7 8 9 9 9 10 9 8 6 4 3 4 4 4 5 5 7 9 12 13 15 17 17 18 18 18 17 16
1 2 3 4 4 6 6 5 3 2 2 3 4 1 1 1 2 3 4 5 7 9 9 9 8 6 5 4 5 6 5 6 9 9 10 12 14 15 16 16 16 17 16 17
4 12 3 10 13 10 8 5 3 2 2 3 4 4 3 1 3 3 3 4 4 5 7 7 7 7 7 6 5 5 6 7 9 10 11 13 15 15 13 15 17 17 17 16
3 14 6 15 14 9 7 4 3 3 2 4 5 5 5 5 5 7 7 7 6 7 8 9 11 13 14 12 11 11 11 11 11 11 11 12 13 13 13 15 17 17 17 17
12 20 10 16 9 10 7 6 6 5 6 5 6 7 8 9 9 10 9 8 9 9 9 10 13 15 16 16 16 13 13 14 14 14 14 14 14 14 15 15 16 17 18 19
20 15 11 14 12 11 9 8 8 8 8 7 7 7 8 8 9 10 10 10 10 11 13 14 16 16 15 15 15 12 12 16 16 15 14 14 14 14 15 15 16 18 19 20
21 15 13 14 14 12 11 10 10 10 9 9 9 9 9 10 11 10 10 11 11 12 14 15 15 13 12 13 11 10 11 13 15 15 14 14 14 14 15 15 15 15 17 19
25 18 18 16 16 14 12 10 11 11 9 8 9 9 9 8 10 10 11 12 12 13 14 14 13 13 12 10 9 10 11 11 11 12 12 12 14 14 14 15 14 14 15 16
23 17 17 13 15 13 11 9 8 9 8 8 9 9 9 10 9 9 10 11 12 12 11 10 10 9 8 7 6 5 6 7 9 11 11 11 12 12 13 14 13 13 12 12
18 15 14 12 12 11 10 10 10 9 9 9 9 10 12 11 12 13 13 12 11 9 8 8 8 9 9 9 10 12 11 11 11 12 12 12 12 12 12 12 12 13 15 14
18 14 12 11 10 9 9 10 10 11 11 12 12 13 13 11 11 11 10 9 8 8 10 10 10 10 9 9 9 10 10 8 8 9 10 10 11 11 12 12 12 13 13 14
18 15 12 11 8 8 10 11 12 12 13 14 14 13 12 11 10 10 9 9 7 8 9 10 10 11 11 9 8 8 8 8 8 9 11 13 14 13 12 12 13 13 13 12
18 15 12 9 8 9 10 11 10 10 12 14 13 12 11 10 11 11 11 10 9 12 11 11 12 12 11 10 9 9 9 11 13 14 15 16 15 17 16 14 14 13 14 13
15 13 10 8 9 9 9 10 10 10 11 11 12 11 11 12 13 14 13 12 13 12 13 13 13 13 13 13 13 13 14 14 16 16 16 16 16 15 15 15 15 14 14 13
14 12 9 8 10 10 11 8 10 10 11 12 13 13 15 16 16 16 17 16 16 16 16 14 14 14 15 16 15 15 16 16 17 17 17 17 17 17 16 16 15 14 13 13
13 10 9 10 11 11 11 10 14 14 14 14 14 16 17 18 20 18 17 17 17 17 17 16 15 15 16 16 16 17 17 18 18 18 18 18 18 18 16 15 13 13 12 12
14 10 9 10 11 12 13 13 15 14 15 17 16 15 16 18 19 19 19 18 18 17 18 17 17 16 17 17 17 18 18 18 19 19 19 19 18 17 15 14 13 12 11 10
13 12 11 12 12 12 14 15 16 15 15 17 18 15 17 17 17 17 17 16 16 15 16 16 16 16 17 18 18 18 18 18 18 19 19 19 17 15 13 12 10 9 9 9

GFSNGP_850_spd_117.txt.gz
Wind_Speed
7 7 12 12 16 18 13 14 9 14 17 13 13 14 18 19 19 21 26 27 21 21 19 15 16 12 13 19 20 20 21 21 21 22 22 22 25 27 29 31 31 28 27 25
6 8 12 15 17 15 14 15 15 16 15 10 14 16 19 19 19 22 22 19 17 17 8 11 8 9 9 10 15 18 22 23 23 23 23 22 25 26 27 26 27 27 25 23
3 2 4 5 12 9 13 13 10 10 9 10 12 15 18 18 19 18 17 17 16 16 13 9 7 6 7 8 10 16 19 23 24 24 24 24 26 25 24 24 24 25 23 23
2 4 2 3 5 8 12 12 11 10 10 10 11 16 18 18 17 16 15 15 14 12 9 9 10 9 7 8 8 9 11 16 20 21 21 21 22 23 24 24 24 24 24 23
2 5 4 3 2 3 5 8 10 10 9 9 3 8 22 18 17 16 15 14 13 11 10 10 9 8 7 6 6 7 8 10 12 15 16 18 19 19 20 21 21 21 21 21
1 2 1 4 4 4 6 2 7 9 10 10 10 7 7 14 16 16 16 16 15 12 10 9 7 7 5 4 3 3 5 8 9 11 12 14 16 17 18 18 18 20 21 20
3 2 4 4 2 3 3 4 4 6 8 12 9 8 6 9 12 14 16 17 14 12 10 10 10 8 7 4 2 2 3 6 8 10 12 13 15 16 18 19 21 21 21 21
1 0 4 2 3 4 5 6 5 6 6 8 8 7 7 8 11 14 15 16 16 15 12 9 7 6 6 6 5 2 1 2 4 7 10 13 13 15 16 17 19 20 21 21
4 3 3 3 5 5 4 6 4 4 4 4 4 5 6 7 10 12 12 13 13 13 14 12 8 6 5 5 4 3 2 1 3 6 7 8 10 14 16 18 21 22 24 23
3 4 6 6 5 5 4 5 4 4 3 2 3 3 3 5 6 8 9 10 10 10 12 12 12 10 8 6 6 4 6 8 5 6 8 11 13 14 15 17 19 20 22 22
2 4 4 5 5 6 6 5 3 2 3 2 2 1 0 1 2 3 5 6 7 8 9 10 9 9 9 8 7 4 3 4 8 8 11 11 12 15 17 18 19 21 22 20
2 11 7 12 13 10 7 5 3 2 1 1 2 2 1 2 2 2 4 5 4 4 6 6 7 8 9 9 6 5 5 5 6 7 8 11 14 17 18 19 18 19 21 21
2 12 6 12 13 12 8 6 4 3 3 2 4 4 5 6 6 5 6 7 6 7 8 7 7 11 14 16 15 14 12 10 9 10 10 10 11 14 16 16 17 18 18 19
12 16 9 14 9 15 11 9 7 7 7 6 6 7 7 8 10 9 8 9 10 12 12 11 11 13 14 15 17 16 15 15 12 10 11 12 14 15 16 16 16 15 16 17
16 11 6 13 11 14 12 10 8 7 8 8 9 8 8 8 8 10 11 13 12 13 13 14 15 16 17 16 15 15 15 15 15 15 14 13 13 14 15 16 17 17 17 17
18 15 11 14 15 13 12 11 10 8 10 9 9 10 11 11 11 12 13 12 13 15 15 15 15 16 15 15 15 14 13 11 12 13 13 13 13 12 13 15 16 17 17 17
20 16 15 15 17 15 13 10 10 10 11 12 11 11 11 11 11 12 12 14 14 15 16 16 17 16 15 13 12 12 11 11 12 13 13 13 12 13 12 13 14 15 15 15
21 17 19 15 17 15 13 11 10 10 10 11 10 10 12 12 13 14 14 13 15 18 17 16 16 14 13 12 11 10 10 12 13 14 14 14 14 14 14 14 14 15 15 14
21 16 15 14 13 13 12 10 10 10 10 10 11 12 13 13 15 15 15 16 18 17 14 13 12 12 12 13 13 14 14 12 12 12 12 12 13 13 14 14 14 14 14 14
20 16 15 15 13 12 11 10 10 11 12 12 13 14 15 15 16 16 16 17 15 14 13 13 13 12 12 11 11 13 12 12 12 12 12 12 13 14 14 14 14 14 15 15
22 18 15 13 12 10 9 10 11 12 14 14 15 15 16 16 16 15 15 16 12 14 13 12 13 14 14 13 13 12 11 11 11 12 13 15 17 17 17 16 17 17 16 16
22 18 15 13 11 9 9 10 12 12 14 14 16 17 17 16 16 15 15 16 15 15 16 15 15 14 14 15 14 14 14 14 15 15 17 18 19 19 19 19 18 18 18 19
19 15 13 12 9 8 10 11 10 11 11 10 12 13 15 14 14 17 18 16 16 16 17 16 15 16 16 17 17 17 17 18 19 18 19 20 20 20 20 19 19 19 18 18
17 15 13 11 10 10 11 9 11 12 13 13 13 13 14 16 18 19 19 19 19 20 21 20 18 17 18 18 19 19 19 19 20 20 20 20 20 20 20 20 19 18 17 16
17 14 13 12 11 10 10 11 13 14 14 15 15 15 16 18 21 20 22 21 20 20 20 19 19 18 19 19 20 19 19 20 20 21 21 21 20 20 20 20 19 16 15 15
16 15 13 11 11 11 12 13 14 14 15 15 16 16 17 18 19 20 22 22 21 20 20 21 19 18 19 19 19 20 20 20 21 21 21 22 21 21 20 19 17 15 14 13
17 16 14 13 12 12 14 15 16 15 15 17 18 16 17 18 20 20 20 20 19 19 18 18 17 17 18 18 19 20 20 21 21 21 21 21 21 21 19 17 14 13 12 12

GFSNGP_850_spd_123.txt.gz
Wind_Speed
5 5 15 14 14 13 14 8 7 8 14 14 15 15 21 29 32 37 41 38 41 47 41 35 34 28 23 24 19 18 18 18 16 14 19 14 14 14 16 19 20 28 28 28
3 5 15 11 12 13 11 7 6 4 6 6 13 20 27 27 29 35 32 30 42 42 41 37 31 27 22 19 16 11 12 11 10 8 9 10 8 7 10 16 18 20 17 15
2 4 2 6 8 8 5 7 3 5 3 6 13 17 21 21 25 23 27 35 35 36 34 31 29 26 23 20 15 13 11 10 7 7 7 6 6 8 8 9 11 14 14 16
2 3 4 3 3 4 8 10 7 5 2 5 11 16 23 24 23 27 28 30 32 31 29 26 22 19 16 11 12 11 11 8 7 5 2 2 4 5 6 9 15 18 19 17
3 3 3 1 2 1 2 5 7 6 4 4 4 8 21 25 24 23 22 22 24 24 25 24 24 22 19 17 15 14 12 9 6 4 3 2 2 4 6 7 9 11 13 16
2 3 2 2 2 1 2 3 7 10 9 8 2 6 5 17 19 21 22 21 21 21 23 24 22 18 17 18 16 16 13 11 8 6 3 3 4 4 4 5 6 10 13 14
2 2 3 4 3 2 1 4 5 8 11 14 6 6 5 11 17 19 21 20 18 19 22 22 18 17 19 18 20 17 13 10 8 6 5 3 2 3 5 6 8 10 11 12
1 2 3 3 2 5 8 11 11 9 9 10 9 8 8 9 12 15 17 19 18 17 19 18 15 13 15 17 17 13 12 11 9 8 7 6 7 7 6 7 8 10 12 14
6 4 3 3 7 13 19 16 11 12 9 8 5 5 8 10 12 13 14 15 15 17 16 16 15 14 14 16 12 11 10 11 10 8 8 8 8 9 10 9 9 10 12 14
2 3 5 9 12 13 18 16 14 14 12 11 11 7 4 3 5 5 7 9 12 11 12 13 15 14 14 13 12 11 11 10 10 8 7 6 6 7 8 10 11 12 14 14
3 2 4 9 12 15 14 14 15 14 13 14 11 10 9 9 6 2 3 5 5 5 6 7 9 11 10 10 11 13 13 11 10 9 8 8 8 8 9 9 10 13 15 16
6 16 8 13 20 18 18 17 15 14 13 12 11 10 9 8 7 5 4 2 0 3 5 6 5 5 6 7 9 11 13 13 12 12 11 11 11 11 12 12 13 15 16 17
4 9 16 7 23 20 18 16 14 12 10 10 9 7 6 7 7 7 7 6 5 3 1 3 6 9 7 8 10 12 14 14 13 13 13 12 12 14 14 12 15 16 17 17
10 18 9 24 22 21 18 16 13 10 9 8 7 7 7 7 7 7 6 6 6 6 7 7 7 7 8 8 8 9 9 10 13 16 15 15 15 15 15 16 17 15 13 16
21 20 13 20 17 22 19 17 14 10 8 7 6 6 6 6 6 5 5 5 5 6 6 7 8 8 9 9 9 10 10 11 11 11 11 12 13 14 15 16 16 16 16 13
23 18 15 21 21 24 21 18 14 12 10 8 8 7 7 7 7 7 7 7 7 8 9 10 11 11 12 12 12 11 9 9 9 9 9 10 10 11 13 14 15 15 16 15
28 20 21 22 23 23 21 16 13 12 10 9 9 8 8 8 8 8 7 8 9 8 9 10 13 14 13 12 11 10 9 9 10 11 13 13 13 13 14 15 15 16 16 17
27 26 24 21 24 22 20 17 14 11 9 8 8 8 7 8 7 8 8 9 10 9 11 12 12 10 9 8 8 9 10 10 11 11 10 10 10 10 11 12 13 14 15 15
24 21 23 21 20 19 18 16 13 11 9 8 7 7 8 8 8 9 11 11 11 11 10 10 9 8 8 9 9 9 10 10 11 11 11 11 10 11 11 13 14 15 16 17
25 19 20 21 20 20 18 15 13 10 8 7 8 8 8 9 10 11 15 10 10 11 12 10 10 10 11 11 11 12 12 13 13 12 12 11 12 12 14 15 17 18 18 18
27 23 23 22 21 19 17 14 12 10 7 7 8 9 10 10 12 15 13 10 7 12 11 10 11 11 12 13 14 14 14 15 15 14 14 14 14 14 16 17 17 18 19 19
29 27 25 23 22 19 17 14 11 8 7 7 8 8 9 9 11 12 11 13 8 12 11 11 12 13 14 14 15 15 16 16 16 16 16 16 17 17 17 18 18 18 19 19
29 27 25 23 21 18 16 13 9 7 6 6 7 8 8 8 9 11 9 8 11 12 15 15 15 15 16 18 18 18 17 17 16 16 16 17 17 17 17 18 18 19 19 19
28 26 24 21 20 18 15 11 8 7 6 6 6 8 9 9 10 10 11 12 13 15 16 16 16 17 17 18 18 18 19 18 16 16 16 16 17 17 18 18 18 18 19 19
27 26 25 23 20 17 14 10 8 7 7 7 7 8 9 10 14 11 13 14 15 16 17 18 19 20 20 20 19 20 21 18 17 16 16 17 16 17 18 18 18 18 19 18
30 28 25 20 16 16 13 11 8 8 8 9 8 9 10 11 13 14 14 15 16 16 17 17 18 18 19 19 18 18 17 16 16 14 16 18 18 18 17 18 18 18 17 15
27 24 23 21 20 17 13 11 10 8 9 11 11 10 11 12 13 14 15 15 16 16 17 16 16 16 17 16 16 15 15 14 14 15 16 17 17 17 17 17 18 17 13 11